Wetterdaten: Sonntag, 11.06.2023
Datum Zeit Temp. 2m Temp +5 cm Feuchte A. Luftdruck Regen Wind Richtung Richtung Sonnenschein UV Solar Taupunkt Windchill Windben
11.06.2023 00:00 13,8 C 11,1 C 76 % 1016,3 hPa 0,0 l/m 3,2 km/h (1 Bft) NO 45 0 min 0,0 UV-I 0 W/m 9,6 C 13,8 C 4,8 km/h (1 Bft)
11.06.2023 00:01 13,8 C 11,1 C 76 % 1016,3 hPa 0,0 l/m 1,6 km/h (1 Bft) NO 45 0 min 0,0 UV-I 0 W/m 9,6 C 13,8 C 1,6 km/h (1 Bft)
11.06.2023 00:02 13,8 C 11,1 C 76 % 1016,4 hPa 0,0 l/m 1,6 km/h (1 Bft) NO 45 0 min 0,0 UV-I 0 W/m 9,6 C 13,8 C 3,2 km/h (1 Bft)
11.06.2023 00:03 13,7 C 11,1 C 76 % 1016,3 hPa 0,0 l/m 0,0 km/h (0 Bft) NO 45 0 min 0,0 UV-I 0 W/m 9,5 C 13,7 C 1,6 km/h (1 Bft)
11.06.2023 00:04 13,6 C 11,1 C 77 % 1016,4 hPa 0,0 l/m 0,0 km/h (0 Bft) NO 45 0 min 0,0 UV-I 0 W/m 9,6 C 13,6 C 1,6 km/h (1 Bft)
11.06.2023 00:05 13,6 C 11,1 C 77 % 1016,4 hPa 0,0 l/m 0,0 km/h (0 Bft) N 0 0 min 0,0 UV-I 0 W/m 9,6 C 13,6 C 0,0 km/h (0 Bft)
11.06.2023 00:06 13,5 C 11,1 C 77 % 1016,4 hPa 0,0 l/m 0,0 km/h (0 Bft) N 0 0 min 0,0 UV-I 0 W/m 9,5 C 13,5 C 0,0 km/h (0 Bft)
11.06.2023 00:07 13,4 C 11,1 C 77 % 1016,3 hPa 0,0 l/m 1,6 km/h (1 Bft) NO 45 0 min 0,0 UV-I 0 W/m 9,5 C 13,4 C 1,6 km/h (1 Bft)
11.06.2023 00:08 13,4 C 11,1 C 77 % 1016,4 hPa 0,0 l/m 0,0 km/h (0 Bft) NO 45 0 min 0,0 UV-I 0 W/m 9,5 C 13,4 C 1,6 km/h (1 Bft)
11.06.2023 00:09 13,3 C 11,1 C 77 % 1016,3 hPa 0,0 l/m 0,0 km/h (0 Bft) NO 45 0 min 0,0 UV-I 0 W/m 9,4 C 13,3 C 1,6 km/h (1 Bft)
11.06.2023 00:10 13,3 C 11,1 C 77 % 1016,3 hPa 0,0 l/m 1,6 km/h (1 Bft) NO 45 0 min 0,0 UV-I 0 W/m 9,4 C 13,3 C 1,6 km/h (1 Bft)
11.06.2023 00:11 13,3 C 11,1 C 77 % 1016,4 hPa 0,0 l/m 1,6 km/h (1 Bft) NO 45 0 min 0,0 UV-I 0 W/m 9,4 C 13,3 C 1,6 km/h (1 Bft)
11.06.2023 00:12 13,3 C 11,1 C 77 % 1016,3 hPa 0,0 l/m 0,0 km/h (0 Bft) NO 45 0 min 0,0 UV-I 0 W/m 9,4 C 13,3 C 1,6 km/h (1 Bft)
11.06.2023 00:13 13,4 C 11,7 C 77 % 1016,5 hPa 0,0 l/m 1,6 km/h (1 Bft) NO 45 0 min 0,0 UV-I 0 W/m 9,5 C 13,4 C 1,6 km/h (1 Bft)
11.06.2023 00:14 13,4 C 11,7 C 77 % 1016,4 hPa 0,0 l/m 1,6 km/h (1 Bft) NO 45 0 min 0,0 UV-I 0 W/m 9,5 C 13,4 C 1,6 km/h (1 Bft)
11.06.2023 00:15 13,4 C 11,7 C 77 % 1016,5 hPa 0,0 l/m 1,6 km/h (1 Bft) NO 45 0 min 0,0 UV-I 0 W/m 9,5 C 13,4 C 1,6 km/h (1 Bft)
11.06.2023 00:16 13,5 C 11,7 C 77 % 1016,4 hPa 0,0 l/m 1,6 km/h (1 Bft) NO 45 0 min 0,0 UV-I 0 W/m 9,5 C 13,5 C 1,6 km/h (1 Bft)
11.06.2023 00:17 13,5 C 11,7 C 77 % 1016,4 hPa 0,0 l/m 1,6 km/h (1 Bft) NO 45 0 min 0,0 UV-I 0 W/m 9,5 C 13,5 C 3,2 km/h (1 Bft)
11.06.2023 00:18 13,5 C 11,7 C 77 % 1016,4 hPa 0,0 l/m 1,6 km/h (1 Bft) NO 45 0 min 0,0 UV-I 0 W/m 9,5 C 13,5 C 3,2 km/h (1 Bft)
11.06.2023 00:19 13,6 C 11,7 C 77 % 1016,4 hPa 0,0 l/m 1,6 km/h (1 Bft) NO 45 0 min 0,0 UV-I 0 W/m 9,6 C 13,6 C 3,2 km/h (1 Bft)
11.06.2023 00:20 13,7 C 12,2 C 76 % 1016,5 hPa 0,0 l/m 1,6 km/h (1 Bft) NO 45 0 min 0,0 UV-I 0 W/m 9,5 C 13,7 C 3,2 km/h (1 Bft)
11.06.2023 00:21 13,8 C 12,2 C 76 % 1016,5 hPa 0,0 l/m 0,0 km/h (0 Bft) N 0 0 min 0,0 UV-I 0 W/m 9,6 C 13,8 C 0,0 km/h (0 Bft)
11.06.2023 00:22 13,9 C 11,7 C 76 % 1016,4 hPa 0,0 l/m 0,0 km/h (0 Bft) N 0 0 min 0,0 UV-I 0 W/m 9,7 C 13,9 C 0,0 km/h (0 Bft)
11.06.2023 00:23 14,0 C 11,7 C 75 % 1016,5 hPa 0,0 l/m 0,0 km/h (0 Bft) NO 45 0 min 0,0 UV-I 0 W/m 9,6 C 14,0 C 1,6 km/h (1 Bft)
11.06.2023 00:24 14,1 C 11,7 C 75 % 1016,5 hPa 0,0 l/m 0,0 km/h (0 Bft) NO 45 0 min 0,0 UV-I 0 W/m 9,7 C 14,1 C 1,6 km/h (1 Bft)
11.06.2023 00:25 14,2 C 11,7 C 75 % 1016,5 hPa 0,0 l/m 0,0 km/h (0 Bft) NO 45 0 min 0,0 UV-I 0 W/m 9,8 C 14,2 C 1,6 km/h (1 Bft)
11.06.2023 00:26 14,2 C 11,7 C 75 % 1016,6 hPa 0,0 l/m 1,6 km/h (1 Bft) NO 45 0 min 0,0 UV-I 0 W/m 9,8 C 14,2 C 3,2 km/h (1 Bft)
11.06.2023 00:27 14,3 C 11,7 C 75 % 1016,5 hPa 0,0 l/m 1,6 km/h (1 Bft) NO 45 0 min 0,0 UV-I 0 W/m 9,9 C 14,3 C 3,2 km/h (1 Bft)
11.06.2023 00:28 14,3 C 12,2 C 75 % 1016,5 hPa 0,0 l/m 1,6 km/h (1 Bft) NO 45 0 min 0,0 UV-I 0 W/m 9,9 C 14,3 C 3,2 km/h (1 Bft)
11.06.2023 00:29 14,3 C 12,2 C 74 % 1016,4 hPa 0,0 l/m 1,6 km/h (1 Bft) NO 45 0 min 0,0 UV-I 0 W/m 9,7 C 14,3 C 3,2 km/h (1 Bft)
11.06.2023 00:30 14,3 C 12,2 C 74 % 1016,5 hPa 0,0 l/m 1,6 km/h (1 Bft) NO 45 0 min 0,0 UV-I 0 W/m 9,7 C 14,3 C 3,2 km/h (1 Bft)
11.06.2023 00:31 14,4 C 12,2 C 74 % 1016,5 hPa 0,0 l/m 1,6 km/h (1 Bft) NO 45 0 min 0,0 UV-I 0 W/m 9,8 C 14,4 C 3,2 km/h (1 Bft)
11.06.2023 00:32 14,3 C 12,2 C 74 % 1016,5 hPa 0,0 l/m 3,2 km/h (1 Bft) NO 45 0 min 0,0 UV-I 0 W/m 9,7 C 14,3 C 4,8 km/h (1 Bft)
11.06.2023 00:33 14,4 C 12,2 C 74 % 1016,5 hPa 0,0 l/m 0,0 km/h (0 Bft) NO 45 0 min 0,0 UV-I 0 W/m 9,8 C 14,4 C 1,6 km/h (1 Bft)
11.06.2023 00:34 14,4 C 12,2 C 74 % 1016,4 hPa 0,0 l/m 0,0 km/h (0 Bft) NO 45 0 min 0,0 UV-I 0 W/m 9,8 C 14,4 C 1,6 km/h (1 Bft)
11.06.2023 00:35 14,4 C 12,2 C 74 % 1016,5 hPa 0,0 l/m 0,0 km/h (0 Bft) NO 45 0 min 0,0 UV-I 0 W/m 9,8 C 14,4 C 3,2 km/h (1 Bft)
11.06.2023 00:36 14,4 C 12,2 C 74 % 1016,5 hPa 0,0 l/m 3,2 km/h (1 Bft) N-NO 22 0 min 0,0 UV-I 0 W/m 9,8 C 14,4 C 4,8 km/h (1 Bft)
11.06.2023 00:37 14,4 C 12,2 C 74 % 1016,4 hPa 0,0 l/m 3,2 km/h (1 Bft) N-NO 22 0 min 0,0 UV-I 0 W/m 9,8 C 14,4 C 4,8 km/h (1 Bft)
11.06.2023 00:38 14,3 C 12,2 C 74 % 1016,4 hPa 0,0 l/m 1,6 km/h (1 Bft) N-NO 22 0 min 0,0 UV-I 0 W/m 9,7 C 14,3 C 3,2 km/h (1 Bft)
11.06.2023 00:39 14,3 C 12,2 C 74 % 1016,4 hPa 0,0 l/m 1,6 km/h (1 Bft) N-NO 22 0 min 0,0 UV-I 0 W/m 9,7 C 14,3 C 3,2 km/h (1 Bft)
11.06.2023 00:40 14,3 C 12,2 C 74 % 1016,4 hPa 0,0 l/m 1,6 km/h (1 Bft) N-NO 22 0 min 0,0 UV-I 0 W/m 9,7 C 14,3 C 3,2 km/h (1 Bft)
11.06.2023 00:41 14,3 C 11,7 C 74 % 1016,4 hPa 0,0 l/m 1,6 km/h (1 Bft) N-NO 22 0 min 0,0 UV-I 0 W/m 9,7 C 14,3 C 3,2 km/h (1 Bft)
11.06.2023 00:42 14,3 C 11,7 C 74 % 1016,5 hPa 0,0 l/m 1,6 km/h (1 Bft) N-NO 22 0 min 0,0 UV-I 0 W/m 9,7 C 14,3 C 3,2 km/h (1 Bft)
11.06.2023 00:43 14,2 C 11,7 C 75 % 1016,5 hPa 0,0 l/m 0,0 km/h (0 Bft) N-NO 22 0 min 0,0 UV-I 0 W/m 9,8 C 14,2 C 1,6 km/h (1 Bft)
11.06.2023 00:44 14,2 C 11,7 C 75 % 1016,4 hPa 0,0 l/m 0,0 km/h (0 Bft) N-NO 22 0 min 0,0 UV-I 0 W/m 9,8 C 14,2 C 1,6 km/h (1 Bft)
11.06.2023 00:45 14,1 C 11,7 C 75 % 1016,5 hPa 0,0 l/m 1,6 km/h (1 Bft) N-NO 22 0 min 0,0 UV-I 0 W/m 9,7 C 14,1 C 1,6 km/h (1 Bft)
11.06.2023 00:46 14,0 C 11,1 C 75 % 1016,5 hPa 0,0 l/m 0,0 km/h (0 Bft) N-NO 22 0 min 0,0 UV-I 0 W/m 9,6 C 14,0 C 1,6 km/h (1 Bft)
11.06.2023 00:47 14,1 C 11,7 C 75 % 1016,4 hPa 0,0 l/m 1,6 km/h (1 Bft) N-NO 22 0 min 0,0 UV-I 0 W/m 9,7 C 14,1 C 1,6 km/h (1 Bft)
11.06.2023 00:48 14,1 C 11,7 C 75 % 1016,4 hPa 0,0 l/m 1,6 km/h (1 Bft) N-NO 22 0 min 0,0 UV-I 0 W/m 9,7 C 14,1 C 3,2 km/h (1 Bft)
11.06.2023 00:49 14,1 C 11,7 C 75 % 1016,4 hPa 0,0 l/m 3,2 km/h (1 Bft) N-NO 22 0 min 0,0 UV-I 0 W/m 9,7 C 14,1 C 4,8 km/h (1 Bft)
11.06.2023 00:50 14,2 C 11,7 C 75 % 1016,4 hPa 0,0 l/m 1,6 km/h (1 Bft) N-NO 22 0 min 0,0 UV-I 0 W/m 9,8 C 14,2 C 1,6 km/h (1 Bft)
11.06.2023 00:51 14,2 C 11,7 C 75 % 1016,4 hPa 0,0 l/m 0,0 km/h (0 Bft) N-NO 22 0 min 0,0 UV-I 0 W/m 9,8 C 14,2 C 1,6 km/h (1 Bft)
11.06.2023 00:52 14,1 C 11,1 C 75 % 1016,5 hPa 0,0 l/m 1,6 km/h (1 Bft) N-NO 22 0 min 0,0 UV-I 0 W/m 9,7 C 14,1 C 1,6 km/h (1 Bft)
11.06.2023 00:53 13,9 C 11,1 C 75 % 1016,5 hPa 0,0 l/m 0,0 km/h (0 Bft) N 0 0 min 0,0 UV-I 0 W/m 9,5 C 13,9 C 0,0 km/h (0 Bft)
11.06.2023 00:54 13,8 C 11,1 C 75 % 1016,5 hPa 0,0 l/m 0,0 km/h (0 Bft) N 0 0 min 0,0 UV-I 0 W/m 9,4 C 13,8 C 0,0 km/h (0 Bft)
11.06.2023 00:55 13,8 C 11,1 C 76 % 1016,4 hPa 0,0 l/m 0,0 km/h (0 Bft) N 0 0 min 0,0 UV-I 0 W/m 9,6 C 13,8 C 0,0 km/h (0 Bft)
11.06.2023 00:56 13,7 C 11,1 C 76 % 1016,5 hPa 0,0 l/m 0,0 km/h (0 Bft) N 0 0 min 0,0 UV-I 0 W/m 9,5 C 13,7 C 0,0 km/h (0 Bft)
11.06.2023 00:57 13,8 C 11,1 C 76 % 1016,5 hPa 0,0 l/m 0,0 km/h (0 Bft) N 0 0 min 0,0 UV-I 0 W/m 9,6 C 13,8 C 0,0 km/h (0 Bft)
11.06.2023 00:58 13,8 C 11,1 C 76 % 1016,4 hPa 0,0 l/m 0,0 km/h (0 Bft) N 0 0 min 0,0 UV-I 0 W/m 9,6 C 13,8 C 0,0 km/h (0 Bft)
11.06.2023 00:59 13,7 C 11,1 C 76 % 1016,5 hPa 0,0 l/m 0,0 km/h (0 Bft) N 0 0 min 0,0 UV-I 0 W/m 9,5 C 13,7 C 0,0 km/h (0 Bft)
11.06.2023 01:00 13,7 C 11,1 C 76 % 1016,4 hPa 0,0 l/m 0,0 km/h (0 Bft) N 0 0 min 0,0 UV-I 0 W/m 9,5 C 13,7 C 0,0 km/h (0 Bft)
11.06.2023 01:01 13,8 C 11,1 C 76 % 1016,4 hPa 0,0 l/m 0,0 km/h (0 Bft) N 0 0 min 0,0 UV-I 0 W/m 9,6 C 13,8 C 0,0 km/h (0 Bft)
11.06.2023 01:02 13,8 C 11,1 C 76 % 1016,4 hPa 0,0 l/m 0,0 km/h (0 Bft) N 0 0 min 0,0 UV-I 0 W/m 9,6 C 13,8 C 0,0 km/h (0 Bft)
11.06.2023 01:03 13,8 C 11,1 C 76 % 1016,5 hPa 0,0 l/m 0,0 km/h (0 Bft) N 0 0 min 0,0 UV-I 0 W/m 9,6 C 13,8 C 0,0 km/h (0 Bft)
11.06.2023 01:04 13,9 C 11,1 C 76 % 1016,5 hPa 0,0 l/m 0,0 km/h (0 Bft) N 0 0 min 0,0 UV-I 0 W/m 9,7 C 13,9 C 0,0 km/h (0 Bft)
11.06.2023 01:05 13,8 C 11,1 C 76 % 1016,5 hPa 0,0 l/m 0,0 km/h (0 Bft) N 0 0 min 0,0 UV-I 0 W/m 9,6 C 13,8 C 0,0 km/h (0 Bft)
11.06.2023 01:06 13,8 C 11,1 C 76 % 1016,5 hPa 0,0 l/m 0,0 km/h (0 Bft) N 0 0 min 0,0 UV-I 0 W/m 9,6 C 13,8 C 0,0 km/h (0 Bft)
11.06.2023 01:07 13,7 C 10,6 C 76 % 1016,5 hPa 0,0 l/m 0,0 km/h (0 Bft) N 0 0 min 0,0 UV-I 0 W/m 9,5 C 13,7 C 0,0 km/h (0 Bft)
11.06.2023 01:08 13,6 C 10,6 C 77 % 1016,5 hPa 0,0 l/m 1,6 km/h (1 Bft) N-NO 22 0 min 0,0 UV-I 0 W/m 9,6 C 13,6 C 3,2 km/h (1 Bft)
11.06.2023 01:09 13,6 C 10,6 C 77 % 1016,5 hPa 0,0 l/m 1,6 km/h (1 Bft) N-NO 22 0 min 0,0 UV-I 0 W/m 9,6 C 13,6 C 3,2 km/h (1 Bft)
11.06.2023 01:10 13,7 C 10,6 C 77 % 1016,5 hPa 0,0 l/m 1,6 km/h (1 Bft) N-NO 22 0 min 0,0 UV-I 0 W/m 9,7 C 13,7 C 3,2 km/h (1 Bft)
11.06.2023 01:11 13,7 C 10,6 C 76 % 1016,5 hPa 0,0 l/m 3,2 km/h (1 Bft) N-NO 22 0 min 0,0 UV-I 0 W/m 9,5 C 13,7 C 3,2 km/h (1 Bft)
11.06.2023 01:12 13,8 C 10,6 C 76 % 1016,5 hPa 0,0 l/m 3,2 km/h (1 Bft) N-NO 22 0 min 0,0 UV-I 0 W/m 9,6 C 13,8 C 4,8 km/h (1 Bft)
11.06.2023 01:13 13,8 C 10,6 C 76 % 1016,5 hPa 0,0 l/m 1,6 km/h (1 Bft) N-NO 22 0 min 0,0 UV-I 0 W/m 9,6 C 13,8 C 3,2 km/h (1 Bft)
11.06.2023 01:14 13,9 C 10,6 C 76 % 1016,5 hPa 0,0 l/m 0,0 km/h (0 Bft) N 0 0 min 0,0 UV-I 0 W/m 9,7 C 13,9 C 0,0 km/h (0 Bft)
11.06.2023 01:15 13,8 C 10,6 C 76 % 1016,5 hPa 0,0 l/m 0,0 km/h (0 Bft) N 0 0 min 0,0 UV-I 0 W/m 9,6 C 13,8 C 0,0 km/h (0 Bft)
11.06.2023 01:16 13,7 C 10,6 C 76 % 1016,5 hPa 0,0 l/m 0,0 km/h (0 Bft) N 0 0 min 0,0 UV-I 0 W/m 9,5 C 13,7 C 0,0 km/h (0 Bft)
11.06.2023 01:17 13,6 C 10,6 C 76 % 1016,4 hPa 0,0 l/m 0,0 km/h (0 Bft) N 0 0 min 0,0 UV-I 0 W/m 9,4 C 13,6 C 0,0 km/h (0 Bft)
11.06.2023 01:18 13,4 C 10,6 C 77 % 1016,4 hPa 0,0 l/m 0,0 km/h (0 Bft) N 0 0 min 0,0 UV-I 0 W/m 9,5 C 13,4 C 0,0 km/h (0 Bft)
11.06.2023 01:19 13,4 C 10,6 C 77 % 1016,4 hPa 0,0 l/m 0,0 km/h (0 Bft) N 0 0 min 0,0 UV-I 0 W/m 9,5 C 13,4 C 0,0 km/h (0 Bft)
11.06.2023 01:20 13,4 C 10,6 C 77 % 1016,4 hPa 0,0 l/m 0,0 km/h (0 Bft) N 0 0 min 0,0 UV-I 0 W/m 9,5 C 13,4 C 0,0 km/h (0 Bft)
11.06.2023 01:21 13,4 C 10,6 C 77 % 1016,5 hPa 0,0 l/m 0,0 km/h (0 Bft) N 0 0 min 0,0 UV-I 0 W/m 9,5 C 13,4 C 0,0 km/h (0 Bft)
11.06.2023 01:22 13,4 C 10,6 C 77 % 1016,4 hPa 0,0 l/m 0,0 km/h (0 Bft) N 0 0 min 0,0 UV-I 0 W/m 9,5 C 13,4 C 0,0 km/h (0 Bft)
11.06.2023 01:23 13,3 C 10,6 C 77 % 1016,4 hPa 0,0 l/m 0,0 km/h (0 Bft) N-NO 22 0 min 0,0 UV-I 0 W/m 9,4 C 13,3 C 1,6 km/h (1 Bft)
11.06.2023 01:24 13,3 C 10,6 C 77 % 1016,4 hPa 0,0 l/m 0,0 km/h (0 Bft) N-NO 22 0 min 0,0 UV-I 0 W/m 9,4 C 13,3 C 1,6 km/h (1 Bft)
11.06.2023 01:25 13,3 C 10,6 C 77 % 1016,4 hPa 0,0 l/m 0,0 km/h (0 Bft) N-NO 22 0 min 0,0 UV-I 0 W/m 9,4 C 13,3 C 1,6 km/h (1 Bft)
11.06.2023 01:26 13,2 C 10,6 C 77 % 1016,5 hPa 0,0 l/m 0,0 km/h (0 Bft) N-NO 22 0 min 0,0 UV-I 0 W/m 9,3 C 13,2 C 1,6 km/h (1 Bft)
11.06.2023 01:27 13,2 C 10,6 C 77 % 1016,4 hPa 0,0 l/m 0,0 km/h (0 Bft) N 0 0 min 0,0 UV-I 0 W/m 9,3 C 13,2 C 0,0 km/h (0 Bft)
11.06.2023 01:28 13,1 C 10,6 C 77 % 1016,5 hPa 0,0 l/m 0,0 km/h (0 Bft) N 0 0 min 0,0 UV-I 0 W/m 9,2 C 13,1 C 0,0 km/h (0 Bft)
11.06.2023 01:29 13,0 C 10,6 C 77 % 1016,4 hPa 0,0 l/m 0,0 km/h (0 Bft) N 0 0 min 0,0 UV-I 0 W/m 9,1 C 13,0 C 0,0 km/h (0 Bft)
11.06.2023 01:30 12,9 C 10,0 C 78 % 1016,5 hPa 0,0 l/m 0,0 km/h (0 Bft) N 0 0 min 0,0 UV-I 0 W/m 9,2 C 12,9 C 0,0 km/h (0 Bft)
11.06.2023 01:31 12,9 C 10,0 C 78 % 1016,5 hPa 0,0 l/m 0,0 km/h (0 Bft) N 0 0 min 0,0 UV-I 0 W/m 9,2 C 12,9 C 0,0 km/h (0 Bft)
11.06.2023 01:32 12,8 C 10,0 C 78 % 1016,5 hPa 0,0 l/m 0,0 km/h (0 Bft) N 0 0 min 0,0 UV-I 0 W/m 9,1 C 12,8 C 0,0 km/h (0 Bft)
11.06.2023 01:33 12,8 C 10,0 C 78 % 1016,5 hPa 0,0 l/m 0,0 km/h (0 Bft) N 0 0 min 0,0 UV-I 0 W/m 9,1 C 12,8 C 0,0 km/h (0 Bft)
11.06.2023 01:34 12,9 C 10,0 C 79 % 1016,5 hPa 0,0 l/m 0,0 km/h (0 Bft) N 0 0 min 0,0 UV-I 0 W/m 9,3 C 12,9 C 0,0 km/h (0 Bft)
11.06.2023 01:35 12,9 C 10,0 C 79 % 1016,5 hPa 0,0 l/m 0,0 km/h (0 Bft) N 0 0 min 0,0 UV-I 0 W/m 9,3 C 12,9 C 0,0 km/h (0 Bft)
11.06.2023 01:36 13,0 C 10,6 C 78 % 1016,4 hPa 0,0 l/m 0,0 km/h (0 Bft) N-NO 22 0 min 0,0 UV-I 0 W/m 9,3 C 13,0 C 1,6 km/h (1 Bft)
11.06.2023 01:37 13,1 C 10,0 C 78 % 1016,5 hPa 0,0 l/m 0,0 km/h (0 Bft) N-NO 22 0 min 0,0 UV-I 0 W/m 9,4 C 13,1 C 1,6 km/h (1 Bft)
11.06.2023 01:38 13,1 C 10,0 C 78 % 1016,5 hPa 0,0 l/m 0,0 km/h (0 Bft) N 0 0 min 0,0 UV-I 0 W/m 9,4 C 13,1 C 0,0 km/h (0 Bft)
11.06.2023 01:39 13,1 C 10,0 C 78 % 1016,5 hPa 0,0 l/m 0,0 km/h (0 Bft) N 0 0 min 0,0 UV-I 0 W/m 9,4 C 13,1 C 0,0 km/h (0 Bft)
11.06.2023 01:40 13,1 C 10,0 C 78 % 1016,6 hPa 0,0 l/m 0,0 km/h (0 Bft) N 0 0 min 0,0 UV-I 0 W/m 9,4 C 13,1 C 0,0 km/h (0 Bft)
11.06.2023 01:41 13,1 C 10,0 C 78 % 1016,5 hPa 0,0 l/m 0,0 km/h (0 Bft) N 0 0 min 0,0 UV-I 0 W/m 9,4 C 13,1 C 0,0 km/h (0 Bft)
11.06.2023 01:42 13,1 C 10,0 C 78 % 1016,5 hPa 0,0 l/m 0,0 km/h (0 Bft) N 0 0 min 0,0 UV-I 0 W/m 9,4 C 13,1 C 0,0 km/h (0 Bft)
11.06.2023 01:43 13,0 C 10,0 C 78 % 1016,5 hPa 0,0 l/m 0,0 km/h (0 Bft) N 0 0 min 0,0 UV-I 0 W/m 9,3 C 13,0 C 0,0 km/h (0 Bft)
11.06.2023 01:44 12,9 C 10,0 C 78 % 1016,5 hPa 0,0 l/m 0,0 km/h (0 Bft) N 0 0 min 0,0 UV-I 0 W/m 9,2 C 12,9 C 0,0 km/h (0 Bft)
11.06.2023 01:45 12,8 C 10,0 C 79 % 1016,4 hPa 0,0 l/m 0,0 km/h (0 Bft) N 0 0 min 0,0 UV-I 0 W/m 9,2 C 12,8 C 0,0 km/h (0 Bft)
11.06.2023 01:46 12,8 C 10,0 C 78 % 1016,5 hPa 0,0 l/m 0,0 km/h (0 Bft) N 0 0 min 0,0 UV-I 0 W/m 9,1 C 12,8 C 0,0 km/h (0 Bft)
11.06.2023 01:47 12,7 C 10,0 C 79 % 1016,5 hPa 0,0 l/m 0,0 km/h (0 Bft) N 0 0 min 0,0 UV-I 0 W/m 9,2 C 12,7 C 0,0 km/h (0 Bft)
11.06.2023 01:48 12,7 C 10,0 C 79 % 1016,6 hPa 0,0 l/m 0,0 km/h (0 Bft) N 0 0 min 0,0 UV-I 0 W/m 9,2 C 12,7 C 0,0 km/h (0 Bft)
11.06.2023 01:49 12,7 C 10,0 C 79 % 1016,5 hPa 0,0 l/m 0,0 km/h (0 Bft) N 0 0 min 0,0 UV-I 0 W/m 9,2 C 12,7 C 0,0 km/h (0 Bft)
11.06.2023 01:50 12,7 C 10,0 C 79 % 1016,5 hPa 0,0 l/m 0,0 km/h (0 Bft) N 0 0 min 0,0 UV-I 0 W/m 9,2 C 12,7 C 0,0 km/h (0 Bft)
11.06.2023 01:51 12,6 C 10,0 C 79 % 1016,5 hPa 0,0 l/m 0,0 km/h (0 Bft) N 0 0 min 0,0 UV-I 0 W/m 9,1 C 12,6 C 0,0 km/h (0 Bft)
11.06.2023 01:52 12,7 C 10,0 C 79 % 1016,5 hPa 0,0 l/m 0,0 km/h (0 Bft) N 0 0 min 0,0 UV-I 0 W/m 9,2 C 12,7 C 0,0 km/h (0 Bft)
11.06.2023 01:53 12,7 C 10,0 C 80 % 1016,5 hPa 0,0 l/m 0,0 km/h (0 Bft) N 0 0 min 0,0 UV-I 0 W/m 9,3 C 12,7 C 0,0 km/h (0 Bft)
11.06.2023 01:54 12,7 C 10,0 C 80 % 1016,5 hPa 0,0 l/m 0,0 km/h (0 Bft) N-NO 22 0 min 0,0 UV-I 0 W/m 9,3 C 12,7 C 1,6 km/h (1 Bft)
11.06.2023 01:55 12,7 C 10,0 C 80 % 1016,5 hPa 0,0 l/m 0,0 km/h (0 Bft) N-NO 22 0 min 0,0 UV-I 0 W/m 9,3 C 12,7 C 1,6 km/h (1 Bft)
11.06.2023 01:56 12,8 C 10,0 C 80 % 1016,5 hPa 0,0 l/m 0,0 km/h (0 Bft) N 0 0 min 0,0 UV-I 0 W/m 9,4 C 12,8 C 0,0 km/h (0 Bft)
11.06.2023 01:57 12,8 C 10,0 C 79 % 1016,6 hPa 0,0 l/m 0,0 km/h (0 Bft) N 0 0 min 0,0 UV-I 0 W/m 9,2 C 12,8 C 0,0 km/h (0 Bft)
11.06.2023 01:58 12,9 C 10,0 C 79 % 1016,6 hPa 0,0 l/m 0,0 km/h (0 Bft) N 0 0 min 0,0 UV-I 0 W/m 9,3 C 12,9 C 0,0 km/h (0 Bft)
11.06.2023 01:59 12,9 C 10,0 C 79 % 1016,5 hPa 0,0 l/m 0,0 km/h (0 Bft) N 0 0 min 0,0 UV-I 0 W/m 9,3 C 12,9 C 0,0 km/h (0 Bft)
11.06.2023 02:00 12,9 C 10,0 C 79 % 1016,5 hPa 0,0 l/m 0,0 km/h (0 Bft) N 0 0 min 0,0 UV-I 0 W/m 9,3 C 12,9 C 0,0 km/h (0 Bft)
11.06.2023 02:01 12,9 C 10,0 C 79 % 1016,5 hPa 0,0 l/m 0,0 km/h (0 Bft) N-NO 22 0 min 0,0 UV-I 0 W/m 9,3 C 12,9 C 1,6 km/h (1 Bft)
11.06.2023 02:02 13,0 C 10,0 C 79 % 1016,4 hPa 0,0 l/m 1,6 km/h (1 Bft) N-NO 22 0 min 0,0 UV-I 0 W/m 9,4 C 13,0 C 1,6 km/h (1 Bft)
11.06.2023 02:03 13,2 C 10,0 C 79 % 1016,3 hPa 0,0 l/m 0,0 km/h (0 Bft) N-NO 22 0 min 0,0 UV-I 0 W/m 9,6 C 13,2 C 1,6 km/h (1 Bft)
11.06.2023 02:04 13,3 C 10,0 C 79 % 1016,5 hPa 0,0 l/m 0,0 km/h (0 Bft) N-NO 22 0 min 0,0 UV-I 0 W/m 9,7 C 13,3 C 1,6 km/h (1 Bft)
11.06.2023 02:05 13,3 C 10,0 C 79 % 1016,3 hPa 0,0 l/m 0,0 km/h (0 Bft) N-NO 22 0 min 0,0 UV-I 0 W/m 9,7 C 13,3 C 1,6 km/h (1 Bft)
11.06.2023 02:06 13,3 C 10,0 C 78 % 1016,4 hPa 0,0 l/m 0,0 km/h (0 Bft) N 0 0 min 0,0 UV-I 0 W/m 9,5 C 13,3 C 0,0 km/h (0 Bft)
11.06.2023 02:07 13,3 C 10,0 C 78 % 1016,4 hPa 0,0 l/m 0,0 km/h (0 Bft) N 0 0 min 0,0 UV-I 0 W/m 9,5 C 13,3 C 0,0 km/h (0 Bft)
11.06.2023 02:08 13,3 C 10,0 C 78 % 1016,4 hPa 0,0 l/m 0,0 km/h (0 Bft) N 0 0 min 0,0 UV-I 0 W/m 9,5 C 13,3 C 0,0 km/h (0 Bft)
11.06.2023 02:09 13,3 C 10,0 C 78 % 1016,4 hPa 0,0 l/m 0,0 km/h (0 Bft) N-NO 22 0 min 0,0 UV-I 0 W/m 9,5 C 13,3 C 1,6 km/h (1 Bft)
11.06.2023 02:10 13,2 C 10,0 C 78 % 1016,4 hPa 0,0 l/m 0,0 km/h (0 Bft) N 0 0 min 0,0 UV-I 0 W/m 9,4 C 13,2 C 0,0 km/h (0 Bft)
11.06.2023 02:11 13,2 C 10,0 C 78 % 1016,4 hPa 0,0 l/m 0,0 km/h (0 Bft) N 0 0 min 0,0 UV-I 0 W/m 9,4 C 13,2 C 0,0 km/h (0 Bft)
11.06.2023 02:12 13,2 C 10,0 C 79 % 1016,4 hPa 0,0 l/m 0,0 km/h (0 Bft) N 0 0 min 0,0 UV-I 0 W/m 9,6 C 13,2 C 0,0 km/h (0 Bft)
11.06.2023 02:13 13,2 C 10,0 C 79 % 1016,4 hPa 0,0 l/m 0,0 km/h (0 Bft) N-NO 22 0 min 0,0 UV-I 0 W/m 9,6 C 13,2 C 1,6 km/h (1 Bft)
11.06.2023 02:14 13,2 C 10,6 C 79 % 1016,4 hPa 0,0 l/m 0,0 km/h (0 Bft) N-NO 22 0 min 0,0 UV-I 0 W/m 9,6 C 13,2 C 1,6 km/h (1 Bft)
11.06.2023 02:15 13,2 C 10,6 C 79 % 1016,4 hPa 0,0 l/m 1,6 km/h (1 Bft) N-NO 22 0 min 0,0 UV-I 0 W/m 9,6 C 13,2 C 3,2 km/h (1 Bft)
11.06.2023 02:16 13,2 C 10,6 C 79 % 1016,3 hPa 0,0 l/m 1,6 km/h (1 Bft) N-NO 22 0 min 0,0 UV-I 0 W/m 9,6 C 13,2 C 3,2 km/h (1 Bft)
11.06.2023 02:17 13,3 C 10,6 C 79 % 1016,3 hPa 0,0 l/m 3,2 km/h (1 Bft) N-NO 22 0 min 0,0 UV-I 0 W/m 9,7 C 13,3 C 4,8 km/h (1 Bft)
11.06.2023 02:18 13,3 C 10,6 C 79 % 1016,3 hPa 0,0 l/m 3,2 km/h (1 Bft) N-NO 22 0 min 0,0 UV-I 0 W/m 9,7 C 13,3 C 4,8 km/h (1 Bft)
11.06.2023 02:19 13,4 C 10,6 C 79 % 1016,3 hPa 0,0 l/m 1,6 km/h (1 Bft) N-NO 22 0 min 0,0 UV-I 0 W/m 9,8 C 13,4 C 3,2 km/h (1 Bft)
11.06.2023 02:20 13,4 C 10,6 C 78 % 1016,3 hPa 0,0 l/m 0,0 km/h (0 Bft) N-NO 22 0 min 0,0 UV-I 0 W/m 9,6 C 13,4 C 1,6 km/h (1 Bft)
11.06.2023 02:21 13,3 C 10,6 C 78 % 1016,3 hPa 0,0 l/m 1,6 km/h (1 Bft) N-NO 22 0 min 0,0 UV-I 0 W/m 9,5 C 13,3 C 3,2 km/h (1 Bft)
11.06.2023 02:22 13,2 C 10,6 C 78 % 1016,4 hPa 0,0 l/m 0,0 km/h (0 Bft) N-NO 22 0 min 0,0 UV-I 0 W/m 9,4 C 13,2 C 1,6 km/h (1 Bft)
11.06.2023 02:23 13,1 C 10,6 C 78 % 1016,4 hPa 0,0 l/m 0,0 km/h (0 Bft) N-NO 22 0 min 0,0 UV-I 0 W/m 9,4 C 13,1 C 1,6 km/h (1 Bft)
11.06.2023 02:24 12,9 C 10,6 C 78 % 1016,3 hPa 0,0 l/m 0,0 km/h (0 Bft) N-NO 22 0 min 0,0 UV-I 0 W/m 9,2 C 12,9 C 1,6 km/h (1 Bft)
11.06.2023 02:25 12,7 C 10,6 C 78 % 1016,3 hPa 0,0 l/m 0,0 km/h (0 Bft) N 0 0 min 0,0 UV-I 0 W/m 9,0 C 12,7 C 0,0 km/h (0 Bft)
11.06.2023 02:26 12,6 C 10,6 C 79 % 1016,4 hPa 0,0 l/m 0,0 km/h (0 Bft) N-NO 22 0 min 0,0 UV-I 0 W/m 9,1 C 12,6 C 1,6 km/h (1 Bft)
11.06.2023 02:27 12,4 C 10,0 C 79 % 1016,3 hPa 0,0 l/m 1,6 km/h (1 Bft) N-NO 22 0 min 0,0 UV-I 0 W/m 8,9 C 12,4 C 3,2 km/h (1 Bft)
11.06.2023 02:28 12,3 C 10,0 C 79 % 1016,3 hPa 0,0 l/m 3,2 km/h (1 Bft) N-NO 22 0 min 0,0 UV-I 0 W/m 8,8 C 12,3 C 4,8 km/h (1 Bft)
11.06.2023 02:29 12,3 C 10,0 C 80 % 1016,3 hPa 0,0 l/m 3,2 km/h (1 Bft) N-NO 22 0 min 0,0 UV-I 0 W/m 8,9 C 12,3 C 3,2 km/h (1 Bft)
11.06.2023 02:30 12,2 C 10,0 C 80 % 1016,4 hPa 0,0 l/m 3,2 km/h (1 Bft) N-NO 22 0 min 0,0 UV-I 0 W/m 8,9 C 12,2 C 4,8 km/h (1 Bft)
11.06.2023 02:31 12,2 C 10,0 C 80 % 1016,4 hPa 0,0 l/m 3,2 km/h (1 Bft) N-NO 22 0 min 0,0 UV-I 0 W/m 8,9 C 12,2 C 4,8 km/h (1 Bft)
11.06.2023 02:32 12,1 C 10,0 C 80 % 1016,3 hPa 0,0 l/m 3,2 km/h (1 Bft) N-NO 22 0 min 0,0 UV-I 0 W/m 8,8 C 12,1 C 3,2 km/h (1 Bft)
11.06.2023 02:33 12,1 C 10,0 C 81 % 1016,3 hPa 0,0 l/m 1,6 km/h (1 Bft) N-NO 22 0 min 0,0 UV-I 0 W/m 8,9 C 12,1 C 3,2 km/h (1 Bft)
11.06.2023 02:34 12,1 C 10,0 C 81 % 1016,4 hPa 0,0 l/m 1,6 km/h (1 Bft) N-NO 22 0 min 0,0 UV-I 0 W/m 8,9 C 12,1 C 1,6 km/h (1 Bft)
11.06.2023 02:35 12,1 C 9,4 C 81 % 1016,4 hPa 0,0 l/m 1,6 km/h (1 Bft) N-NO 22 0 min 0,0 UV-I 0 W/m 8,9 C 12,1 C 1,6 km/h (1 Bft)
11.06.2023 02:36 12,1 C 9,4 C 81 % 1016,3 hPa 0,0 l/m 0,0 km/h (0 Bft) N-NO 22 0 min 0,0 UV-I 0 W/m 8,9 C 12,1 C 1,6 km/h (1 Bft)
11.06.2023 02:37 12,1 C 10,0 C 81 % 1016,3 hPa 0,0 l/m 0,0 km/h (0 Bft) N 0 0 min 0,0 UV-I 0 W/m 8,9 C 12,1 C 0,0 km/h (0 Bft)
11.06.2023 02:38 12,1 C 9,4 C 81 % 1016,4 hPa 0,0 l/m 0,0 km/h (0 Bft) N 0 0 min 0,0 UV-I 0 W/m 8,9 C 12,1 C 0,0 km/h (0 Bft)
11.06.2023 02:39 12,1 C 10,0 C 81 % 1016,3 hPa 0,0 l/m 0,0 km/h (0 Bft) N 0 0 min 0,0 UV-I 0 W/m 8,9 C 12,1 C 0,0 km/h (0 Bft)
11.06.2023 02:40 12,1 C 9,4 C 81 % 1016,3 hPa 0,0 l/m 0,0 km/h (0 Bft) N 0 0 min 0,0 UV-I 0 W/m 8,9 C 12,1 C 0,0 km/h (0 Bft)
11.06.2023 02:41 12,0 C 9,4 C 81 % 1016,3 hPa 0,0 l/m 0,0 km/h (0 Bft) N-NO 22 0 min 0,0 UV-I 0 W/m 8,8 C 12,0 C 1,6 km/h (1 Bft)
11.06.2023 02:42 12,0 C 10,0 C 81 % 1016,3 hPa 0,0 l/m 0,0 km/h (0 Bft) N-NO 22 0 min 0,0 UV-I 0 W/m 8,8 C 12,0 C 1,6 km/h (1 Bft)
11.06.2023 02:43 11,9 C 9,4 C 81 % 1016,3 hPa 0,0 l/m 0,0 km/h (0 Bft) N 0 0 min 0,0 UV-I 0 W/m 8,7 C 11,9 C 0,0 km/h (0 Bft)
11.06.2023 02:44 11,9 C 9,4 C 81 % 1016,1 hPa 0,0 l/m 0,0 km/h (0 Bft) N 0 0 min 0,0 UV-I 0 W/m 8,7 C 11,9 C 0,0 km/h (0 Bft)
11.06.2023 02:45 11,9 C 9,4 C 82 % 1016,2 hPa 0,0 l/m 0,0 km/h (0 Bft) N 0 0 min 0,0 UV-I 0 W/m 8,9 C 11,9 C 0,0 km/h (0 Bft)
11.06.2023 02:46 11,9 C 9,4 C 82 % 1016,2 hPa 0,0 l/m 0,0 km/h (0 Bft) N 0 0 min 0,0 UV-I 0 W/m 8,9 C 11,9 C 0,0 km/h (0 Bft)
11.06.2023 02:47 11,9 C 9,4 C 82 % 1016,2 hPa 0,0 l/m 1,6 km/h (1 Bft) N-NO 22 0 min 0,0 UV-I 0 W/m 8,9 C 11,9 C 1,6 km/h (1 Bft)
11.06.2023 02:48 11,9 C 9,4 C 82 % 1016,2 hPa 0,0 l/m 1,6 km/h (1 Bft) N-NO 22 0 min 0,0 UV-I 0 W/m 8,9 C 11,9 C 1,6 km/h (1 Bft)
11.06.2023 02:49 11,9 C 9,4 C 82 % 1016,3 hPa 0,0 l/m 0,0 km/h (0 Bft) N-NO 22 0 min 0,0 UV-I 0 W/m 8,9 C 11,9 C 3,2 km/h (1 Bft)
11.06.2023 02:50 11,9 C 9,4 C 82 % 1016,4 hPa 0,0 l/m 1,6 km/h (1 Bft) N-NO 22 0 min 0,0 UV-I 0 W/m 8,9 C 11,9 C 1,6 km/h (1 Bft)
11.06.2023 02:51 11,9 C 9,4 C 82 % 1016,3 hPa 0,0 l/m 1,6 km/h (1 Bft) N-NO 22 0 min 0,0 UV-I 0 W/m 8,9 C 11,9 C 3,2 km/h (1 Bft)
11.06.2023 02:52 11,9 C 10,0 C 82 % 1016,4 hPa 0,0 l/m 0,0 km/h (0 Bft) N-NO 22 0 min 0,0 UV-I 0 W/m 8,9 C 11,9 C 1,6 km/h (1 Bft)
11.06.2023 02:53 11,9 C 10,0 C 82 % 1016,3 hPa 0,0 l/m 0,0 km/h (0 Bft) N-NO 22 0 min 0,0 UV-I 0 W/m 8,9 C 11,9 C 1,6 km/h (1 Bft)
11.06.2023 02:54 11,9 C 9,4 C 82 % 1016,3 hPa 0,0 l/m 1,6 km/h (1 Bft) N-NO 22 0 min 0,0 UV-I 0 W/m 8,9 C 11,9 C 1,6 km/h (1 Bft)
11.06.2023 02:55 12,0 C 9,4 C 82 % 1016,3 hPa 0,0 l/m 1,6 km/h (1 Bft) N-NO 22 0 min 0,0 UV-I 0 W/m 9,0 C 12,0 C 1,6 km/h (1 Bft)
11.06.2023 02:56 12,1 C 9,4 C 82 % 1016,3 hPa 0,0 l/m 0,0 km/h (0 Bft) N-NO 22 0 min 0,0 UV-I 0 W/m 9,1 C 12,1 C 1,6 km/h (1 Bft)
11.06.2023 02:57 12,1 C 9,4 C 82 % 1016,2 hPa 0,0 l/m 0,0 km/h (0 Bft) N 0 0 min 0,0 UV-I 0 W/m 9,1 C 12,1 C 0,0 km/h (0 Bft)
11.06.2023 02:58 12,1 C 9,4 C 82 % 1016,2 hPa 0,0 l/m 0,0 km/h (0 Bft) N-NO 22 0 min 0,0 UV-I 0 W/m 9,1 C 12,1 C 1,6 km/h (1 Bft)
11.06.2023 02:59 12,2 C 9,4 C 82 % 1016,2 hPa 0,0 l/m 0,0 km/h (0 Bft) N-NO 22 0 min 0,0 UV-I 0 W/m 9,2 C 12,2 C 1,6 km/h (1 Bft)
11.06.2023 03:00 12,2 C 9,4 C 82 % 1016,3 hPa 0,0 l/m 0,0 km/h (0 Bft) N-NO 22 0 min 0,0 UV-I 0 W/m 9,2 C 12,2 C 1,6 km/h (1 Bft)
11.06.2023 03:01 12,2 C 9,4 C 82 % 1016,2 hPa 0,0 l/m 0,0 km/h (0 Bft) N-NO 22 0 min 0,0 UV-I 0 W/m 9,2 C 12,2 C 1,6 km/h (1 Bft)
11.06.2023 03:02 12,2 C 9,4 C 82 % 1016,2 hPa 0,0 l/m 0,0 km/h (0 Bft) N-NO 22 0 min 0,0 UV-I 0 W/m 9,2 C 12,2 C 1,6 km/h (1 Bft)
11.06.2023 03:03 12,1 C 9,4 C 82 % 1016,2 hPa 0,0 l/m 0,0 km/h (0 Bft) N-NO 22 0 min 0,0 UV-I 0 W/m 9,1 C 12,1 C 1,6 km/h (1 Bft)
11.06.2023 03:04 12,1 C 9,4 C 82 % 1016,3 hPa 0,0 l/m 0,0 km/h (0 Bft) N-NO 22 0 min 0,0 UV-I 0 W/m 9,1 C 12,1 C 1,6 km/h (1 Bft)
11.06.2023 03:05 12,1 C 9,4 C 82 % 1016,3 hPa 0,0 l/m 0,0 km/h (0 Bft) N 0 0 min 0,0 UV-I 0 W/m 9,1 C 12,1 C 0,0 km/h (0 Bft)
11.06.2023 03:06 12,1 C 9,4 C 82 % 1016,2 hPa 0,0 l/m 0,0 km/h (0 Bft) N 0 0 min 0,0 UV-I 0 W/m 9,1 C 12,1 C 0,0 km/h (0 Bft)
11.06.2023 03:07 12,0 C 9,4 C 82 % 1016,2 hPa 0,0 l/m 0,0 km/h (0 Bft) N 0 0 min 0,0 UV-I 0 W/m 9,0 C 12,0 C 0,0 km/h (0 Bft)
11.06.2023 03:08 12,0 C 9,4 C 82 % 1016,3 hPa 0,0 l/m 0,0 km/h (0 Bft) N 0 0 min 0,0 UV-I 0 W/m 9,0 C 12,0 C 0,0 km/h (0 Bft)
11.06.2023 03:09 11,9 C 9,4 C 82 % 1016,2 hPa 0,0 l/m 0,0 km/h (0 Bft) N 0 0 min 0,0 UV-I 0 W/m 8,9 C 11,9 C 0,0 km/h (0 Bft)
11.06.2023 03:10 11,9 C 9,4 C 82 % 1016,1 hPa 0,0 l/m 0,0 km/h (0 Bft) N 0 0 min 0,0 UV-I 0 W/m 8,9 C 11,9 C 0,0 km/h (0 Bft)
11.06.2023 03:11 11,8 C 9,4 C 82 % 1016,1 hPa 0,0 l/m 0,0 km/h (0 Bft) N 0 0 min 0,0 UV-I 0 W/m 8,8 C 11,8 C 0,0 km/h (0 Bft)
11.06.2023 03:12 11,8 C 9,4 C 82 % 1016,1 hPa 0,0 l/m 0,0 km/h (0 Bft) N 0 0 min 0,0 UV-I 0 W/m 8,8 C 11,8 C 0,0 km/h (0 Bft)
11.06.2023 03:13 11,8 C 9,4 C 82 % 1016,2 hPa 0,0 l/m 0,0 km/h (0 Bft) N-NO 22 0 min 0,0 UV-I 0 W/m 8,8 C 11,8 C 1,6 km/h (1 Bft)
11.06.2023 03:14 11,8 C 9,4 C 82 % 1016,2 hPa 0,0 l/m 0,0 km/h (0 Bft) N-NO 22 0 min 0,0 UV-I 0 W/m 8,8 C 11,8 C 1,6 km/h (1 Bft)
11.06.2023 03:15 11,7 C 9,4 C 82 % 1016,2 hPa 0,0 l/m 0,0 km/h (0 Bft) N 0 0 min 0,0 UV-I 0 W/m 8,7 C 11,7 C 0,0 km/h (0 Bft)
11.06.2023 03:16 11,6 C 9,4 C 82 % 1016,2 hPa 0,0 l/m 0,0 km/h (0 Bft) N 0 0 min 0,0 UV-I 0 W/m 8,6 C 11,6 C 0,0 km/h (0 Bft)
11.06.2023 03:17 11,6 C 9,4 C 83 % 1016,2 hPa 0,0 l/m 0,0 km/h (0 Bft) N 0 0 min 0,0 UV-I 0 W/m 8,8 C 11,6 C 0,0 km/h (0 Bft)
11.06.2023 03:18 11,5 C 8,9 C 83 % 1016,2 hPa 0,0 l/m 0,0 km/h (0 Bft) N 0 0 min 0,0 UV-I 0 W/m 8,7 C 11,5 C 0,0 km/h (0 Bft)
11.06.2023 03:19 11,5 C 8,9 C 83 % 1016,2 hPa 0,0 l/m 0,0 km/h (0 Bft) N 0 0 min 0,0 UV-I 0 W/m 8,7 C 11,5 C 0,0 km/h (0 Bft)
11.06.2023 03:20 11,4 C 8,9 C 83 % 1016,3 hPa 0,0 l/m 0,0 km/h (0 Bft) N 0 0 min 0,0 UV-I 0 W/m 8,6 C 11,4 C 0,0 km/h (0 Bft)
11.06.2023 03:21 11,4 C 9,4 C 83 % 1016,2 hPa 0,0 l/m 0,0 km/h (0 Bft) N 0 0 min 0,0 UV-I 0 W/m 8,6 C 11,4 C 0,0 km/h (0 Bft)
11.06.2023 03:22 11,4 C 9,4 C 83 % 1016,2 hPa 0,0 l/m 0,0 km/h (0 Bft) N 0 0 min 0,0 UV-I 0 W/m 8,6 C 11,4 C 0,0 km/h (0 Bft)
11.06.2023 03:23 11,4 C 9,4 C 83 % 1016,2 hPa 0,0 l/m 0,0 km/h (0 Bft) N 0 0 min 0,0 UV-I 0 W/m 8,6 C 11,4 C 0,0 km/h (0 Bft)
11.06.2023 03:24 11,4 C 9,4 C 83 % 1016,3 hPa 0,0 l/m 0,0 km/h (0 Bft) N 0 0 min 0,0 UV-I 0 W/m 8,6 C 11,4 C 0,0 km/h (0 Bft)
11.06.2023 03:25 11,4 C 8,9 C 83 % 1016,2 hPa 0,0 l/m 0,0 km/h (0 Bft) N 0 0 min 0,0 UV-I 0 W/m 8,6 C 11,4 C 0,0 km/h (0 Bft)
11.06.2023 03:26 11,4 C 8,9 C 83 % 1016,1 hPa 0,0 l/m 0,0 km/h (0 Bft) N 0 0 min 0,0 UV-I 0 W/m 8,6 C 11,4 C 0,0 km/h (0 Bft)
11.06.2023 03:27 11,5 C 8,9 C 83 % 1016,2 hPa 0,0 l/m 0,0 km/h (0 Bft) N 0 0 min 0,0 UV-I 0 W/m 8,7 C 11,5 C 0,0 km/h (0 Bft)
11.06.2023 03:28 11,5 C 8,9 C 83 % 1016,3 hPa 0,0 l/m 0,0 km/h (0 Bft) N 0 0 min 0,0 UV-I 0 W/m 8,7 C 11,5 C 0,0 km/h (0 Bft)
11.06.2023 03:29 11,5 C 8,9 C 84 % 1016,2 hPa 0,0 l/m 0,0 km/h (0 Bft) N 0 0 min 0,0 UV-I 0 W/m 8,9 C 11,5 C 0,0 km/h (0 Bft)
11.06.2023 03:30 11,5 C 8,9 C 83 % 1016,2 hPa 0,0 l/m 0,0 km/h (0 Bft) N 0 0 min 0,0 UV-I 0 W/m 8,7 C 11,5 C 0,0 km/h (0 Bft)
11.06.2023 03:31 11,5 C 8,9 C 83 % 1016,2 hPa 0,0 l/m 0,0 km/h (0 Bft) N 0 0 min 0,0 UV-I 0 W/m 8,7 C 11,5 C 0,0 km/h (0 Bft)
11.06.2023 03:32 11,5 C 8,9 C 83 % 1016,2 hPa 0,0 l/m 0,0 km/h (0 Bft) N 0 0 min 0,0 UV-I 0 W/m 8,7 C 11,5 C 0,0 km/h (0 Bft)
11.06.2023 03:33 11,5 C 8,9 C 83 % 1016,2 hPa 0,0 l/m 0,0 km/h (0 Bft) N 0 0 min 0,0 UV-I 0 W/m 8,7 C 11,5 C 0,0 km/h (0 Bft)
11.06.2023 03:34 11,4 C 8,9 C 83 % 1016,3 hPa 0,0 l/m 0,0 km/h (0 Bft) N 0 0 min 0,0 UV-I 0 W/m 8,6 C 11,4 C 0,0 km/h (0 Bft)
11.06.2023 03:35 11,4 C 8,9 C 83 % 1016,2 hPa 0,0 l/m 0,0 km/h (0 Bft) N 0 0 min 0,0 UV-I 0 W/m 8,6 C 11,4 C 0,0 km/h (0 Bft)
11.06.2023 03:36 11,3 C 8,9 C 83 % 1016,2 hPa 0,0 l/m 0,0 km/h (0 Bft) N 0 0 min 0,0 UV-I 0 W/m 8,5 C 11,3 C 0,0 km/h (0 Bft)
11.06.2023 03:37 11,3 C 8,9 C 84 % 1016,2 hPa 0,0 l/m 1,6 km/h (1 Bft) N-NO 22 0 min 0,0 UV-I 0 W/m 8,7 C 11,3 C 1,6 km/h (1 Bft)
11.06.2023 03:38 11,3 C 9,4 C 84 % 1016,3 hPa 0,0 l/m 1,6 km/h (1 Bft) N-NO 22 0 min 0,0 UV-I 0 W/m 8,7 C 11,3 C 3,2 km/h (1 Bft)
11.06.2023 03:39 11,3 C 9,4 C 84 % 1016,2 hPa 0,0 l/m 1,6 km/h (1 Bft) N-NO 22 0 min 0,0 UV-I 0 W/m 8,7 C 11,3 C 1,6 km/h (1 Bft)
11.06.2023 03:40 11,3 C 9,4 C 84 % 1016,2 hPa 0,0 l/m 1,6 km/h (1 Bft) N-NO 22 0 min 0,0 UV-I 0 W/m 8,7 C 11,3 C 1,6 km/h (1 Bft)
11.06.2023 03:41 11,4 C 9,4 C 84 % 1016,1 hPa 0,0 l/m 0,0 km/h (0 Bft) N-NO 22 0 min 0,0 UV-I 0 W/m 8,8 C 11,4 C 1,6 km/h (1 Bft)
11.06.2023 03:42 11,4 C 8,9 C 84 % 1016,2 hPa 0,0 l/m 0,0 km/h (0 Bft) N-NO 22 0 min 0,0 UV-I 0 W/m 8,8 C 11,4 C 1,6 km/h (1 Bft)
11.06.2023 03:43 11,4 C 9,4 C 84 % 1016,2 hPa 0,0 l/m 0,0 km/h (0 Bft) N 0 0 min 0,0 UV-I 0 W/m 8,8 C 11,4 C 0,0 km/h (0 Bft)
11.06.2023 03:44 11,4 C 9,4 C 84 % 1016,2 hPa 0,0 l/m 0,0 km/h (0 Bft) N 0 0 min 0,0 UV-I 0 W/m 8,8 C 11,4 C 0,0 km/h (0 Bft)
11.06.2023 03:45 11,4 C 9,4 C 84 % 1016,2 hPa 0,0 l/m 0,0 km/h (0 Bft) N 0 0 min 0,0 UV-I 0 W/m 8,8 C 11,4 C 0,0 km/h (0 Bft)
11.06.2023 03:46 11,4 C 9,4 C 84 % 1016,2 hPa 0,0 l/m 0,0 km/h (0 Bft) N-NO 22 0 min 0,0 UV-I 0 W/m 8,8 C 11,4 C 1,6 km/h (1 Bft)
11.06.2023 03:47 11,4 C 9,4 C 84 % 1016,2 hPa 0,0 l/m 1,6 km/h (1 Bft) N-NO 22 0 min 0,0 UV-I 0 W/m 8,8 C 11,4 C 1,6 km/h (1 Bft)
11.06.2023 03:48 11,3 C 9,4 C 84 % 1016,2 hPa 0,0 l/m 0,0 km/h (0 Bft) N-NO 22 0 min 0,0 UV-I 0 W/m 8,7 C 11,3 C 1,6 km/h (1 Bft)
11.06.2023 03:49 11,3 C 9,4 C 84 % 1016,3 hPa 0,0 l/m 1,6 km/h (1 Bft) N-NO 22 0 min 0,0 UV-I 0 W/m 8,7 C 11,3 C 3,2 km/h (1 Bft)
11.06.2023 03:50 11,2 C 8,9 C 84 % 1016,2 hPa 0,0 l/m 0,0 km/h (0 Bft) N-NO 22 0 min 0,0 UV-I 0 W/m 8,6 C 11,2 C 1,6 km/h (1 Bft)
11.06.2023 03:51 11,3 C 8,9 C 84 % 1016,1 hPa 0,0 l/m 0,0 km/h (0 Bft) N 0 0 min 0,0 UV-I 0 W/m 8,7 C 11,3 C 0,0 km/h (0 Bft)
11.06.2023 03:52 11,3 C 8,9 C 84 % 1016,3 hPa 0,0 l/m 0,0 km/h (0 Bft) N-NO 22 0 min 0,0 UV-I 0 W/m 8,7 C 11,3 C 1,6 km/h (1 Bft)
11.06.2023 03:53 11,3 C 8,9 C 84 % 1016,2 hPa 0,0 l/m 0,0 km/h (0 Bft) N-NO 22 0 min 0,0 UV-I 0 W/m 8,7 C 11,3 C 1,6 km/h (1 Bft)
11.06.2023 03:54 11,3 C 8,9 C 84 % 1016,2 hPa 0,0 l/m 1,6 km/h (1 Bft) N-NO 22 0 min 0,0 UV-I 0 W/m 8,7 C 11,3 C 1,6 km/h (1 Bft)
11.06.2023 03:55 11,4 C 8,9 C 85 % 1016,2 hPa 0,0 l/m 0,0 km/h (0 Bft) N-NO 22 0 min 0,0 UV-I 0 W/m 9,0 C 11,4 C 1,6 km/h (1 Bft)
11.06.2023 03:56 11,4 C 8,9 C 85 % 1016,2 hPa 0,0 l/m 1,6 km/h (1 Bft) N-NO 22 0 min 0,0 UV-I 0 W/m 9,0 C 11,4 C 3,2 km/h (1 Bft)
11.06.2023 03:57 11,4 C 8,9 C 85 % 1016,2 hPa 0,0 l/m 1,6 km/h (1 Bft) N-NO 22 0 min 0,0 UV-I 0 W/m 9,0 C 11,4 C 1,6 km/h (1 Bft)
11.06.2023 03:58 11,4 C 8,9 C 85 % 1016,2 hPa 0,0 l/m 3,2 km/h (1 Bft) N-NO 22 0 min 0,0 UV-I 0 W/m 9,0 C 11,4 C 4,8 km/h (1 Bft)
11.06.2023 03:59 11,4 C 8,9 C 85 % 1016,2 hPa 0,0 l/m 1,6 km/h (1 Bft) N-NO 22 0 min 0,0 UV-I 0 W/m 9,0 C 11,4 C 3,2 km/h (1 Bft)
11.06.2023 04:00 11,5 C 8,9 C 85 % 1016,2 hPa 0,0 l/m 1,6 km/h (1 Bft) N-NO 22 0 min 0,0 UV-I 0 W/m 9,1 C 11,5 C 3,2 km/h (1 Bft)
11.06.2023 04:01 11,5 C 8,9 C 85 % 1016,2 hPa 0,0 l/m 1,6 km/h (1 Bft) N-NO 22 0 min 0,0 UV-I 0 W/m 9,1 C 11,5 C 3,2 km/h (1 Bft)
11.06.2023 04:02 11,4 C 9,4 C 85 % 1016,2 hPa 0,0 l/m 1,6 km/h (1 Bft) N-NO 22 0 min 0,0 UV-I 0 W/m 9,0 C 11,4 C 3,2 km/h (1 Bft)
11.06.2023 04:03 11,3 C 8,9 C 85 % 1016,3 hPa 0,0 l/m 1,6 km/h (1 Bft) N-NO 22 0 min 0,0 UV-I 0 W/m 8,9 C 11,3 C 3,2 km/h (1 Bft)
11.06.2023 04:04 11,4 C 8,9 C 85 % 1016,3 hPa 0,0 l/m 1,6 km/h (1 Bft) N-NO 22 0 min 0,0 UV-I 0 W/m 9,0 C 11,4 C 3,2 km/h (1 Bft)
11.06.2023 04:05 11,4 C 8,9 C 86 % 1016,3 hPa 0,0 l/m 1,6 km/h (1 Bft) N-NO 22 0 min 0,0 UV-I 0 W/m 9,1 C 11,4 C 3,2 km/h (1 Bft)
11.06.2023 04:06 11,5 C 8,9 C 86 % 1016,3 hPa 0,0 l/m 1,6 km/h (1 Bft) N-NO 22 0 min 0,0 UV-I 0 W/m 9,2 C 11,5 C 3,2 km/h (1 Bft)
11.06.2023 04:07 11,5 C 8,9 C 85 % 1016,2 hPa 0,0 l/m 3,2 km/h (1 Bft) N-NO 22 0 min 0,0 UV-I 0 W/m 9,1 C 11,5 C 3,2 km/h (1 Bft)
11.06.2023 04:08 11,6 C 8,9 C 85 % 1016,2 hPa 0,0 l/m 3,2 km/h (1 Bft) N-NO 22 0 min 0,0 UV-I 0 W/m 9,2 C 11,6 C 4,8 km/h (1 Bft)
11.06.2023 04:09 11,6 C 8,9 C 86 % 1016,2 hPa 0,0 l/m 3,2 km/h (1 Bft) N-NO 22 0 min 0,0 UV-I 0 W/m 9,3 C 11,6 C 4,8 km/h (1 Bft)
11.06.2023 04:10 11,6 C 8,9 C 86 % 1016,2 hPa 0,0 l/m 1,6 km/h (1 Bft) N-NO 22 0 min 0,0 UV-I 0 W/m 9,3 C 11,6 C 1,6 km/h (1 Bft)
11.06.2023 04:11 11,6 C 8,9 C 85 % 1016,3 hPa 0,0 l/m 0,0 km/h (0 Bft) N-NO 22 0 min 0,0 UV-I 0 W/m 9,2 C 11,6 C 1,6 km/h (1 Bft)
11.06.2023 04:12 11,5 C 8,9 C 85 % 1016,3 hPa 0,0 l/m 0,0 km/h (0 Bft) N-NO 22 0 min 0,0 UV-I 0 W/m 9,1 C 11,5 C 1,6 km/h (1 Bft)
11.06.2023 04:13 11,4 C 8,9 C 85 % 1016,3 hPa 0,0 l/m 1,6 km/h (1 Bft) N-NO 22 0 min 0,0 UV-I 0 W/m 9,0 C 11,4 C 1,6 km/h (1 Bft)
11.06.2023 04:14 11,4 C 8,9 C 85 % 1016,3 hPa 0,0 l/m 1,6 km/h (1 Bft) N-NO 22 0 min 0,0 UV-I 0 W/m 9,0 C 11,4 C 1,6 km/h (1 Bft)
11.06.2023 04:15 11,4 C 9,4 C 85 % 1016,3 hPa 0,0 l/m 1,6 km/h (1 Bft) N-NO 22 0 min 0,0 UV-I 0 W/m 9,0 C 11,4 C 1,6 km/h (1 Bft)
11.06.2023 04:16 11,3 C 9,4 C 85 % 1016,3 hPa 0,0 l/m 0,0 km/h (0 Bft) N-NO 22 0 min 0,0 UV-I 0 W/m 8,9 C 11,3 C 1,6 km/h (1 Bft)
11.06.2023 04:17 11,3 C 9,4 C 85 % 1016,4 hPa 0,0 l/m 1,6 km/h (1 Bft) N-NO 22 0 min 0,0 UV-I 0 W/m 8,9 C 11,3 C 3,2 km/h (1 Bft)
11.06.2023 04:18 11,3 C 9,4 C 86 % 1016,3 hPa 0,0 l/m 1,6 km/h (1 Bft) N-NO 22 0 min 0,0 UV-I 0 W/m 9,0 C 11,3 C 3,2 km/h (1 Bft)
11.06.2023 04:19 11,4 C 9,4 C 86 % 1016,3 hPa 0,0 l/m 1,6 km/h (1 Bft) N-NO 22 0 min 0,0 UV-I 0 W/m 9,1 C 11,4 C 3,2 km/h (1 Bft)
11.06.2023 04:20 11,6 C 9,4 C 87 % 1016,3 hPa 0,0 l/m 3,2 km/h (1 Bft) N-NO 22 0 min 0,0 UV-I 0 W/m 9,5 C 11,6 C 4,8 km/h (1 Bft)
11.06.2023 04:21 11,8 C 9,4 C 87 % 1016,4 hPa 0,0 l/m 3,2 km/h (1 Bft) N-NO 22 0 min 0,0 UV-I 0 W/m 9,7 C 11,8 C 4,8 km/h (1 Bft)
11.06.2023 04:22 11,8 C 9,4 C 86 % 1016,3 hPa 0,0 l/m 1,6 km/h (1 Bft) N-NO 22 0 min 0,0 UV-I 0 W/m 9,5 C 11,8 C 3,2 km/h (1 Bft)
11.06.2023 04:23 11,8 C 9,4 C 86 % 1016,4 hPa 0,0 l/m 1,6 km/h (1 Bft) N-NO 22 0 min 0,0 UV-I 0 W/m 9,5 C 11,8 C 3,2 km/h (1 Bft)
11.06.2023 04:24 11,8 C 9,4 C 85 % 1016,4 hPa 0,0 l/m 1,6 km/h (1 Bft) N-NO 22 0 min 0,0 UV-I 0 W/m 9,4 C 11,8 C 4,8 km/h (1 Bft)
11.06.2023 04:25 11,7 C 9,4 C 86 % 1016,3 hPa 0,0 l/m 3,2 km/h (1 Bft) N-NO 22 0 min 0,0 UV-I 0 W/m 9,4 C 11,7 C 4,8 km/h (1 Bft)
11.06.2023 04:26 11,8 C 9,4 C 85 % 1016,4 hPa 0,0 l/m 1,6 km/h (1 Bft) N-NO 22 0 min 0,0 UV-I 0 W/m 9,4 C 11,8 C 1,6 km/h (1 Bft)
11.06.2023 04:27 11,7 C 9,4 C 85 % 1016,4 hPa 0,0 l/m 0,0 km/h (0 Bft) N 0 0 min 0,0 UV-I 0 W/m 9,3 C 11,7 C 0,0 km/h (0 Bft)
11.06.2023 04:28 11,7 C 9,4 C 85 % 1016,3 hPa 0,0 l/m 0,0 km/h (0 Bft) N 0 0 min 0,0 UV-I 0 W/m 9,3 C 11,7 C 0,0 km/h (0 Bft)
11.06.2023 04:29 11,6 C 9,4 C 85 % 1016,3 hPa 0,0 l/m 1,6 km/h (1 Bft) N-NO 22 0 min 0,0 UV-I 0 W/m 9,2 C 11,6 C 3,2 km/h (1 Bft)
11.06.2023 04:30 11,6 C 9,4 C 85 % 1016,3 hPa 0,0 l/m 1,6 km/h (1 Bft) N-NO 22 0 min 0,0 UV-I 0 W/m 9,2 C 11,6 C 1,6 km/h (1 Bft)
11.06.2023 04:31 11,6 C 9,4 C 86 % 1016,4 hPa 0,0 l/m 1,6 km/h (1 Bft) N-NO 22 0 min 0,0 UV-I 0 W/m 9,3 C 11,6 C 1,6 km/h (1 Bft)
11.06.2023 04:32 11,5 C 9,4 C 86 % 1016,3 hPa 0,0 l/m 1,6 km/h (1 Bft) N-NO 22 0 min 0,0 UV-I 0 W/m 9,2 C 11,5 C 1,6 km/h (1 Bft)
11.06.2023 04:33 11,5 C 8,9 C 86 % 1016,3 hPa 0,0 l/m 0,0 km/h (0 Bft) N 0 0 min 0,0 UV-I 0 W/m 9,2 C 11,5 C 0,0 km/h (0 Bft)
11.06.2023 04:34 11,5 C 8,9 C 86 % 1016,2 hPa 0,0 l/m 0,0 km/h (0 Bft) N 0 0 min 0,0 UV-I 0 W/m 9,2 C 11,5 C 0,0 km/h (0 Bft)
11.06.2023 04:35 11,4 C 8,9 C 86 % 1016,3 hPa 0,0 l/m 0,0 km/h (0 Bft) N 0 0 min 0,0 UV-I 0 W/m 9,1 C 11,4 C 0,0 km/h (0 Bft)
11.06.2023 04:36 11,5 C 8,9 C 86 % 1016,4 hPa 0,0 l/m 0,0 km/h (0 Bft) N 0 0 min 0,0 UV-I 0 W/m 9,2 C 11,5 C 0,0 km/h (0 Bft)
11.06.2023 04:37 11,5 C 8,9 C 86 % 1016,3 hPa 0,0 l/m 0,0 km/h (0 Bft) N 0 0 min 0,0 UV-I 0 W/m 9,2 C 11,5 C 0,0 km/h (0 Bft)
11.06.2023 04:38 11,5 C 8,9 C 86 % 1016,3 hPa 0,0 l/m 0,0 km/h (0 Bft) N 0 0 min 0,0 UV-I 0 W/m 9,2 C 11,5 C 0,0 km/h (0 Bft)
11.06.2023 04:39 11,6 C 8,9 C 87 % 1016,3 hPa 0,0 l/m 0,0 km/h (0 Bft) N 0 0 min 0,0 UV-I 0 W/m 9,5 C 11,6 C 0,0 km/h (0 Bft)
11.06.2023 04:40 11,7 C 8,9 C 87 % 1016,3 hPa 0,0 l/m 0,0 km/h (0 Bft) N 0 0 min 0,0 UV-I 0 W/m 9,6 C 11,7 C 0,0 km/h (0 Bft)
11.06.2023 04:41 11,7 C 9,4 C 87 % 1016,3 hPa 0,0 l/m 0,0 km/h (0 Bft) N 0 0 min 0,0 UV-I 0 W/m 9,6 C 11,7 C 0,0 km/h (0 Bft)
11.06.2023 04:42 11,7 C 8,9 C 87 % 1016,3 hPa 0,0 l/m 0,0 km/h (0 Bft) N 0 0 min 0,0 UV-I 0 W/m 9,6 C 11,7 C 0,0 km/h (0 Bft)
11.06.2023 04:43 11,8 C 8,9 C 87 % 1016,2 hPa 0,0 l/m 0,0 km/h (0 Bft) N 0 0 min 0,0 UV-I 0 W/m 9,7 C 11,8 C 0,0 km/h (0 Bft)
11.06.2023 04:44 11,7 C 8,9 C 87 % 1016,2 hPa 0,0 l/m 0,0 km/h (0 Bft) N-NO 22 0 min 0,0 UV-I 0 W/m 9,6 C 11,7 C 1,6 km/h (1 Bft)
11.06.2023 04:45 11,8 C 8,9 C 86 % 1016,2 hPa 0,0 l/m 0,0 km/h (0 Bft) N 0 0 min 0,0 UV-I 0 W/m 9,5 C 11,8 C 0,0 km/h (0 Bft)
11.06.2023 04:46 11,7 C 8,9 C 86 % 1016,2 hPa 0,0 l/m 0,0 km/h (0 Bft) N 0 0 min 0,0 UV-I 0 W/m 9,4 C 11,7 C 0,0 km/h (0 Bft)
11.06.2023 04:47 11,7 C 8,9 C 86 % 1016,2 hPa 0,0 l/m 0,0 km/h (0 Bft) N 0 0 min 0,0 UV-I 0 W/m 9,4 C 11,7 C 0,0 km/h (0 Bft)
11.06.2023 04:48 11,6 C 8,9 C 86 % 1016,2 hPa 0,0 l/m 0,0 km/h (0 Bft) N 0 0 min 0,0 UV-I 0 W/m 9,3 C 11,6 C 0,0 km/h (0 Bft)
11.06.2023 04:49 11,6 C 8,9 C 86 % 1016,2 hPa 0,0 l/m 0,0 km/h (0 Bft) N 0 0 min 0,0 UV-I 0 W/m 9,3 C 11,6 C 0,0 km/h (0 Bft)
11.06.2023 04:50 11,6 C 8,9 C 86 % 1016,2 hPa 0,0 l/m 0,0 km/h (0 Bft) N 0 0 min 0,0 UV-I 0 W/m 9,3 C 11,6 C 0,0 km/h (0 Bft)
11.06.2023 04:51 11,5 C 8,9 C 86 % 1016,2 hPa 0,0 l/m 1,6 km/h (1 Bft) N-NO 22 0 min 0,0 UV-I 0 W/m 9,2 C 11,5 C 3,2 km/h (1 Bft)
11.06.2023 04:52 11,4 C 8,9 C 86 % 1016,2 hPa 0,0 l/m 1,6 km/h (1 Bft) N-NO 22 0 min 0,0 UV-I 0 W/m 9,1 C 11,4 C 3,2 km/h (1 Bft)
11.06.2023 04:53 11,3 C 8,9 C 86 % 1016,3 hPa 0,0 l/m 1,6 km/h (1 Bft) N-NO 22 0 min 0,0 UV-I 0 W/m 9,0 C 11,3 C 3,2 km/h (1 Bft)
11.06.2023 04:54 11,2 C 8,9 C 86 % 1016,2 hPa 0,0 l/m 1,6 km/h (1 Bft) N-NO 22 0 min 0,0 UV-I 0 W/m 8,9 C 11,2 C 3,2 km/h (1 Bft)
11.06.2023 04:55 11,1 C 8,9 C 85 % 1016,1 hPa 0,0 l/m 3,2 km/h (1 Bft) N-NO 22 0 min 0,0 UV-I 0 W/m 8,7 C 11,1 C 3,2 km/h (1 Bft)
11.06.2023 04:56 11,1 C 8,9 C 86 % 1016,2 hPa 0,0 l/m 1,6 km/h (1 Bft) N-NO 22 0 min 0,0 UV-I 0 W/m 8,8 C 11,1 C 1,6 km/h (1 Bft)
11.06.2023 04:57 10,9 C 8,9 C 86 % 1016,3 hPa 0,0 l/m 0,0 km/h (0 Bft) N 0 0 min 0,0 UV-I 0 W/m 8,7 C 10,9 C 0,0 km/h (0 Bft)
11.06.2023 04:58 10,9 C 8,9 C 86 % 1016,3 hPa 0,0 l/m 0,0 km/h (0 Bft) N 0 0 min 0,0 UV-I 0 W/m 8,7 C 10,9 C 0,0 km/h (0 Bft)
11.06.2023 04:59 10,8 C 8,9 C 86 % 1016,3 hPa 0,0 l/m 0,0 km/h (0 Bft) N 0 0 min 0,0 UV-I 0 W/m 8,6 C 10,8 C 0,0 km/h (0 Bft)
11.06.2023 05:00 10,8 C 8,9 C 86 % 1016,3 hPa 0,0 l/m 0,0 km/h (0 Bft) N 0 0 min 0,0 UV-I 0 W/m 8,6 C 10,8 C 0,0 km/h (0 Bft)
11.06.2023 05:01 10,8 C 8,9 C 87 % 1016,3 hPa 0,0 l/m 0,0 km/h (0 Bft) N-NO 22 0 min 0,0 UV-I 0 W/m 8,7 C 10,8 C 1,6 km/h (1 Bft)
11.06.2023 05:02 10,8 C 8,9 C 87 % 1016,2 hPa 0,0 l/m 0,0 km/h (0 Bft) N-NO 22 0 min 0,0 UV-I 0 W/m 8,7 C 10,8 C 1,6 km/h (1 Bft)
11.06.2023 05:03 10,8 C 8,9 C 87 % 1016,3 hPa 0,0 l/m 0,0 km/h (0 Bft) N 0 0 min 0,0 UV-I 0 W/m 8,7 C 10,8 C 0,0 km/h (0 Bft)
11.06.2023 05:04 10,8 C 8,9 C 87 % 1016,3 hPa 0,0 l/m 0,0 km/h (0 Bft) N 0 0 min 0,0 UV-I 0 W/m 8,7 C 10,8 C 0,0 km/h (0 Bft)
11.06.2023 05:05 10,8 C 8,9 C 87 % 1016,4 hPa 0,0 l/m 0,0 km/h (0 Bft) N 0 0 min 0,0 UV-I 0 W/m 8,7 C 10,8 C 0,0 km/h (0 Bft)
11.06.2023 05:06 10,9 C 8,9 C 87 % 1016,3 hPa 0,0 l/m 0,0 km/h (0 Bft) N 0 0 min 0,0 UV-I 0 W/m 8,8 C 10,9 C 0,0 km/h (0 Bft)
11.06.2023 05:07 11,1 C 8,9 C 88 % 1016,3 hPa 0,0 l/m 0,0 km/h (0 Bft) N 0 0 min 0,0 UV-I 0 W/m 9,2 C 11,1 C 0,0 km/h (0 Bft)
11.06.2023 05:08 11,2 C 8,9 C 88 % 1016,3 hPa 0,0 l/m 1,6 km/h (1 Bft) N-NO 22 0 min 0,0 UV-I 0 W/m 9,3 C 11,2 C 3,2 km/h (1 Bft)
11.06.2023 05:09 11,4 C 8,9 C 88 % 1016,2 hPa 0,0 l/m 0,0 km/h (0 Bft) N-NO 22 0 min 0,0 UV-I 0 W/m 9,5 C 11,4 C 1,6 km/h (1 Bft)
11.06.2023 05:10 11,4 C 8,9 C 88 % 1016,3 hPa 0,0 l/m 0,0 km/h (0 Bft) N-NO 22 0 min 0,0 UV-I 0 W/m 9,5 C 11,4 C 1,6 km/h (1 Bft)
11.06.2023 05:11 11,3 C 8,9 C 87 % 1016,4 hPa 0,0 l/m 0,0 km/h (0 Bft) N-NO 22 0 min 0,0 UV-I 0 W/m 9,2 C 11,3 C 1,6 km/h (1 Bft)
11.06.2023 05:12 11,2 C 8,9 C 86 % 1016,4 hPa 0,0 l/m 0,0 km/h (0 Bft) N 0 0 min 0,0 UV-I 0 W/m 8,9 C 11,2 C 0,0 km/h (0 Bft)
11.06.2023 05:13 11,2 C 8,9 C 86 % 1016,3 hPa 0,0 l/m 0,0 km/h (0 Bft) N 0 0 min 0,0 UV-I 0 W/m 8,9 C 11,2 C 0,0 km/h (0 Bft)
11.06.2023 05:14 11,1 C 8,9 C 86 % 1016,3 hPa 0,0 l/m 0,0 km/h (0 Bft) N 0 0 min 0,0 UV-I 0 W/m 8,8 C 11,1 C 0,0 km/h (0 Bft)
11.06.2023 05:15 10,9 C 8,9 C 86 % 1016,4 hPa 0,0 l/m 0,0 km/h (0 Bft) N 0 0 min 0,0 UV-I 0 W/m 8,7 C 10,9 C 0,0 km/h (0 Bft)
11.06.2023 05:16 10,9 C 8,9 C 86 % 1016,4 hPa 0,0 l/m 0,0 km/h (0 Bft) N 0 0 min 0,0 UV-I 0 W/m 8,7 C 10,9 C 0,0 km/h (0 Bft)
11.06.2023 05:17 10,8 C 8,9 C 86 % 1016,5 hPa 0,0 l/m 0,0 km/h (0 Bft) N 0 0 min 0,0 UV-I 0 W/m 8,6 C 10,8 C 0,0 km/h (0 Bft)
11.06.2023 05:18 10,8 C 8,9 C 87 % 1016,3 hPa 0,0 l/m 0,0 km/h (0 Bft) N-NO 22 0 min 0,0 UV-I 0 W/m 8,7 C 10,8 C 1,6 km/h (1 Bft)
11.06.2023 05:19 10,8 C 8,9 C 87 % 1016,4 hPa 0,0 l/m 0,0 km/h (0 Bft) N 0 0 min 0,0 UV-I 0 W/m 8,7 C 10,8 C 0,0 km/h (0 Bft)
11.06.2023 05:20 10,8 C 8,3 C 87 % 1016,5 hPa 0,0 l/m 0,0 km/h (0 Bft) N 0 0 min 0,0 UV-I 0 W/m 8,7 C 10,8 C 0,0 km/h (0 Bft)
11.06.2023 05:21 10,8 C 8,3 C 87 % 1016,4 hPa 0,0 l/m 0,0 km/h (0 Bft) N 0 0 min 0,0 UV-I 0 W/m 8,7 C 10,8 C 0,0 km/h (0 Bft)
11.06.2023 05:22 10,8 C 8,9 C 87 % 1016,3 hPa 0,0 l/m 1,6 km/h (1 Bft) N-NO 22 0 min 0,0 UV-I 0 W/m 8,7 C 10,8 C 1,6 km/h (1 Bft)
11.06.2023 05:23 10,8 C 8,9 C 87 % 1016,4 hPa 0,0 l/m 1,6 km/h (1 Bft) N-NO 22 0 min 0,0 UV-I 0 W/m 8,7 C 10,8 C 1,6 km/h (1 Bft)
11.06.2023 05:24 10,7 C 8,9 C 87 % 1016,4 hPa 0,0 l/m 0,0 km/h (0 Bft) N-NO 22 0 min 0,0 UV-I 0 W/m 8,6 C 10,7 C 1,6 km/h (1 Bft)
11.06.2023 05:25 10,7 C 8,9 C 87 % 1016,4 hPa 0,0 l/m 0,0 km/h (0 Bft) N-NO 22 0 min 0,0 UV-I 0 W/m 8,6 C 10,7 C 1,6 km/h (1 Bft)
11.06.2023 05:26 10,6 C 8,9 C 87 % 1016,3 hPa 0,0 l/m 1,6 km/h (1 Bft) N-NO 22 0 min 0,0 UV-I 0 W/m 8,5 C 10,6 C 3,2 km/h (1 Bft)
11.06.2023 05:27 10,6 C 8,9 C 87 % 1016,4 hPa 0,0 l/m 3,2 km/h (1 Bft) N-NO 22 0 min 0,0 UV-I 0 W/m 8,5 C 10,6 C 4,8 km/h (1 Bft)
11.06.2023 05:28 10,5 C 8,9 C 87 % 1016,4 hPa 0,0 l/m 3,2 km/h (1 Bft) N-NO 22 0 min 0,0 UV-I 5 W/m 8,4 C 10,5 C 3,2 km/h (1 Bft)
11.06.2023 05:29 10,4 C 8,9 C 87 % 1016,4 hPa 0,0 l/m 1,6 km/h (1 Bft) N-NO 22 0 min 0,0 UV-I 5 W/m 8,3 C 10,4 C 3,2 km/h (1 Bft)
11.06.2023 05:30 10,3 C 8,3 C 87 % 1016,4 hPa 0,0 l/m 0,0 km/h (0 Bft) N-NO 22 0 min 0,0 UV-I 5 W/m 8,2 C 10,3 C 1,6 km/h (1 Bft)
11.06.2023 05:31 10,3 C 8,3 C 87 % 1016,4 hPa 0,0 l/m 0,0 km/h (0 Bft) N-NO 22 0 min 0,0 UV-I 5 W/m 8,2 C 10,3 C 1,6 km/h (1 Bft)
11.06.2023 05:32 10,3 C 8,3 C 87 % 1016,5 hPa 0,0 l/m 0,0 km/h (0 Bft) N-NO 22 0 min 0,0 UV-I 5 W/m 8,2 C 10,3 C 1,6 km/h (1 Bft)
11.06.2023 05:33 10,3 C 8,3 C 87 % 1016,5 hPa 0,0 l/m 0,0 km/h (0 Bft) N-NO 22 0 min 0,0 UV-I 5 W/m 8,2 C 10,3 C 1,6 km/h (1 Bft)
11.06.2023 05:34 10,3 C 8,3 C 87 % 1016,4 hPa 0,0 l/m 0,0 km/h (0 Bft) N-NO 22 0 min 0,0 UV-I 7 W/m 8,2 C 10,3 C 1,6 km/h (1 Bft)
11.06.2023 05:35 10,3 C 8,3 C 87 % 1016,5 hPa 0,0 l/m 1,6 km/h (1 Bft) N-NO 22 0 min 0,0 UV-I 7 W/m 8,2 C 10,3 C 3,2 km/h (1 Bft)
11.06.2023 05:36 10,2 C 8,3 C 87 % 1016,4 hPa 0,0 l/m 3,2 km/h (1 Bft) N-NO 22 0 min 0,0 UV-I 7 W/m 8,1 C 10,2 C 4,8 km/h (1 Bft)
11.06.2023 05:37 10,3 C 8,3 C 87 % 1016,5 hPa 0,0 l/m 3,2 km/h (1 Bft) N-NO 22 0 min 0,0 UV-I 7 W/m 8,2 C 10,3 C 4,8 km/h (1 Bft)
11.06.2023 05:38 10,3 C 8,3 C 87 % 1016,4 hPa 0,0 l/m 3,2 km/h (1 Bft) N-NO 22 0 min 0,0 UV-I 7 W/m 8,2 C 10,3 C 4,8 km/h (1 Bft)
11.06.2023 05:39 10,3 C 8,3 C 87 % 1016,5 hPa 0,0 l/m 3,2 km/h (1 Bft) N-NO 22 0 min 0,0 UV-I 9 W/m 8,2 C 10,3 C 4,8 km/h (1 Bft)
11.06.2023 05:40 10,3 C 8,3 C 88 % 1016,5 hPa 0,0 l/m 4,8 km/h (1 Bft) N-NO 22 0 min 0,0 UV-I 9 W/m 8,4 C 10,3 C 4,8 km/h (1 Bft)
11.06.2023 05:41 10,3 C 8,3 C 88 % 1016,5 hPa 0,0 l/m 0,0 km/h (0 Bft) N-NO 22 0 min 0,0 UV-I 9 W/m 8,4 C 10,3 C 1,6 km/h (1 Bft)
11.06.2023 05:42 10,3 C 8,3 C 88 % 1016,5 hPa 0,0 l/m 0,0 km/h (0 Bft) N-NO 22 0 min 0,0 UV-I 11 W/m 8,4 C 10,3 C 1,6 km/h (1 Bft)
11.06.2023 05:43 10,3 C 8,3 C 88 % 1016,5 hPa 0,0 l/m 1,6 km/h (1 Bft) N-NO 22 0 min 0,0 UV-I 11 W/m 8,4 C 10,3 C 3,2 km/h (1 Bft)
11.06.2023 05:44 10,4 C 8,9 C 88 % 1016,5 hPa 0,0 l/m 1,6 km/h (1 Bft) N-NO 22 0 min 0,0 UV-I 11 W/m 8,5 C 10,4 C 4,8 km/h (1 Bft)
11.06.2023 05:45 10,4 C 8,9 C 88 % 1016,4 hPa 0,0 l/m 0,0 km/h (0 Bft) N-NO 22 0 min 0,0 UV-I 11 W/m 8,5 C 10,4 C 1,6 km/h (1 Bft)
11.06.2023 05:46 10,3 C 8,9 C 88 % 1016,4 hPa 0,0 l/m 3,2 km/h (1 Bft) N-NO 22 0 min 0,0 UV-I 12 W/m 8,4 C 10,3 C 4,8 km/h (1 Bft)
11.06.2023 05:47 10,3 C 8,9 C 87 % 1016,5 hPa 0,0 l/m 3,2 km/h (1 Bft) N-NO 22 0 min 0,0 UV-I 12 W/m 8,2 C 10,3 C 4,8 km/h (1 Bft)
11.06.2023 05:48 10,3 C 8,9 C 87 % 1016,4 hPa 0,0 l/m 1,6 km/h (1 Bft) N-NO 22 0 min 0,0 UV-I 12 W/m 8,2 C 10,3 C 3,2 km/h (1 Bft)
11.06.2023 05:49 10,2 C 8,9 C 87 % 1016,5 hPa 0,0 l/m 1,6 km/h (1 Bft) N-NO 22 0 min 0,0 UV-I 12 W/m 8,1 C 10,2 C 3,2 km/h (1 Bft)
11.06.2023 05:50 10,2 C 8,9 C 88 % 1016,4 hPa 0,0 l/m 1,6 km/h (1 Bft) N-NO 22 0 min 0,0 UV-I 12 W/m 8,3 C 10,2 C 1,6 km/h (1 Bft)
11.06.2023 05:51 10,3 C 8,9 C 88 % 1016,5 hPa 0,0 l/m 1,6 km/h (1 Bft) N-NO 22 0 min 0,0 UV-I 14 W/m 8,4 C 10,3 C 3,2 km/h (1 Bft)
11.06.2023 05:52 10,4 C 8,9 C 88 % 1016,4 hPa 0,0 l/m 1,6 km/h (1 Bft) N-NO 22 0 min 0,0 UV-I 14 W/m 8,5 C 10,4 C 3,2 km/h (1 Bft)
11.06.2023 05:53 10,4 C 8,9 C 88 % 1016,4 hPa 0,0 l/m 3,2 km/h (1 Bft) N-NO 22 0 min 0,0 UV-I 14 W/m 8,5 C 10,4 C 4,8 km/h (1 Bft)
11.06.2023 05:54 10,4 C 8,9 C 88 % 1016,5 hPa 0,0 l/m 1,6 km/h (1 Bft) N-NO 22 0 min 0,0 UV-I 14 W/m 8,5 C 10,4 C 1,6 km/h (1 Bft)
11.06.2023 05:55 10,4 C 8,9 C 88 % 1016,5 hPa 0,0 l/m 0,0 km/h (0 Bft) N 0 0 min 0,0 UV-I 16 W/m 8,5 C 10,4 C 0,0 km/h (0 Bft)
11.06.2023 05:56 10,6 C 8,9 C 88 % 1016,5 hPa 0,0 l/m 0,0 km/h (0 Bft) N 0 0 min 0,0 UV-I 16 W/m 8,7 C 10,6 C 0,0 km/h (0 Bft)
11.06.2023 05:57 10,6 C 8,9 C 88 % 1016,5 hPa 0,0 l/m 0,0 km/h (0 Bft) N 0 0 min 0,0 UV-I 16 W/m 8,7 C 10,6 C 0,0 km/h (0 Bft)
11.06.2023 05:58 10,6 C 8,9 C 88 % 1016,5 hPa 0,0 l/m 0,0 km/h (0 Bft) N 0 0 min 0,0 UV-I 16 W/m 8,7 C 10,6 C 0,0 km/h (0 Bft)
11.06.2023 05:59 10,7 C 8,9 C 88 % 1016,5 hPa 0,0 l/m 0,0 km/h (0 Bft) N 0 0 min 0,0 UV-I 18 W/m 8,8 C 10,7 C 0,0 km/h (0 Bft)
11.06.2023 06:00 10,7 C 8,9 C 88 % 1016,5 hPa 0,0 l/m 0,0 km/h (0 Bft) N-NO 22 0 min 0,0 UV-I 18 W/m 8,8 C 10,7 C 1,6 km/h (1 Bft)
11.06.2023 06:01 10,8 C 8,9 C 88 % 1016,5 hPa 0,0 l/m 1,6 km/h (1 Bft) N-NO 22 0 min 0,0 UV-I 18 W/m 8,9 C 10,8 C 3,2 km/h (1 Bft)
11.06.2023 06:02 10,8 C 9,4 C 88 % 1016,5 hPa 0,0 l/m 1,6 km/h (1 Bft) N-NO 22 0 min 0,0 UV-I 18 W/m 8,9 C 10,8 C 3,2 km/h (1 Bft)
11.06.2023 06:03 10,7 C 9,4 C 88 % 1016,5 hPa 0,0 l/m 0,0 km/h (0 Bft) N-NO 22 0 min 0,0 UV-I 19 W/m 8,8 C 10,7 C 1,6 km/h (1 Bft)
11.06.2023 06:04 10,7 C 9,4 C 88 % 1016,5 hPa 0,0 l/m 0,0 km/h (0 Bft) N-NO 22 0 min 0,0 UV-I 19 W/m 8,8 C 10,7 C 1,6 km/h (1 Bft)
11.06.2023 06:05 10,7 C 9,4 C 88 % 1016,5 hPa 0,0 l/m 0,0 km/h (0 Bft) N-NO 22 0 min 0,0 UV-I 19 W/m 8,8 C 10,7 C 1,6 km/h (1 Bft)
11.06.2023 06:06 10,6 C 9,4 C 88 % 1016,5 hPa 0,0 l/m 3,2 km/h (1 Bft) N-NO 22 0 min 0,0 UV-I 19 W/m 8,7 C 10,6 C 4,8 km/h (1 Bft)
11.06.2023 06:07 10,6 C 9,4 C 87 % 1016,5 hPa 0,0 l/m 3,2 km/h (1 Bft) N-NO 22 0 min 0,0 UV-I 19 W/m 8,5 C 10,6 C 4,8 km/h (1 Bft)
11.06.2023 06:08 10,6 C 9,4 C 87 % 1016,5 hPa 0,0 l/m 0,0 km/h (0 Bft) N-NO 22 0 min 0,0 UV-I 21 W/m 8,5 C 10,6 C 1,6 km/h (1 Bft)
11.06.2023 06:09 10,6 C 9,4 C 88 % 1016,5 hPa 0,0 l/m 1,6 km/h (1 Bft) N-NO 22 0 min 0,0 UV-I 21 W/m 8,7 C 10,6 C 3,2 km/h (1 Bft)
11.06.2023 06:10 10,6 C 9,4 C 88 % 1016,5 hPa 0,0 l/m 1,6 km/h (1 Bft) N-NO 22 0 min 0,0 UV-I 23 W/m 8,7 C 10,6 C 3,2 km/h (1 Bft)
11.06.2023 06:11 10,6 C 9,4 C 88 % 1016,5 hPa 0,0 l/m 1,6 km/h (1 Bft) N-NO 22 0 min 0,0 UV-I 23 W/m 8,7 C 10,6 C 3,2 km/h (1 Bft)
11.06.2023 06:12 10,6 C 9,4 C 88 % 1016,5 hPa 0,0 l/m 0,0 km/h (0 Bft) N 0 0 min 0,0 UV-I 25 W/m 8,7 C 10,6 C 0,0 km/h (0 Bft)
11.06.2023 06:13 10,7 C 9,4 C 88 % 1016,4 hPa 0,0 l/m 0,0 km/h (0 Bft) N-NO 22 0 min 0,0 UV-I 26 W/m 8,8 C 10,7 C 1,6 km/h (1 Bft)
11.06.2023 06:14 10,7 C 9,4 C 88 % 1016,5 hPa 0,0 l/m 0,0 km/h (0 Bft) N-NO 22 0 min 0,0 UV-I 26 W/m 8,8 C 10,7 C 1,6 km/h (1 Bft)
11.06.2023 06:15 10,7 C 9,4 C 87 % 1016,5 hPa 0,0 l/m 0,0 km/h (0 Bft) N 0 0 min 0,0 UV-I 28 W/m 8,6 C 10,7 C 0,0 km/h (0 Bft)
11.06.2023 06:16 10,7 C 9,4 C 87 % 1016,4 hPa 0,0 l/m 0,0 km/h (0 Bft) N-NO 22 0 min 0,0 UV-I 28 W/m 8,6 C 10,7 C 1,6 km/h (1 Bft)
11.06.2023 06:17 10,7 C 9,4 C 87 % 1016,5 hPa 0,0 l/m 0,0 km/h (0 Bft) N-NO 22 0 min 0,0 UV-I 30 W/m 8,6 C 10,7 C 1,6 km/h (1 Bft)
11.06.2023 06:18 10,8 C 9,4 C 87 % 1016,4 hPa 0,0 l/m 0,0 km/h (0 Bft) N-NO 22 0 min 0,0 UV-I 32 W/m 8,7 C 10,8 C 1,6 km/h (1 Bft)
11.06.2023 06:19 10,8 C 9,4 C 87 % 1016,5 hPa 0,0 l/m 1,6 km/h (1 Bft) N-NO 22 0 min 0,0 UV-I 32 W/m 8,7 C 10,8 C 3,2 km/h (1 Bft)
11.06.2023 06:20 10,8 C 10,0 C 87 % 1016,5 hPa 0,0 l/m 1,6 km/h (1 Bft) N-NO 22 0 min 0,0 UV-I 33 W/m 8,7 C 10,8 C 3,2 km/h (1 Bft)
11.06.2023 06:21 10,8 C 10,0 C 87 % 1016,5 hPa 0,0 l/m 3,2 km/h (1 Bft) N-NO 22 0 min 0,0 UV-I 35 W/m 8,7 C 10,8 C 3,2 km/h (1 Bft)
11.06.2023 06:22 10,8 C 10,0 C 87 % 1016,5 hPa 0,0 l/m 1,6 km/h (1 Bft) N-NO 22 0 min 0,0 UV-I 37 W/m 8,7 C 10,8 C 3,2 km/h (1 Bft)
11.06.2023 06:23 10,8 C 10,0 C 87 % 1016,5 hPa 0,0 l/m 0,0 km/h (0 Bft) N-NO 22 0 min 0,0 UV-I 39 W/m 8,7 C 10,8 C 1,6 km/h (1 Bft)
11.06.2023 06:24 10,9 C 10,0 C 88 % 1016,6 hPa 0,0 l/m 0,0 km/h (0 Bft) N-NO 22 0 min 0,0 UV-I 40 W/m 9,0 C 10,9 C 1,6 km/h (1 Bft)
11.06.2023 06:25 10,9 C 10,0 C 88 % 1016,6 hPa 0,0 l/m 1,6 km/h (1 Bft) N-NO 22 0 min 0,0 UV-I 42 W/m 9,0 C 10,9 C 1,6 km/h (1 Bft)
11.06.2023 06:26 11,1 C 10,0 C 88 % 1016,5 hPa 0,0 l/m 1,6 km/h (1 Bft) N-NO 22 0 min 0,0 UV-I 43 W/m 9,2 C 11,1 C 3,2 km/h (1 Bft)
11.06.2023 06:27 11,2 C 10,0 C 88 % 1016,5 hPa 0,0 l/m 0,0 km/h (0 Bft) N 0 0 min 0,0 UV-I 46 W/m 9,3 C 11,2 C 0,0 km/h (0 Bft)
11.06.2023 06:28 11,2 C 10,0 C 87 % 1016,6 hPa 0,0 l/m 0,0 km/h (0 Bft) N-NO 22 0 min 0,0 UV-I 47 W/m 9,1 C 11,2 C 1,6 km/h (1 Bft)
11.06.2023 06:29 11,2 C 10,0 C 87 % 1016,5 hPa 0,0 l/m 0,0 km/h (0 Bft) N-NO 22 0 min 0,0 UV-I 49 W/m 9,1 C 11,2 C 1,6 km/h (1 Bft)
11.06.2023 06:30 11,2 C 10,0 C 87 % 1016,6 hPa 0,0 l/m 0,0 km/h (0 Bft) N-NO 22 0 min 0,0 UV-I 49 W/m 9,1 C 11,2 C 1,6 km/h (1 Bft)
11.06.2023 06:31 11,3 C 10,6 C 87 % 1016,5 hPa 0,0 l/m 0,0 km/h (0 Bft) N 0 0 min 0,0 UV-I 51 W/m 9,2 C 11,3 C 0,0 km/h (0 Bft)
11.06.2023 06:32 11,3 C 10,6 C 87 % 1016,5 hPa 0,0 l/m 0,0 km/h (0 Bft) N 0 0 min 0,0 UV-I 54 W/m 9,2 C 11,3 C 0,0 km/h (0 Bft)
11.06.2023 06:33 11,3 C 10,6 C 87 % 1016,5 hPa 0,0 l/m 0,0 km/h (0 Bft) N 0 0 min 0,0 UV-I 54 W/m 9,2 C 11,3 C 0,0 km/h (0 Bft)
11.06.2023 06:34 11,4 C 10,6 C 87 % 1016,5 hPa 0,0 l/m 0,0 km/h (0 Bft) N-NO 22 0 min 0,0 UV-I 56 W/m 9,3 C 11,4 C 1,6 km/h (1 Bft)
11.06.2023 06:35 11,5 C 10,6 C 87 % 1016,5 hPa 0,0 l/m 0,0 km/h (0 Bft) N 0 0 min 0,0 UV-I 58 W/m 9,4 C 11,5 C 0,0 km/h (0 Bft)
11.06.2023 06:36 11,6 C 10,6 C 87 % 1016,5 hPa 0,0 l/m 0,0 km/h (0 Bft) N-NO 22 0 min 0,0 UV-I 60 W/m 9,5 C 11,6 C 1,6 km/h (1 Bft)
11.06.2023 06:37 11,7 C 10,6 C 87 % 1016,4 hPa 0,0 l/m 1,6 km/h (1 Bft) N-NO 22 0 min 0,0 UV-I 62 W/m 9,6 C 11,7 C 3,2 km/h (1 Bft)
11.06.2023 06:38 11,7 C 10,6 C 86 % 1016,5 hPa 0,0 l/m 1,6 km/h (1 Bft) N-NO 22 0 min 0,0 UV-I 63 W/m 9,4 C 11,7 C 3,2 km/h (1 Bft)
11.06.2023 06:39 11,8 C 10,6 C 86 % 1016,4 hPa 0,0 l/m 0,0 km/h (0 Bft) N-NO 22 0 min 0,0 UV-I 65 W/m 9,5 C 11,8 C 1,6 km/h (1 Bft)
11.06.2023 06:40 11,8 C 10,6 C 86 % 1016,5 hPa 0,0 l/m 0,0 km/h (0 Bft) N-NO 22 0 min 0,0 UV-I 67 W/m 9,5 C 11,8 C 1,6 km/h (1 Bft)
11.06.2023 06:41 11,8 C 10,6 C 86 % 1016,5 hPa 0,0 l/m 0,0 km/h (0 Bft) N-NO 22 0 min 0,0 UV-I 69 W/m 9,5 C 11,8 C 1,6 km/h (1 Bft)
11.06.2023 06:42 11,8 C 10,6 C 86 % 1016,6 hPa 0,0 l/m 0,0 km/h (0 Bft) N 0 0 min 0,0 UV-I 70 W/m 9,5 C 11,8 C 0,0 km/h (0 Bft)
11.06.2023 06:43 11,8 C 10,6 C 86 % 1016,4 hPa 0,0 l/m 0,0 km/h (0 Bft) N 0 0 min 0,0 UV-I 73 W/m 9,5 C 11,8 C 0,0 km/h (0 Bft)
11.06.2023 06:44 11,8 C 10,6 C 86 % 1016,5 hPa 0,0 l/m 0,0 km/h (0 Bft) N 0 0 min 0,0 UV-I 76 W/m 9,5 C 11,8 C 0,0 km/h (0 Bft)
11.06.2023 06:45 11,8 C 11,1 C 86 % 1016,4 hPa 0,0 l/m 0,0 km/h (0 Bft) N 0 0 min 0,0 UV-I 77 W/m 9,5 C 11,8 C 0,0 km/h (0 Bft)
11.06.2023 06:46 11,9 C 11,1 C 86 % 1016,5 hPa 0,0 l/m 0,0 km/h (0 Bft) N 0 0 min 0,0 UV-I 77 W/m 9,6 C 11,9 C 0,0 km/h (0 Bft)
11.06.2023 06:47 11,9 C 11,1 C 86 % 1016,5 hPa 0,0 l/m 0,0 km/h (0 Bft) N-NO 22 0 min 0,0 UV-I 81 W/m 9,6 C 11,9 C 1,6 km/h (1 Bft)
11.06.2023 06:48 11,9 C 11,1 C 85 % 1016,5 hPa 0,0 l/m 0,0 km/h (0 Bft) N-NO 22 0 min 0,0 UV-I 83 W/m 9,5 C 11,9 C 1,6 km/h (1 Bft)
11.06.2023 06:49 11,9 C 11,1 C 85 % 1016,4 hPa 0,0 l/m 0,0 km/h (0 Bft) N-NO 22 0 min 0,0 UV-I 84 W/m 9,5 C 11,9 C 1,6 km/h (1 Bft)
11.06.2023 06:50 12,0 C 11,1 C 85 % 1016,5 hPa 0,0 l/m 0,0 km/h (0 Bft) N-NO 22 0 min 0,0 UV-I 86 W/m 9,6 C 12,0 C 1,6 km/h (1 Bft)
11.06.2023 06:51 12,1 C 11,1 C 85 % 1016,5 hPa 0,0 l/m 1,6 km/h (1 Bft) N-NO 22 0 min 0,0 UV-I 88 W/m 9,7 C 12,1 C 3,2 km/h (1 Bft)
11.06.2023 06:52 12,1 C 11,1 C 85 % 1016,5 hPa 0,0 l/m 1,6 km/h (1 Bft) N-NO 22 0 min 0,0 UV-I 90 W/m 9,7 C 12,1 C 1,6 km/h (1 Bft)
11.06.2023 06:53 12,2 C 11,1 C 85 % 1016,5 hPa 0,0 l/m 1,6 km/h (1 Bft) N-NO 22 0 min 0,0 UV-I 91 W/m 9,8 C 12,2 C 3,2 km/h (1 Bft)
11.06.2023 06:54 12,2 C 11,1 C 85 % 1016,5 hPa 0,0 l/m 1,6 km/h (1 Bft) N-NO 22 0 min 0,0 UV-I 93 W/m 9,8 C 12,2 C 3,2 km/h (1 Bft)
11.06.2023 06:55 12,2 C 11,1 C 84 % 1016,5 hPa 0,0 l/m 1,6 km/h (1 Bft) N-NO 22 0 min 0,0 UV-I 96 W/m 9,6 C 12,2 C 3,2 km/h (1 Bft)
11.06.2023 06:56 12,2 C 11,7 C 84 % 1016,5 hPa 0,0 l/m 1,6 km/h (1 Bft) N-NO 22 0 min 0,0 UV-I 98 W/m 9,6 C 12,2 C 3,2 km/h (1 Bft)
11.06.2023 06:57 12,3 C 11,7 C 85 % 1016,4 hPa 0,0 l/m 1,6 km/h (1 Bft) N-NO 22 0 min 0,5 UV-I 100 W/m 9,9 C 12,3 C 3,2 km/h (1 Bft)
11.06.2023 06:58 12,3 C 11,7 C 85 % 1016,4 hPa 0,0 l/m 0,0 km/h (0 Bft) N-NO 22 0 min 0,5 UV-I 104 W/m 9,9 C 12,3 C 3,2 km/h (1 Bft)
11.06.2023 06:59 12,4 C 11,7 C 84 % 1016,4 hPa 0,0 l/m 1,6 km/h (1 Bft) N-NO 22 0 min 0,5 UV-I 105 W/m 9,8 C 12,4 C 4,8 km/h (1 Bft)
11.06.2023 07:00 12,4 C 12,2 C 84 % 1016,4 hPa 0,0 l/m 0,0 km/h (0 Bft) N-NO 22 0 min 0,5 UV-I 107 W/m 9,8 C 12,4 C 1,6 km/h (1 Bft)
11.06.2023 07:01 12,4 C 12,2 C 84 % 1016,4 hPa 0,0 l/m 0,0 km/h (0 Bft) N-NO 22 0 min 0,5 UV-I 110 W/m 9,8 C 12,4 C 1,6 km/h (1 Bft)
11.06.2023 07:02 12,6 C 12,2 C 84 % 1016,5 hPa 0,0 l/m 1,6 km/h (1 Bft) N-NO 22 0 min 0,5 UV-I 114 W/m 10,0 C 12,6 C 3,2 km/h (1 Bft)
11.06.2023 07:03 12,6 C 12,8 C 84 % 1016,4 hPa 0,0 l/m 0,0 km/h (0 Bft) N-NO 22 0 min 0,5 UV-I 116 W/m 10,0 C 12,6 C 1,6 km/h (1 Bft)
11.06.2023 07:04 12,7 C 12,8 C 84 % 1016,4 hPa 0,0 l/m 1,6 km/h (1 Bft) N-NO 22 0 min 0,5 UV-I 118 W/m 10,1 C 12,7 C 3,2 km/h (1 Bft)
11.06.2023 07:05 12,8 C 12,8 C 83 % 1016,5 hPa 0,0 l/m 0,0 km/h (0 Bft) N-NO 22 0 min 0,5 UV-I 120 W/m 10,0 C 12,8 C 1,6 km/h (1 Bft)
11.06.2023 07:06 12,8 C 12,8 C 83 % 1016,5 hPa 0,0 l/m 0,0 km/h (0 Bft) N-NO 22 0 min 0,5 UV-I 123 W/m 10,0 C 12,8 C 1,6 km/h (1 Bft)
11.06.2023 07:07 12,8 C 13,3 C 83 % 1016,5 hPa 0,0 l/m 0,0 km/h (0 Bft) N 0 0 min 0,5 UV-I 126 W/m 10,0 C 12,8 C 0,0 km/h (0 Bft)
11.06.2023 07:08 12,8 C 13,3 C 83 % 1016,5 hPa 0,0 l/m 0,0 km/h (0 Bft) N-NO 22 0 min 0,6 UV-I 127 W/m 10,0 C 12,8 C 1,6 km/h (1 Bft)
11.06.2023 07:09 12,9 C 13,3 C 83 % 1016,4 hPa 0,0 l/m 0,0 km/h (0 Bft) N-NO 22 1 min 0,6 UV-I 132 W/m 10,1 C 12,9 C 1,6 km/h (1 Bft)
11.06.2023 07:10 12,9 C 13,9 C 83 % 1016,5 hPa 0,0 l/m 0,0 km/h (0 Bft) N-NO 22 1 min 0,6 UV-I 134 W/m 10,1 C 12,9 C 1,6 km/h (1 Bft)
11.06.2023 07:11 13,0 C 13,9 C 82 % 1016,4 hPa 0,0 l/m 0,0 km/h (0 Bft) N-NO 22 1 min 0,6 UV-I 134 W/m 10,0 C 13,0 C 1,6 km/h (1 Bft)
11.06.2023 07:12 13,1 C 14,4 C 83 % 1016,6 hPa 0,0 l/m 0,0 km/h (0 Bft) N-NO 22 1 min 0,6 UV-I 134 W/m 10,3 C 13,1 C 1,6 km/h (1 Bft)
11.06.2023 07:13 13,2 C 14,4 C 83 % 1016,5 hPa 0,0 l/m 0,0 km/h (0 Bft) N-NO 22 0 min 0,6 UV-I 134 W/m 10,4 C 13,2 C 1,6 km/h (1 Bft)
11.06.2023 07:14 13,3 C 14,4 C 83 % 1016,5 hPa 0,0 l/m 1,6 km/h (1 Bft) N-NO 22 0 min 0,6 UV-I 134 W/m 10,5 C 13,3 C 1,6 km/h (1 Bft)
11.06.2023 07:15 13,4 C 14,4 C 82 % 1016,5 hPa 0,0 l/m 0,0 km/h (0 Bft) N-NO 22 0 min 0,6 UV-I 134 W/m 10,4 C 13,4 C 1,6 km/h (1 Bft)
11.06.2023 07:16 13,5 C 15,0 C 82 % 1016,6 hPa 0,0 l/m 1,6 km/h (1 Bft) N-NO 22 0 min 0,6 UV-I 134 W/m 10,5 C 13,5 C 1,6 km/h (1 Bft)
11.06.2023 07:17 13,6 C 15,0 C 82 % 1016,4 hPa 0,0 l/m 1,6 km/h (1 Bft) N-NO 22 0 min 0,7 UV-I 134 W/m 10,6 C 13,6 C 3,2 km/h (1 Bft)
11.06.2023 07:18 13,7 C 15,0 C 82 % 1016,6 hPa 0,0 l/m 3,2 km/h (1 Bft) N-NO 22 0 min 0,7 UV-I 134 W/m 10,7 C 13,7 C 4,8 km/h (1 Bft)
11.06.2023 07:19 13,9 C 15,0 C 82 % 1016,6 hPa 0,0 l/m 3,2 km/h (1 Bft) N-NO 22 0 min 0,7 UV-I 135 W/m 10,9 C 13,9 C 4,8 km/h (1 Bft)
11.06.2023 07:20 13,9 C 15,6 C 82 % 1016,5 hPa 0,0 l/m 1,6 km/h (1 Bft) N-NO 22 0 min 0,7 UV-I 137 W/m 10,9 C 13,9 C 3,2 km/h (1 Bft)
11.06.2023 07:21 14,1 C 15,6 C 82 % 1016,6 hPa 0,0 l/m 1,6 km/h (1 Bft) N-NO 22 0 min 0,7 UV-I 139 W/m 11,1 C 14,1 C 3,2 km/h (1 Bft)
11.06.2023 07:22 14,2 C 15,6 C 81 % 1016,6 hPa 0,0 l/m 1,6 km/h (1 Bft) N-NO 22 0 min 0,7 UV-I 142 W/m 11,0 C 14,2 C 1,6 km/h (1 Bft)
11.06.2023 07:23 14,3 C 15,6 C 81 % 1016,6 hPa 0,0 l/m 0,0 km/h (0 Bft) N-NO 22 0 min 0,7 UV-I 146 W/m 11,1 C 14,3 C 1,6 km/h (1 Bft)
11.06.2023 07:24 14,4 C 16,1 C 82 % 1016,5 hPa 0,0 l/m 3,2 km/h (1 Bft) N-NO 22 1 min 0,7 UV-I 152 W/m 11,4 C 14,4 C 3,2 km/h (1 Bft)
11.06.2023 07:25 14,7 C 16,1 C 82 % 1016,7 hPa 0,0 l/m 3,2 km/h (1 Bft) N-NO 22 1 min 0,7 UV-I 160 W/m 11,7 C 14,7 C 4,8 km/h (1 Bft)
11.06.2023 07:26 14,8 C 16,1 C 82 % 1016,5 hPa 0,0 l/m 3,2 km/h (1 Bft) N-NO 22 1 min 0,8 UV-I 160 W/m 11,8 C 14,8 C 3,2 km/h (1 Bft)
11.06.2023 07:27 14,9 C 16,1 C 82 % 1016,5 hPa 0,0 l/m 0,0 km/h (0 Bft) N-NO 22 1 min 0,8 UV-I 169 W/m 11,9 C 14,9 C 1,6 km/h (1 Bft)
11.06.2023 07:28 14,9 C 16,1 C 81 % 1016,6 hPa 0,0 l/m 1,6 km/h (1 Bft) N-NO 22 1 min 0,8 UV-I 174 W/m 11,7 C 14,9 C 1,6 km/h (1 Bft)
11.06.2023 07:29 15,0 C 16,1 C 81 % 1016,5 hPa 0,0 l/m 1,6 km/h (1 Bft) N-NO 22 1 min 0,8 UV-I 179 W/m 11,8 C 15,0 C 4,8 km/h (1 Bft)
11.06.2023 07:30 15,2 C 16,7 C 81 % 1016,6 hPa 0,0 l/m 3,2 km/h (1 Bft) N-NO 22 1 min 0,8 UV-I 187 W/m 12,0 C 15,2 C 4,8 km/h (1 Bft)
11.06.2023 07:31 15,3 C 16,7 C 82 % 1016,6 hPa 0,0 l/m 4,8 km/h (1 Bft) N-NO 22 1 min 0,8 UV-I 190 W/m 12,2 C 15,3 C 8,0 km/h (2 Bft)
11.06.2023 07:32 15,6 C 16,7 C 82 % 1016,6 hPa 0,0 l/m 4,8 km/h (1 Bft) N-NO 22 1 min 0,8 UV-I 193 W/m 12,5 C 15,6 C 8,0 km/h (2 Bft)
11.06.2023 07:33 15,7 C 17,2 C 82 % 1016,6 hPa 0,0 l/m 3,2 km/h (1 Bft) N-NO 22 1 min 0,9 UV-I 197 W/m 12,6 C 15,7 C 4,8 km/h (1 Bft)
11.06.2023 07:34 15,8 C 17,2 C 80 % 1016,6 hPa 0,0 l/m 3,2 km/h (1 Bft) N-NO 22 1 min 0,9 UV-I 199 W/m 12,4 C 15,8 C 6,4 km/h (2 Bft)
11.06.2023 07:35 15,8 C 17,2 C 80 % 1016,5 hPa 0,0 l/m 3,2 km/h (1 Bft) N-NO 22 1 min 0,9 UV-I 202 W/m 12,4 C 15,8 C 4,8 km/h (1 Bft)
11.06.2023 07:36 15,9 C 17,2 C 80 % 1016,6 hPa 0,0 l/m 3,2 km/h (1 Bft) N-NO 22 1 min 0,9 UV-I 205 W/m 12,5 C 15,9 C 4,8 km/h (1 Bft)
11.06.2023 07:37 15,9 C 17,2 C 80 % 1016,6 hPa 0,0 l/m 4,8 km/h (1 Bft) N-NO 22 1 min 0,9 UV-I 209 W/m 12,5 C 15,9 C 6,4 km/h (2 Bft)
11.06.2023 07:38 16,1 C 17,2 C 80 % 1016,7 hPa 0,0 l/m 4,8 km/h (1 Bft) N-NO 22 1 min 0,9 UV-I 211 W/m 12,6 C 16,1 C 6,4 km/h (2 Bft)
11.06.2023 07:39 16,2 C 17,2 C 80 % 1016,6 hPa 0,0 l/m 4,8 km/h (1 Bft) N-NO 22 1 min 0,9 UV-I 213 W/m 12,7 C 16,2 C 6,4 km/h (2 Bft)
11.06.2023 07:40 16,2 C 17,8 C 79 % 1016,6 hPa 0,0 l/m 4,8 km/h (1 Bft) N-NO 22 1 min 0,9 UV-I 216 W/m 12,6 C 16,2 C 4,8 km/h (1 Bft)
11.06.2023 07:41 16,3 C 17,8 C 79 % 1016,6 hPa 0,0 l/m 4,8 km/h (1 Bft) N-NO 22 1 min 1,0 UV-I 218 W/m 12,6 C 16,3 C 6,4 km/h (2 Bft)
11.06.2023 07:42 16,4 C 17,8 C 80 % 1016,7 hPa 0,0 l/m 4,8 km/h (1 Bft) N-NO 22 1 min 1,0 UV-I 222 W/m 12,9 C 16,4 C 4,8 km/h (1 Bft)
11.06.2023 07:43 16,6 C 17,8 C 79 % 1016,6 hPa 0,0 l/m 4,8 km/h (1 Bft) N 360 1 min 1,0 UV-I 225 W/m 12,9 C 16,6 C 8,0 km/h (2 Bft)
11.06.2023 07:44 16,6 C 17,8 C 79 % 1016,7 hPa 0,0 l/m 3,2 km/h (1 Bft) N 360 1 min 1,0 UV-I 225 W/m 12,9 C 16,6 C 4,8 km/h (1 Bft)
11.06.2023 07:45 16,7 C 18,3 C 78 % 1016,7 hPa 0,0 l/m 1,6 km/h (1 Bft) N 360 1 min 1,0 UV-I 229 W/m 12,8 C 16,7 C 3,2 km/h (1 Bft)
11.06.2023 07:46 16,8 C 17,8 C 78 % 1016,7 hPa 0,0 l/m 3,2 km/h (1 Bft) N 360 1 min 1,0 UV-I 230 W/m 12,9 C 16,8 C 4,8 km/h (1 Bft)
11.06.2023 07:47 16,8 C 17,8 C 77 % 1016,7 hPa 0,0 l/m 4,8 km/h (1 Bft) N 360 1 min 1,0 UV-I 234 W/m 12,7 C 16,8 C 6,4 km/h (2 Bft)
11.06.2023 07:48 16,9 C 17,8 C 78 % 1016,7 hPa 0,0 l/m 4,8 km/h (1 Bft) N-NO 22 1 min 1,0 UV-I 237 W/m 13,0 C 16,9 C 8,0 km/h (2 Bft)
11.06.2023 07:49 17,0 C 17,8 C 77 % 1016,8 hPa 0,0 l/m 4,8 km/h (1 Bft) N-NO 22 1 min 1,1 UV-I 239 W/m 12,9 C 17,0 C 6,4 km/h (2 Bft)
11.06.2023 07:50 17,1 C 18,3 C 77 % 1016,7 hPa 0,0 l/m 4,8 km/h (1 Bft) N-NO 22 1 min 1,1 UV-I 241 W/m 13,0 C 17,1 C 6,4 km/h (2 Bft)
11.06.2023 07:51 17,2 C 18,3 C 77 % 1016,7 hPa 0,0 l/m 3,2 km/h (1 Bft) N-NO 22 1 min 1,1 UV-I 244 W/m 13,1 C 17,2 C 4,8 km/h (1 Bft)
11.06.2023 07:52 17,3 C 18,3 C 77 % 1016,7 hPa 0,0 l/m 3,2 km/h (1 Bft) N-NO 22 1 min 1,1 UV-I 246 W/m 13,2 C 17,3 C 4,8 km/h (1 Bft)
11.06.2023 07:53 17,4 C 18,3 C 77 % 1016,8 hPa 0,0 l/m 4,8 km/h (1 Bft) N-NO 22 1 min 1,1 UV-I 248 W/m 13,3 C 17,4 C 6,4 km/h (2 Bft)
11.06.2023 07:54 17,4 C 18,3 C 76 % 1016,8 hPa 0,0 l/m 3,2 km/h (1 Bft) N-NO 22 1 min 1,1 UV-I 251 W/m 13,1 C 17,4 C 4,8 km/h (1 Bft)
11.06.2023 07:55 17,6 C 18,3 C 77 % 1016,7 hPa 0,0 l/m 3,2 km/h (1 Bft) N-NO 22 1 min 1,2 UV-I 253 W/m 13,5 C 17,6 C 4,8 km/h (1 Bft)
11.06.2023 07:56 17,7 C 18,3 C 77 % 1016,7 hPa 0,0 l/m 3,2 km/h (1 Bft) N-NO 22 1 min 1,2 UV-I 255 W/m 13,6 C 17,7 C 4,8 km/h (1 Bft)
11.06.2023 07:57 17,7 C 18,3 C 76 % 1016,8 hPa 0,0 l/m 3,2 km/h (1 Bft) N-NO 22 1 min 1,2 UV-I 258 W/m 13,4 C 17,7 C 4,8 km/h (1 Bft)
11.06.2023 07:58 17,8 C 18,3 C 75 % 1016,7 hPa 0,0 l/m 3,2 km/h (1 Bft) N-NO 22 1 min 1,2 UV-I 260 W/m 13,3 C 17,8 C 4,8 km/h (1 Bft)
11.06.2023 07:59 17,8 C 18,9 C 76 % 1016,7 hPa 0,0 l/m 3,2 km/h (1 Bft) N-NO 22 1 min 1,2 UV-I 263 W/m 13,5 C 17,8 C 3,2 km/h (1 Bft)
11.06.2023 08:00 17,8 C 18,9 C 75 % 1016,8 hPa 0,0 l/m 3,2 km/h (1 Bft) N-NO 22 1 min 1,2 UV-I 265 W/m 13,3 C 17,8 C 3,2 km/h (1 Bft)
11.06.2023 08:01 17,9 C 18,9 C 75 % 1016,8 hPa 0,0 l/m 3,2 km/h (1 Bft) N-NO 22 1 min 1,2 UV-I 269 W/m 13,4 C 17,9 C 6,4 km/h (2 Bft)
11.06.2023 08:02 17,9 C 18,9 C 75 % 1016,8 hPa 0,0 l/m 4,8 km/h (1 Bft) N-NO 22 1 min 1,3 UV-I 269 W/m 13,4 C 17,9 C 6,4 km/h (2 Bft)
11.06.2023 08:03 17,9 C 18,9 C 75 % 1016,8 hPa 0,0 l/m 1,6 km/h (1 Bft) N-NO 22 1 min 1,3 UV-I 274 W/m 13,4 C 17,9 C 3,2 km/h (1 Bft)
11.06.2023 08:04 18,0 C 18,9 C 75 % 1016,8 hPa 0,0 l/m 3,2 km/h (1 Bft) N-NO 22 1 min 1,3 UV-I 276 W/m 13,5 C 18,0 C 6,4 km/h (2 Bft)
11.06.2023 08:05 18,1 C 18,9 C 75 % 1016,8 hPa 0,0 l/m 3,2 km/h (1 Bft) N-NO 22 1 min 1,3 UV-I 276 W/m 13,6 C 18,1 C 4,8 km/h (1 Bft)
11.06.2023 08:06 18,1 C 18,9 C 75 % 1016,9 hPa 0,0 l/m 4,8 km/h (1 Bft) N-NO 22 1 min 1,3 UV-I 278 W/m 13,6 C 18,1 C 4,8 km/h (1 Bft)
11.06.2023 08:07 18,2 C 18,9 C 74 % 1016,8 hPa 0,0 l/m 3,2 km/h (1 Bft) N-NO 22 1 min 1,3 UV-I 279 W/m 13,5 C 18,2 C 4,8 km/h (1 Bft)
11.06.2023 08:08 18,2 C 19,4 C 75 % 1016,8 hPa 0,0 l/m 3,2 km/h (1 Bft) N-NO 22 1 min 1,3 UV-I 283 W/m 13,7 C 18,2 C 4,8 km/h (1 Bft)
11.06.2023 08:09 18,3 C 19,4 C 75 % 1016,9 hPa 0,0 l/m 3,2 km/h (1 Bft) N-NO 22 1 min 1,3 UV-I 288 W/m 13,8 C 18,3 C 4,8 km/h (1 Bft)
11.06.2023 08:10 18,3 C 19,4 C 75 % 1016,8 hPa 0,0 l/m 3,2 km/h (1 Bft) N-NO 22 1 min 1,4 UV-I 292 W/m 13,8 C 18,3 C 4,8 km/h (1 Bft)
11.06.2023 08:11 18,4 C 19,4 C 74 % 1016,8 hPa 0,0 l/m 6,4 km/h (2 Bft) N-NO 22 1 min 1,4 UV-I 296 W/m 13,7 C 18,4 C 9,7 km/h (2 Bft)
11.06.2023 08:12 18,4 C 19,4 C 74 % 1016,9 hPa 0,0 l/m 4,8 km/h (1 Bft) N-NO 22 1 min 1,4 UV-I 299 W/m 13,7 C 18,4 C 9,7 km/h (2 Bft)
11.06.2023 08:13 18,5 C 18,9 C 74 % 1016,9 hPa 0,0 l/m 6,4 km/h (2 Bft) N-NO 22 1 min 1,4 UV-I 302 W/m 13,8 C 18,5 C 8,0 km/h (2 Bft)
11.06.2023 08:14 18,6 C 18,9 C 74 % 1016,9 hPa 0,0 l/m 6,4 km/h (2 Bft) NO 45 1 min 1,4 UV-I 304 W/m 13,9 C 18,6 C 8,0 km/h (2 Bft)
11.06.2023 08:15 18,6 C 18,9 C 73 % 1016,9 hPa 0,0 l/m 6,4 km/h (2 Bft) NO 45 1 min 1,4 UV-I 308 W/m 13,7 C 18,6 C 6,4 km/h (2 Bft)
11.06.2023 08:16 18,7 C 18,9 C 74 % 1016,9 hPa 0,0 l/m 3,2 km/h (1 Bft) NO 45 1 min 1,5 UV-I 308 W/m 14,0 C 18,7 C 4,8 km/h (1 Bft)
11.06.2023 08:17 18,7 C 18,9 C 74 % 1016,9 hPa 0,0 l/m 3,2 km/h (1 Bft) NO 45 1 min 1,5 UV-I 312 W/m 14,0 C 18,7 C 4,8 km/h (1 Bft)
11.06.2023 08:18 18,8 C 18,9 C 74 % 1017,0 hPa 0,0 l/m 4,8 km/h (1 Bft) NO 45 1 min 1,5 UV-I 315 W/m 14,1 C 18,8 C 8,0 km/h (2 Bft)
11.06.2023 08:19 18,9 C 18,9 C 73 % 1016,9 hPa 0,0 l/m 4,8 km/h (1 Bft) NO 45 1 min 1,5 UV-I 318 W/m 13,9 C 18,9 C 8,0 km/h (2 Bft)
11.06.2023 08:20 18,9 C 18,9 C 73 % 1016,9 hPa 0,0 l/m 3,2 km/h (1 Bft) NO 45 1 min 1,5 UV-I 320 W/m 13,9 C 18,9 C 4,8 km/h (1 Bft)
11.06.2023 08:21 19,0 C 18,9 C 73 % 1016,9 hPa 0,0 l/m 6,4 km/h (2 Bft) NO 45 1 min 1,5 UV-I 322 W/m 14,0 C 19,0 C 9,7 km/h (2 Bft)
11.06.2023 08:22 19,0 C 18,9 C 73 % 1016,9 hPa 0,0 l/m 6,4 km/h (2 Bft) N-NO 22 1 min 1,5 UV-I 323 W/m 14,0 C 19,0 C 9,7 km/h (2 Bft)
11.06.2023 08:23 19,1 C 18,9 C 72 % 1017,0 hPa 0,0 l/m 4,8 km/h (1 Bft) N-NO 22 1 min 1,6 UV-I 328 W/m 13,9 C 19,1 C 6,4 km/h (2 Bft)
11.06.2023 08:24 19,1 C 18,9 C 73 % 1017,0 hPa 0,0 l/m 6,4 km/h (2 Bft) N-NO 22 1 min 1,6 UV-I 329 W/m 14,1 C 19,1 C 8,0 km/h (2 Bft)
11.06.2023 08:25 19,1 C 18,9 C 73 % 1016,9 hPa 0,0 l/m 4,8 km/h (1 Bft) N-NO 22 1 min 1,6 UV-I 332 W/m 14,1 C 19,1 C 6,4 km/h (2 Bft)
11.06.2023 08:26 19,2 C 18,9 C 72 % 1017,0 hPa 0,0 l/m 3,2 km/h (1 Bft) N-NO 22 1 min 1,6 UV-I 336 W/m 14,0 C 19,2 C 4,8 km/h (1 Bft)
11.06.2023 08:27 19,3 C 19,4 C 72 % 1017,0 hPa 0,0 l/m 6,4 km/h (2 Bft) N-NO 22 1 min 1,6 UV-I 338 W/m 14,1 C 19,3 C 8,0 km/h (2 Bft)
11.06.2023 08:28 19,3 C 19,4 C 72 % 1017,0 hPa 0,0 l/m 3,2 km/h (1 Bft) N-NO 22 1 min 1,7 UV-I 339 W/m 14,1 C 19,3 C 6,4 km/h (2 Bft)
11.06.2023 08:29 19,3 C 19,4 C 72 % 1017,0 hPa 0,0 l/m 1,6 km/h (1 Bft) N-NO 22 1 min 1,7 UV-I 342 W/m 14,1 C 19,3 C 3,2 km/h (1 Bft)
11.06.2023 08:30 19,3 C 19,4 C 72 % 1017,0 hPa 0,0 l/m 3,2 km/h (1 Bft) N-NO 22 1 min 1,7 UV-I 346 W/m 14,1 C 19,3 C 4,8 km/h (1 Bft)
11.06.2023 08:31 19,4 C 19,4 C 72 % 1017,0 hPa 0,0 l/m 3,2 km/h (1 Bft) N-NO 22 1 min 1,7 UV-I 348 W/m 14,2 C 19,4 C 4,8 km/h (1 Bft)
11.06.2023 08:32 19,4 C 19,4 C 72 % 1017,0 hPa 0,0 l/m 3,2 km/h (1 Bft) N-NO 22 1 min 1,7 UV-I 350 W/m 14,2 C 19,4 C 3,2 km/h (1 Bft)
11.06.2023 08:33 19,6 C 19,4 C 71 % 1017,0 hPa 0,0 l/m 3,2 km/h (1 Bft) N-NO 22 1 min 1,7 UV-I 352 W/m 14,2 C 19,6 C 3,2 km/h (1 Bft)
11.06.2023 08:34 19,6 C 20,0 C 71 % 1017,0 hPa 0,0 l/m 1,6 km/h (1 Bft) N-NO 22 1 min 1,8 UV-I 355 W/m 14,2 C 19,6 C 3,2 km/h (1 Bft)
11.06.2023 08:35 19,6 C 20,0 C 70 % 1016,9 hPa 0,0 l/m 4,8 km/h (1 Bft) S-SO 157 1 min 1,8 UV-I 358 W/m 14,0 C 19,6 C 8,0 km/h (2 Bft)
11.06.2023 08:36 19,6 C 20,0 C 71 % 1017,0 hPa 0,0 l/m 4,8 km/h (1 Bft) NO 45 1 min 1,8 UV-I 360 W/m 14,2 C 19,6 C 8,0 km/h (2 Bft)
11.06.2023 08:37 19,8 C 20,0 C 72 % 1017,0 hPa 0,0 l/m 6,4 km/h (2 Bft) NO 45 1 min 1,8 UV-I 364 W/m 14,6 C 19,8 C 8,0 km/h (2 Bft)
11.06.2023 08:38 19,8 C 20,0 C 71 % 1017,0 hPa 0,0 l/m 4,8 km/h (1 Bft) NO 45 1 min 1,8 UV-I 366 W/m 14,4 C 19,8 C 8,0 km/h (2 Bft)
11.06.2023 08:39 19,9 C 20,0 C 71 % 1017,0 hPa 0,0 l/m 3,2 km/h (1 Bft) NO 45 1 min 1,9 UV-I 369 W/m 14,5 C 19,9 C 4,8 km/h (1 Bft)
11.06.2023 08:40 19,9 C 20,0 C 70 % 1016,9 hPa 0,0 l/m 1,6 km/h (1 Bft) O 90 1 min 1,9 UV-I 372 W/m 14,3 C 19,9 C 3,2 km/h (1 Bft)
11.06.2023 08:41 20,0 C 20,6 C 70 % 1017,0 hPa 0,0 l/m 6,4 km/h (2 Bft) O-SO 112 1 min 1,9 UV-I 376 W/m 14,4 C 20,0 C 12,9 km/h (3 Bft)
11.06.2023 08:42 20,0 C 20,6 C 69 % 1017,0 hPa 0,0 l/m 4,8 km/h (1 Bft) O-SO 112 1 min 1,9 UV-I 378 W/m 14,1 C 20,0 C 12,9 km/h (3 Bft)
11.06.2023 08:43 20,1 C 20,6 C 70 % 1017,0 hPa 0,0 l/m 6,4 km/h (2 Bft) O-NO 67 1 min 1,9 UV-I 380 W/m 14,5 C 20,1 C 9,7 km/h (2 Bft)
11.06.2023 08:44 20,2 C 20,6 C 69 % 1016,9 hPa 0,0 l/m 4,8 km/h (1 Bft) O-NO 67 1 min 2,0 UV-I 381 W/m 14,3 C 20,2 C 6,4 km/h (2 Bft)
11.06.2023 08:45 20,3 C 20,6 C 69 % 1016,9 hPa 0,0 l/m 6,4 km/h (2 Bft) O-SO 112 1 min 2,0 UV-I 385 W/m 14,4 C 20,3 C 9,7 km/h (2 Bft)
11.06.2023 08:46 20,4 C 21,1 C 68 % 1016,9 hPa 0,0 l/m 12,9 km/h (3 Bft) O-NO 67 1 min 2,0 UV-I 388 W/m 14,3 C 18,2 C 17,7 km/h (3 Bft)
11.06.2023 08:47 20,4 C 21,1 C 67 % 1016,9 hPa 0,0 l/m 11,3 km/h (2 Bft) O-NO 67 1 min 2,0 UV-I 390 W/m 14,1 C 18,7 C 19,3 km/h (3 Bft)
11.06.2023 08:48 20,4 C 21,1 C 67 % 1017,0 hPa 0,0 l/m 12,9 km/h (3 Bft) O-NO 67 1 min 2,0 UV-I 392 W/m 14,1 C 18,2 C 20,9 km/h (4 Bft)
11.06.2023 08:49 20,4 C 21,1 C 67 % 1017,0 hPa 0,0 l/m 14,5 km/h (3 Bft) O-NO 67 1 min 2,0 UV-I 396 W/m 14,1 C 17,9 C 20,9 km/h (4 Bft)
11.06.2023 08:50 20,4 C 21,1 C 67 % 1017,0 hPa 0,0 l/m 11,3 km/h (2 Bft) O 90 1 min 2,0 UV-I 396 W/m 14,1 C 18,7 C 16,1 km/h (3 Bft)
11.06.2023 08:51 20,4 C 21,1 C 67 % 1017,1 hPa 0,0 l/m 8,0 km/h (2 Bft) O 90 1 min 2,1 UV-I 399 W/m 14,1 C 19,8 C 9,7 km/h (2 Bft)
11.06.2023 08:52 20,3 C 20,6 C 66 % 1017,0 hPa 0,0 l/m 4,8 km/h (1 Bft) O-SO 112 1 min 2,1 UV-I 402 W/m 13,7 C 20,3 C 11,3 km/h (2 Bft)
11.06.2023 08:53 20,4 C 21,1 C 68 % 1017,0 hPa 0,0 l/m 3,2 km/h (1 Bft) O 90 1 min 2,1 UV-I 404 W/m 14,3 C 20,4 C 6,4 km/h (2 Bft)
11.06.2023 08:54 20,4 C 21,1 C 68 % 1017,0 hPa 0,0 l/m 8,0 km/h (2 Bft) O-NO 67 1 min 2,1 UV-I 408 W/m 14,3 C 19,8 C 14,5 km/h (3 Bft)
11.06.2023 08:55 20,6 C 21,1 C 68 % 1017,1 hPa 0,0 l/m 8,0 km/h (2 Bft) O-NO 67 1 min 2,1 UV-I 410 W/m 14,5 C 20,0 C 12,9 km/h (3 Bft)
11.06.2023 08:56 20,6 C 21,1 C 67 % 1017,1 hPa 0,0 l/m 8,0 km/h (2 Bft) O-NO 67 1 min 2,2 UV-I 411 W/m 14,3 C 20,0 C 12,9 km/h (3 Bft)
11.06.2023 08:57 20,7 C 21,1 C 66 % 1017,0 hPa 0,0 l/m 11,3 km/h (2 Bft) O 90 1 min 2,2 UV-I 413 W/m 14,1 C 19,0 C 12,9 km/h (3 Bft)
11.06.2023 08:58 20,7 C 21,1 C 66 % 1017,1 hPa 0,0 l/m 3,2 km/h (1 Bft) O-NO 67 1 min 2,2 UV-I 417 W/m 14,1 C 20,7 C 6,4 km/h (2 Bft)
11.06.2023 08:59 20,7 C 21,1 C 67 % 1017,0 hPa 0,0 l/m 4,8 km/h (1 Bft) O-NO 67 1 min 2,2 UV-I 420 W/m 14,3 C 20,7 C 11,3 km/h (2 Bft)
11.06.2023 09:00 20,7 C 21,1 C 67 % 1017,1 hPa 0,0 l/m 9,7 km/h (2 Bft) O 90 1 min 2,2 UV-I 422 W/m 14,3 C 19,5 C 14,5 km/h (3 Bft)
11.06.2023 09:01 20,7 C 21,1 C 66 % 1017,1 hPa 0,0 l/m 6,4 km/h (2 Bft) O-NO 67 1 min 2,2 UV-I 424 W/m 14,1 C 20,7 C 11,3 km/h (2 Bft)
11.06.2023 09:02 20,7 C 21,1 C 66 % 1017,1 hPa 0,0 l/m 9,7 km/h (2 Bft) O 90 1 min 2,3 UV-I 427 W/m 14,1 C 19,5 C 12,9 km/h (3 Bft)
11.06.2023 09:03 20,7 C 21,1 C 65 % 1017,1 hPa 0,0 l/m 9,7 km/h (2 Bft) O-SO 112 1 min 2,3 UV-I 431 W/m 13,9 C 19,5 C 14,5 km/h (3 Bft)
11.06.2023 09:04 20,7 C 20,6 C 65 % 1017,1 hPa 0,0 l/m 8,0 km/h (2 Bft) SO 135 1 min 2,3 UV-I 434 W/m 13,9 C 20,1 C 11,3 km/h (2 Bft)
11.06.2023 09:05 20,6 C 20,6 C 64 % 1017,0 hPa 0,0 l/m 6,4 km/h (2 Bft) O-SO 112 1 min 2,3 UV-I 438 W/m 13,5 C 20,6 C 9,7 km/h (2 Bft)
11.06.2023 09:06 20,5 C 20,6 C 65 % 1017,0 hPa 0,0 l/m 12,9 km/h (3 Bft) O-SO 112 1 min 2,3 UV-I 439 W/m 13,7 C 18,4 C 17,7 km/h (3 Bft)
11.06.2023 09:07 20,4 C 20,0 C 65 % 1017,1 hPa 0,0 l/m 12,9 km/h (3 Bft) O-SO 112 1 min 2,4 UV-I 443 W/m 13,6 C 18,2 C 19,3 km/h (3 Bft)
11.06.2023 09:08 20,4 C 20,0 C 67 % 1017,1 hPa 0,0 l/m 6,4 km/h (2 Bft) O 90 1 min 2,4 UV-I 445 W/m 14,1 C 20,4 C 12,9 km/h (3 Bft)
11.06.2023 09:09 20,5 C 20,6 C 66 % 1017,1 hPa 0,0 l/m 9,7 km/h (2 Bft) SO 135 1 min 2,4 UV-I 446 W/m 13,9 C 19,3 C 12,9 km/h (3 Bft)
11.06.2023 09:10 20,7 C 20,6 C 66 % 1017,1 hPa 0,0 l/m 8,0 km/h (2 Bft) O-SO 112 1 min 2,4 UV-I 449 W/m 14,1 C 20,1 C 11,3 km/h (2 Bft)
11.06.2023 09:11 20,7 C 20,6 C 65 % 1017,1 hPa 0,0 l/m 11,3 km/h (2 Bft) O 90 1 min 2,4 UV-I 454 W/m 13,9 C 19,0 C 19,3 km/h (3 Bft)
11.06.2023 09:12 20,7 C 20,6 C 65 % 1017,2 hPa 0,0 l/m 14,5 km/h (3 Bft) O-SO 112 1 min 2,4 UV-I 455 W/m 13,9 C 18,2 C 16,1 km/h (3 Bft)
11.06.2023 09:13 20,7 C 20,6 C 65 % 1017,2 hPa 0,0 l/m 8,0 km/h (2 Bft) O-SO 112 1 min 2,5 UV-I 457 W/m 13,9 C 20,1 C 14,5 km/h (3 Bft)
11.06.2023 09:14 20,7 C 20,6 C 65 % 1017,2 hPa 0,0 l/m 11,3 km/h (2 Bft) O 90 1 min 2,5 UV-I 459 W/m 13,9 C 19,0 C 16,1 km/h (3 Bft)
11.06.2023 09:15 20,7 C 20,6 C 65 % 1017,0 hPa 0,0 l/m 9,7 km/h (2 Bft) O-SO 112 1 min 2,5 UV-I 461 W/m 13,9 C 19,5 C 14,5 km/h (3 Bft)
11.06.2023 09:16 20,7 C 20,6 C 64 % 1017,1 hPa 0,0 l/m 14,5 km/h (3 Bft) O 90 1 min 2,5 UV-I 463 W/m 13,6 C 18,2 C 19,3 km/h (3 Bft)
11.06.2023 09:17 20,7 C 20,6 C 64 % 1017,1 hPa 0,0 l/m 12,9 km/h (3 Bft) O-SO 112 1 min 2,5 UV-I 466 W/m 13,6 C 18,6 C 19,3 km/h (3 Bft)
11.06.2023 09:18 20,7 C 21,1 C 64 % 1017,1 hPa 0,0 l/m 14,5 km/h (3 Bft) O 90 1 min 2,6 UV-I 469 W/m 13,6 C 18,2 C 17,7 km/h (3 Bft)
11.06.2023 09:19 20,8 C 21,1 C 64 % 1017,2 hPa 0,0 l/m 14,5 km/h (3 Bft) O 90 1 min 2,6 UV-I 471 W/m 13,7 C 18,3 C 20,9 km/h (4 Bft)
11.06.2023 09:20 20,8 C 21,1 C 64 % 1017,1 hPa 0,0 l/m 16,1 km/h (3 Bft) O 90 1 min 2,6 UV-I 475 W/m 13,7 C 18,0 C 20,9 km/h (4 Bft)
11.06.2023 09:21 20,8 C 21,1 C 64 % 1017,2 hPa 0,0 l/m 9,7 km/h (2 Bft) O 90 1 min 2,6 UV-I 477 W/m 13,7 C 19,6 C 14,5 km/h (3 Bft)
11.06.2023 09:22 20,8 C 21,1 C 64 % 1017,1 hPa 0,0 l/m 11,3 km/h (2 Bft) O 90 1 min 2,6 UV-I 480 W/m 13,7 C 19,1 C 17,7 km/h (3 Bft)
11.06.2023 09:23 20,9 C 21,1 C 64 % 1017,1 hPa 0,0 l/m 9,7 km/h (2 Bft) O 90 1 min 2,7 UV-I 483 W/m 13,8 C 19,7 C 12,9 km/h (3 Bft)
11.06.2023 09:24 21,0 C 21,7 C 65 % 1017,0 hPa 0,0 l/m 16,1 km/h (3 Bft) O 90 1 min 2,7 UV-I 483 W/m 14,2 C 18,2 C 24,1 km/h (4 Bft)
11.06.2023 09:25 21,1 C 21,7 C 63 % 1017,1 hPa 0,0 l/m 16,1 km/h (3 Bft) O 90 1 min 2,7 UV-I 485 W/m 13,8 C 18,4 C 24,1 km/h (4 Bft)
11.06.2023 09:26 21,1 C 21,7 C 63 % 1017,0 hPa 0,0 l/m 16,1 km/h (3 Bft) O 90 1 min 2,7 UV-I 487 W/m 13,8 C 18,4 C 20,9 km/h (4 Bft)
11.06.2023 09:27 21,1 C 21,7 C 63 % 1016,9 hPa 0,0 l/m 9,7 km/h (2 Bft) O 90 1 min 2,7 UV-I 491 W/m 13,8 C 19,9 C 14,5 km/h (3 Bft)
11.06.2023 09:28 21,1 C 21,7 C 63 % 1017,0 hPa 0,0 l/m 12,9 km/h (3 Bft) O 90 1 min 2,8 UV-I 494 W/m 13,8 C 19,1 C 16,1 km/h (3 Bft)
11.06.2023 09:29 21,1 C 21,7 C 63 % 1017,1 hPa 0,0 l/m 8,0 km/h (2 Bft) O-SO 112 1 min 2,8 UV-I 496 W/m 13,8 C 20,5 C 12,9 km/h (3 Bft)
11.06.2023 09:30 21,2 C 21,7 C 64 % 1017,0 hPa 0,0 l/m 6,4 km/h (2 Bft) O-SO 112 1 min 2,8 UV-I 499 W/m 14,1 C 21,2 C 14,5 km/h (3 Bft)
11.06.2023 09:31 21,2 C 21,1 C 62 % 1017,1 hPa 0,0 l/m 11,3 km/h (2 Bft) O-SO 112 1 min 2,8 UV-I 501 W/m 13,6 C 19,6 C 16,1 km/h (3 Bft)
11.06.2023 09:32 21,2 C 21,1 C 62 % 1017,1 hPa 0,0 l/m 11,3 km/h (2 Bft) O 90 1 min 2,8 UV-I 503 W/m 13,6 C 19,6 C 16,1 km/h (3 Bft)
11.06.2023 09:33 21,2 C 21,1 C 63 % 1017,1 hPa 0,0 l/m 6,4 km/h (2 Bft) O 90 1 min 2,9 UV-I 505 W/m 13,9 C 21,2 C 9,7 km/h (2 Bft)
11.06.2023 09:34 21,3 C 21,1 C 63 % 1017,1 hPa 0,0 l/m 3,2 km/h (1 Bft) O-SO 112 1 min 2,9 UV-I 508 W/m 14,0 C 21,3 C 6,4 km/h (2 Bft)
11.06.2023 09:35 21,4 C 21,7 C 64 % 1017,1 hPa 0,0 l/m 3,2 km/h (1 Bft) O-SO 112 1 min 2,9 UV-I 510 W/m 14,3 C 21,4 C 4,8 km/h (1 Bft)
11.06.2023 09:36 21,7 C 21,7 C 65 % 1017,1 hPa 0,0 l/m 6,4 km/h (2 Bft) O-NO 67 1 min 2,9 UV-I 512 W/m 14,8 C 21,7 C 9,7 km/h (2 Bft)
11.06.2023 09:37 21,8 C 21,7 C 62 % 1017,0 hPa 0,0 l/m 11,3 km/h (2 Bft) O-NO 67 1 min 3,0 UV-I 513 W/m 14,2 C 20,3 C 17,7 km/h (3 Bft)
11.06.2023 09:38 21,8 C 21,7 C 62 % 1017,0 hPa 0,0 l/m 12,9 km/h (3 Bft) O-NO 67 1 min 3,0 UV-I 513 W/m 14,2 C 19,9 C 17,7 km/h (3 Bft)
11.06.2023 09:39 21,8 C 21,7 C 62 % 1017,0 hPa 0,0 l/m 11,3 km/h (2 Bft) N-NO 22 1 min 3,0 UV-I 513 W/m 14,2 C 20,3 C 20,9 km/h (4 Bft)
11.06.2023 09:40 21,9 C 21,7 C 61 % 1017,0 hPa 0,0 l/m 17,7 km/h (3 Bft) O-NO 67 1 min 3,0 UV-I 513 W/m 14,0 C 19,0 C 27,4 km/h (4 Bft)
11.06.2023 09:41 21,8 C 21,7 C 61 % 1017,0 hPa 0,0 l/m 20,9 km/h (4 Bft) O-NO 67 1 min 3,0 UV-I 513 W/m 13,9 C 18,4 C 27,4 km/h (4 Bft)
11.06.2023 09:42 21,7 C 21,7 C 60 % 1017,0 hPa 0,0 l/m 14,5 km/h (3 Bft) O-NO 67 1 min 3,1 UV-I 512 W/m 13,6 C 19,4 C 20,9 km/h (4 Bft)
11.06.2023 09:43 21,7 C 21,7 C 61 % 1017,0 hPa 0,0 l/m 12,9 km/h (3 Bft) O 90 1 min 3,1 UV-I 512 W/m 13,8 C 19,8 C 17,7 km/h (3 Bft)
11.06.2023 09:44 21,7 C 21,7 C 61 % 1017,1 hPa 0,0 l/m 11,3 km/h (2 Bft) O 90 1 min 3,1 UV-I 510 W/m 13,8 C 20,2 C 17,7 km/h (3 Bft)
11.06.2023 09:45 21,7 C 21,7 C 61 % 1017,0 hPa 0,0 l/m 11,3 km/h (2 Bft) O 90 1 min 3,1 UV-I 509 W/m 13,8 C 20,2 C 20,9 km/h (4 Bft)
11.06.2023 09:46 21,6 C 21,1 C 60 % 1017,0 hPa 0,0 l/m 8,0 km/h (2 Bft) O 90 1 min 3,1 UV-I 508 W/m 13,5 C 21,0 C 11,3 km/h (2 Bft)
11.06.2023 09:47 21,7 C 21,1 C 62 % 1017,1 hPa 0,0 l/m 3,2 km/h (1 Bft) O-NO 67 1 min 3,1 UV-I 508 W/m 14,1 C 21,7 C 6,4 km/h (2 Bft)
11.06.2023 09:48 21,8 C 21,7 C 63 % 1017,1 hPa 0,0 l/m 12,9 km/h (3 Bft) O 90 1 min 3,2 UV-I 508 W/m 14,4 C 19,9 C 16,1 km/h (3 Bft)
11.06.2023 09:49 21,9 C 21,7 C 61 % 1017,0 hPa 0,0 l/m 12,9 km/h (3 Bft) O-NO 67 1 min 3,2 UV-I 504 W/m 14,0 C 20,0 C 16,1 km/h (3 Bft)
11.06.2023 09:50 22,0 C 21,7 C 61 % 1017,0 hPa 0,0 l/m 19,3 km/h (3 Bft) O-NO 67 1 min 3,2 UV-I 504 W/m 14,1 C 18,9 C 24,1 km/h (4 Bft)
11.06.2023 09:51 21,9 C 21,7 C 60 % 1017,1 hPa 0,0 l/m 12,9 km/h (3 Bft) O-NO 67 1 min 3,2 UV-I 501 W/m 13,8 C 20,0 C 19,3 km/h (3 Bft)
11.06.2023 09:52 21,9 C 21,7 C 60 % 1017,1 hPa 0,0 l/m 12,9 km/h (3 Bft) O 90 1 min 3,3 UV-I 497 W/m 13,8 C 20,0 C 17,7 km/h (3 Bft)
11.06.2023 09:53 21,9 C 21,7 C 60 % 1017,1 hPa 0,0 l/m 12,9 km/h (3 Bft) O-SO 112 1 min 3,3 UV-I 496 W/m 13,8 C 20,0 C 19,3 km/h (3 Bft)
11.06.2023 09:54 21,9 C 21,7 C 60 % 1017,1 hPa 0,0 l/m 8,0 km/h (2 Bft) O-SO 112 1 min 3,3 UV-I 496 W/m 13,8 C 21,3 C 12,9 km/h (3 Bft)
11.06.2023 09:57 21,9 C 21,7 C 60 % 1017,1 hPa 0,0 l/m 15,5 km/h (3 Bft) O-SO 107 3 min 3,4 UV-I 489 W/m 13,8 C 19,5 C 24,1 km/h (4 Bft)
11.06.2023 10:00 21,9 C 21,7 C 60 % 1017,0 hPa 0,0 l/m 12,2 km/h (2 Bft) O 85 3 min 3,4 UV-I 484 W/m 13,8 C 20,2 C 20,9 km/h (4 Bft)
11.06.2023 10:03 22,1 C 21,7 C 60 % 1017,0 hPa 0,0 l/m 9,6 km/h (2 Bft) SO 134 3 min 3,4 UV-I 477 W/m 14,0 C 21,1 C 19,3 km/h (3 Bft)
11.06.2023 10:06 22,1 C 21,7 C 59 % 1017,2 hPa 0,0 l/m 14,2 km/h (3 Bft) O 94 3 min 3,5 UV-I 473 W/m 13,7 C 20,0 C 20,9 km/h (4 Bft)
11.06.2023 10:09 22,1 C 21,7 C 58 % 1017,1 hPa 0,0 l/m 12,6 km/h (3 Bft) SO 134 3 min 3,6 UV-I 474 W/m 13,4 C 20,3 C 22,5 km/h (4 Bft)
11.06.2023 10:12 22,3 C 22,2 C 59 % 1017,0 hPa 0,0 l/m 10,6 km/h (2 Bft) O-SO 109 3 min 3,6 UV-I 474 W/m 13,9 C 21,0 C 20,9 km/h (4 Bft)
11.06.2023 10:15 22,6 C 22,2 C 59 % 1017,0 hPa 0,0 l/m 10,9 km/h (2 Bft) SO 128 3 min 3,7 UV-I 480 W/m 14,2 C 21,3 C 16,1 km/h (3 Bft)
11.06.2023 10:18 23,1 C 22,2 C 58 % 1017,0 hPa 0,0 l/m 9,9 km/h (2 Bft) O 97 3 min 3,8 UV-I 486 W/m 14,4 C 22,1 C 19,3 km/h (3 Bft)
11.06.2023 10:21 22,9 C 22,2 C 58 % 1016,9 hPa 0,0 l/m 14,0 km/h (3 Bft) O 82 3 min 3,9 UV-I 497 W/m 14,2 C 21,0 C 25,7 km/h (4 Bft)
11.06.2023 10:24 22,7 C 22,2 C 59 % 1016,9 hPa 0,0 l/m 13,1 km/h (3 Bft) O 95 3 min 3,9 UV-I 512 W/m 14,3 C 20,9 C 25,7 km/h (4 Bft)
11.06.2023 10:27 22,6 C 22,2 C 58 % 1017,0 hPa 0,0 l/m 16,8 km/h (3 Bft) O-SO 112 3 min 4,0 UV-I 528 W/m 13,9 C 20,1 C 25,7 km/h (4 Bft)
11.06.2023 10:30 22,6 C 22,2 C 58 % 1016,9 hPa 0,0 l/m 15,6 km/h (3 Bft) O-NO 71 3 min 4,0 UV-I 548 W/m 13,9 C 20,3 C 29,0 km/h (5 Bft)
11.06.2023 10:33 22,6 C 22,2 C 57 % 1017,0 hPa 0,0 l/m 14,5 km/h (3 Bft) O-SO 117 3 min 4,1 UV-I 572 W/m 13,6 C 20,5 C 22,5 km/h (4 Bft)
11.06.2023 10:36 22,7 C 22,8 C 57 % 1017,0 hPa 0,0 l/m 8,3 km/h (2 Bft) O 89 3 min 4,1 UV-I 593 W/m 13,7 C 22,1 C 16,1 km/h (3 Bft)
11.06.2023 10:39 22,8 C 23,3 C 58 % 1017,0 hPa 0,0 l/m 12,0 km/h (2 Bft) O-NO 74 3 min 4,2 UV-I 615 W/m 14,1 C 21,3 C 22,5 km/h (4 Bft)
11.06.2023 10:42 23,1 C 23,9 C 58 % 1016,9 hPa 0,0 l/m 16,8 km/h (3 Bft) O-NO 78 3 min 4,3 UV-I 634 W/m 14,4 C 20,7 C 25,7 km/h (4 Bft)
11.06.2023 10:45 23,1 C 23,9 C 56 % 1016,9 hPa 0,0 l/m 17,4 km/h (3 Bft) NO 51 3 min 4,4 UV-I 654 W/m 13,8 C 20,6 C 25,7 km/h (4 Bft)
11.06.2023 10:48 23,0 C 23,9 C 56 % 1016,9 hPa 0,0 l/m 16,5 km/h (3 Bft) O-NO 77 3 min 4,4 UV-I 668 W/m 13,7 C 20,6 C 25,7 km/h (4 Bft)
11.06.2023 10:51 23,1 C 23,3 C 57 % 1016,9 hPa 0,0 l/m 18,9 km/h (3 Bft) O-SO 106 3 min 4,5 UV-I 674 W/m 14,1 C 20,4 C 27,4 km/h (4 Bft)
11.06.2023 10:54 23,0 C 23,3 C 56 % 1016,9 hPa 0,0 l/m 20,5 km/h (4 Bft) O 94 3 min 4,6 UV-I 686 W/m 13,7 C 20,0 C 30,6 km/h (5 Bft)
11.06.2023 10:57 22,8 C 23,3 C 56 % 1017,1 hPa 0,0 l/m 19,2 km/h (3 Bft) O-NO 63 3 min 4,6 UV-I 693 W/m 13,6 C 19,9 C 27,4 km/h (4 Bft)
11.06.2023 11:00 22,8 C 23,9 C 57 % 1016,9 hPa 0,0 l/m 13,6 km/h (3 Bft) O 87 3 min 4,7 UV-I 699 W/m 13,8 C 20,9 C 25,7 km/h (4 Bft)
11.06.2023 11:03 22,9 C 24,4 C 56 % 1016,9 hPa 0,0 l/m 16,0 km/h (3 Bft) O-NO 72 3 min 4,8 UV-I 707 W/m 13,6 C 20,6 C 25,7 km/h (4 Bft)
11.06.2023 11:06 23,2 C 25,6 C 57 % 1016,7 hPa 0,0 l/m 11,0 km/h (2 Bft) O 82 3 min 4,8 UV-I 712 W/m 14,2 C 21,9 C 16,1 km/h (3 Bft)
11.06.2023 11:09 23,3 C 26,1 C 56 % 1016,8 hPa 0,0 l/m 17,8 km/h (3 Bft) O 93 3 min 4,9 UV-I 713 W/m 14,0 C 20,8 C 27,4 km/h (4 Bft)
11.06.2023 11:12 23,3 C 27,2 C 57 % 1016,7 hPa 0,0 l/m 16,0 km/h (3 Bft) NO 43 3 min 4,9 UV-I 718 W/m 14,3 C 21,1 C 22,5 km/h (4 Bft)
11.06.2023 11:15 23,7 C 27,2 C 56 % 1016,8 hPa 0,0 l/m 17,5 km/h (3 Bft) O 91 3 min 5,0 UV-I 729 W/m 14,4 C 21,3 C 25,7 km/h (4 Bft)
11.06.2023 11:18 24,0 C 28,9 C 55 % 1016,9 hPa 0,0 l/m 12,3 km/h (3 Bft) O-NO 73 3 min 5,1 UV-I 733 W/m 14,4 C 22,6 C 22,5 km/h (4 Bft)
11.06.2023 11:21 23,7 C 27,8 C 54 % 1016,8 hPa 0,0 l/m 16,5 km/h (3 Bft) O-NO 63 3 min 5,1 UV-I 742 W/m 13,8 C 21,5 C 27,4 km/h (4 Bft)
11.06.2023 11:24 23,6 C 27,2 C 55 % 1016,9 hPa 0,0 l/m 12,0 km/h (2 Bft) O 90 3 min 5,2 UV-I 748 W/m 14,0 C 22,2 C 20,9 km/h (4 Bft)
11.06.2023 11:27 23,6 C 27,2 C 55 % 1017,0 hPa 0,0 l/m 14,7 km/h (3 Bft) O 92 3 min 5,2 UV-I 750 W/m 14,0 C 21,7 C 22,5 km/h (4 Bft)
11.06.2023 11:30 23,7 C 28,3 C 56 % 1017,0 hPa 0,0 l/m 10,8 km/h (2 Bft) SO 130 3 min 5,3 UV-I 755 W/m 14,4 C 22,5 C 22,5 km/h (4 Bft)
11.06.2023 11:33 23,6 C 27,8 C 54 % 1017,0 hPa 0,0 l/m 13,7 km/h (3 Bft) SO 140 3 min 5,4 UV-I 761 W/m 13,7 C 21,8 C 22,5 km/h (4 Bft)
11.06.2023 11:36 23,6 C 27,8 C 55 % 1016,9 hPa 0,0 l/m 14,3 km/h (3 Bft) O 98 3 min 5,4 UV-I 766 W/m 14,0 C 21,7 C 24,1 km/h (4 Bft)
11.06.2023 11:39 23,8 C 28,9 C 56 % 1017,0 hPa 0,0 l/m 15,6 km/h (3 Bft) O 93 3 min 5,5 UV-I 774 W/m 14,5 C 21,8 C 29,0 km/h (5 Bft)
11.06.2023 11:42 23,7 C 27,8 C 54 % 1016,9 hPa 0,0 l/m 14,8 km/h (3 Bft) O-SO 109 3 min 5,6 UV-I 776 W/m 13,8 C 21,8 C 24,1 km/h (4 Bft)
11.06.2023 11:45 23,7 C 27,2 C 55 % 1017,0 hPa 0,0 l/m 15,0 km/h (3 Bft) SO 127 3 min 5,6 UV-I 784 W/m 14,1 C 21,7 C 22,5 km/h (4 Bft)
11.06.2023 11:48 23,6 C 27,2 C 56 % 1016,8 hPa 0,0 l/m 15,7 km/h (3 Bft) O 91 3 min 5,6 UV-I 788 W/m 14,3 C 21,5 C 22,5 km/h (4 Bft)
11.06.2023 11:51 23,7 C 27,8 C 56 % 1016,8 hPa 0,0 l/m 11,6 km/h (2 Bft) O 86 3 min 5,6 UV-I 782 W/m 14,4 C 22,4 C 19,3 km/h (3 Bft)
11.06.2023 11:54 23,8 C 27,8 C 56 % 1016,9 hPa 0,0 l/m 13,9 km/h (3 Bft) O 92 3 min 5,7 UV-I 787 W/m 14,5 C 22,0 C 25,7 km/h (4 Bft)
11.06.2023 11:57 24,0 C 28,9 C 55 % 1016,9 hPa 0,0 l/m 10,0 km/h (2 Bft) O-SO 117 3 min 5,7 UV-I 794 W/m 14,4 C 23,1 C 17,7 km/h (3 Bft)
11.06.2023 12:00 24,2 C 30,0 C 56 % 1016,9 hPa 0,0 l/m 9,1 km/h (2 Bft) O-SO 113 3 min 5,8 UV-I 794 W/m 14,9 C 23,5 C 17,7 km/h (3 Bft)
11.06.2023 12:03 24,2 C 30,0 C 55 % 1016,8 hPa 0,0 l/m 18,9 km/h (3 Bft) O-NO 66 3 min 5,9 UV-I 800 W/m 14,6 C 21,8 C 32,2 km/h (5 Bft)
11.06.2023 12:06 24,1 C 29,4 C 55 % 1016,9 hPa 0,0 l/m 18,7 km/h (3 Bft) O-NO 71 3 min 6,0 UV-I 808 W/m 14,5 C 21,7 C 25,7 km/h (4 Bft)
11.06.2023 12:09 24,3 C 30,0 C 53 % 1017,0 hPa 0,0 l/m 15,7 km/h (3 Bft) O-NO 72 3 min 6,0 UV-I 819 W/m 14,1 C 22,4 C 27,4 km/h (4 Bft)
11.06.2023 12:12 24,1 C 29,4 C 53 % 1017,0 hPa 0,0 l/m 17,6 km/h (3 Bft) O 80 3 min 6,1 UV-I 823 W/m 13,9 C 21,8 C 33,8 km/h (5 Bft)
11.06.2023 12:15 24,0 C 28,3 C 55 % 1017,0 hPa 0,0 l/m 16,2 km/h (3 Bft) SO 144 3 min 6,1 UV-I 826 W/m 14,4 C 21,9 C 25,7 km/h (4 Bft)
11.06.2023 12:18 23,8 C 28,9 C 55 % 1017,0 hPa 0,0 l/m 16,0 km/h (3 Bft) O 94 3 min 6,1 UV-I 831 W/m 14,2 C 21,7 C 27,4 km/h (4 Bft)
11.06.2023 12:21 24,3 C 29,4 C 54 % 1017,0 hPa 0,0 l/m 11,0 km/h (2 Bft) O-NO 72 3 min 6,2 UV-I 833 W/m 14,4 C 23,2 C 24,1 km/h (4 Bft)
11.06.2023 12:24 24,4 C 30,0 C 56 % 1017,0 hPa 0,0 l/m 7,5 km/h (2 Bft) O 81 3 min 6,2 UV-I 843 W/m 15,0 C 24,1 C 17,7 km/h (3 Bft)
11.06.2023 12:27 24,9 C 30,0 C 54 % 1017,0 hPa 0,0 l/m 13,6 km/h (3 Bft) O-NO 71 3 min 6,3 UV-I 851 W/m 14,9 C 23,4 C 30,6 km/h (5 Bft)
11.06.2023 12:30 24,8 C 30,6 C 54 % 1017,0 hPa 0,0 l/m 17,9 km/h (3 Bft) O-NO 71 3 min 5,4 UV-I 836 W/m 14,8 C 22,7 C 30,6 km/h (5 Bft)
11.06.2023 12:33 24,3 C 28,9 C 53 % 1017,0 hPa 0,0 l/m 22,3 km/h (4 Bft) O-NO 66 3 min 5,6 UV-I 654 W/m 14,1 C 21,5 C 32,2 km/h (5 Bft)
11.06.2023 12:36 24,3 C 30,0 C 53 % 1017,0 hPa 0,0 l/m 17,2 km/h (3 Bft) O-NO 57 3 min 6,4 UV-I 848 W/m 14,1 C 22,1 C 32,2 km/h (5 Bft)
11.06.2023 12:39 24,2 C 29,4 C 54 % 1016,9 hPa 0,0 l/m 22,0 km/h (4 Bft) NO 56 3 min 5,7 UV-I 888 W/m 14,3 C 21,4 C 30,6 km/h (5 Bft)
11.06.2023 12:42 24,5 C 29,4 C 53 % 1017,0 hPa 0,0 l/m 16,4 km/h (3 Bft) O-SO 104 3 min 6,5 UV-I 901 W/m 14,3 C 22,5 C 25,7 km/h (4 Bft)
11.06.2023 12:45 24,3 C 28,9 C 53 % 1016,9 hPa 0,0 l/m 16,7 km/h (3 Bft) SO 131 3 min 6,6 UV-I 931 W/m 14,1 C 22,2 C 27,4 km/h (4 Bft)
11.06.2023 12:48 24,6 C 29,4 C 54 % 1017,0 hPa 0,0 l/m 15,6 km/h (3 Bft) O 83 3 min 6,7 UV-I 963 W/m 14,7 C 22,7 C 24,1 km/h (4 Bft)
11.06.2023 12:51 24,4 C 27,2 C 51 % 1016,9 hPa 0,0 l/m 15,2 km/h (3 Bft) O 96 3 min 4,3 UV-I 952 W/m 13,6 C 22,5 C 22,5 km/h (4 Bft)
11.06.2023 12:54 24,6 C 30,0 C 53 % 1016,9 hPa 0,0 l/m 14,1 km/h (3 Bft) O 84 3 min 6,0 UV-I 931 W/m 14,4 C 23,0 C 27,4 km/h (4 Bft)
11.06.2023 12:57 24,6 C 31,1 C 53 % 1016,9 hPa 0,0 l/m 15,8 km/h (3 Bft) O-NO 71 3 min 5,9 UV-I 895 W/m 14,4 C 22,7 C 22,5 km/h (4 Bft)
11.06.2023 13:00 24,8 C 31,1 C 52 % 1016,9 hPa 0,0 l/m 17,4 km/h (3 Bft) O 95 3 min 6,5 UV-I 895 W/m 14,3 C 22,7 C 24,1 km/h (4 Bft)
11.06.2023 13:03 24,7 C 29,4 C 53 % 1017,1 hPa 0,0 l/m 15,1 km/h (3 Bft) O-SO 105 3 min 5,1 UV-I 891 W/m 14,5 C 22,9 C 24,1 km/h (4 Bft)
11.06.2023 13:06 24,8 C 30,6 C 50 % 1016,9 hPa 0,0 l/m 14,0 km/h (3 Bft) O-SO 120 3 min 6,7 UV-I 939 W/m 13,7 C 23,2 C 25,7 km/h (4 Bft)
11.06.2023 13:09 24,8 C 29,4 C 50 % 1016,9 hPa 0,0 l/m 17,8 km/h (3 Bft) SO 125 3 min 6,5 UV-I 941 W/m 13,7 C 22,7 C 33,8 km/h (5 Bft)
11.06.2023 13:12 25,0 C 30,6 C 51 % 1016,7 hPa 0,0 l/m 12,9 km/h (3 Bft) O-SO 107 3 min 6,7 UV-I 933 W/m 14,1 C 23,6 C 20,9 km/h (4 Bft)
11.06.2023 13:15 25,3 C 32,2 C 49 % 1016,7 hPa 0,0 l/m 15,8 km/h (3 Bft) O-NO 66 3 min 6,8 UV-I 917 W/m 13,8 C 23,6 C 30,6 km/h (5 Bft)
11.06.2023 13:18 25,6 C 32,8 C 49 % 1016,9 hPa 0,0 l/m 16,9 km/h (3 Bft) O-NO 76 3 min 6,8 UV-I 901 W/m 14,1 C 23,8 C 25,7 km/h (4 Bft)
11.06.2023 13:21 25,3 C 32,8 C 50 % 1016,8 hPa 0,0 l/m 15,2 km/h (3 Bft) O-SO 106 3 min 6,7 UV-I 884 W/m 14,1 C 23,6 C 25,7 km/h (4 Bft)
11.06.2023 13:24 24,9 C 31,1 C 48 % 1016,9 hPa 0,0 l/m 18,5 km/h (3 Bft) O-SO 110 3 min 6,7 UV-I 875 W/m 13,1 C 22,7 C 25,7 km/h (4 Bft)
11.06.2023 13:27 25,1 C 31,1 C 50 % 1016,8 hPa 0,0 l/m 12,8 km/h (3 Bft) O-NO 77 3 min 6,7 UV-I 877 W/m 13,9 C 23,8 C 27,4 km/h (4 Bft)
11.06.2023 13:30 25,4 C 32,2 C 46 % 1016,8 hPa 0,0 l/m 11,1 km/h (2 Bft) O 79 3 min 6,7 UV-I 874 W/m 12,9 C 24,4 C 19,3 km/h (3 Bft)
11.06.2023 13:33 25,4 C 32,8 C 46 % 1016,9 hPa 0,0 l/m 17,4 km/h (3 Bft) O-SO 103 3 min 6,7 UV-I 873 W/m 12,9 C 23,5 C 27,4 km/h (4 Bft)
11.06.2023 13:36 25,3 C 31,7 C 47 % 1016,8 hPa 0,0 l/m 15,2 km/h (3 Bft) SO 128 3 min 6,7 UV-I 874 W/m 13,2 C 23,6 C 29,0 km/h (5 Bft)
11.06.2023 13:39 25,2 C 31,1 C 46 % 1016,8 hPa 0,0 l/m 22,0 km/h (4 Bft) SO 125 3 min 6,7 UV-I 877 W/m 12,7 C 22,7 C 32,2 km/h (5 Bft)
11.06.2023 13:42 24,9 C 30,0 C 45 % 1016,8 hPa 0,0 l/m 18,4 km/h (3 Bft) O-SO 115 3 min 6,7 UV-I 878 W/m 12,1 C 22,7 C 32,2 km/h (5 Bft)
11.06.2023 13:45 24,9 C 29,4 C 46 % 1016,7 hPa 0,0 l/m 18,5 km/h (3 Bft) O-SO 122 3 min 6,7 UV-I 877 W/m 12,5 C 22,7 C 25,7 km/h (4 Bft)
11.06.2023 13:48 25,1 C 30,6 C 47 % 1016,7 hPa 0,0 l/m 14,5 km/h (3 Bft) O-SO 105 3 min 6,7 UV-I 876 W/m 13,0 C 23,5 C 24,1 km/h (4 Bft)
11.06.2023 13:51 25,3 C 32,2 C 46 % 1016,7 hPa 0,0 l/m 18,6 km/h (3 Bft) O-NO 71 3 min 6,6 UV-I 870 W/m 12,8 C 23,2 C 27,4 km/h (4 Bft)
11.06.2023 13:54 25,3 C 31,7 C 47 % 1016,7 hPa 0,0 l/m 14,7 km/h (3 Bft) N-NO 28 3 min 6,6 UV-I 867 W/m 13,2 C 23,7 C 22,5 km/h (4 Bft)
11.06.2023 13:57 25,4 C 32,2 C 44 % 1016,7 hPa 0,0 l/m 19,4 km/h (3 Bft) O 98 3 min 6,7 UV-I 870 W/m 12,2 C 23,2 C 30,6 km/h (5 Bft)
11.06.2023 14:00 25,2 C 31,1 C 46 % 1016,7 hPa 0,0 l/m 13,4 km/h (3 Bft) O 98 3 min 6,7 UV-I 873 W/m 12,7 C 23,8 C 27,4 km/h (4 Bft)
11.06.2023 14:03 25,5 C 32,2 C 44 % 1016,7 hPa 0,0 l/m 8,0 km/h (2 Bft) SO 128 3 min 6,7 UV-I 874 W/m 12,3 C 25,1 C 17,7 km/h (3 Bft)
11.06.2023 14:06 25,6 C 33,3 C 47 % 1016,7 hPa 0,0 l/m 10,8 km/h (2 Bft) SO 146 3 min 6,7 UV-I 881 W/m 13,4 C 24,7 C 16,1 km/h (3 Bft)
11.06.2023 14:09 25,4 C 30,0 C 43 % 1016,8 hPa 0,0 l/m 19,2 km/h (3 Bft) O-SO 120 3 min 6,7 UV-I 871 W/m 11,9 C 23,3 C 30,6 km/h (5 Bft)
11.06.2023 14:12 25,1 C 29,4 C 45 % 1016,8 hPa 0,0 l/m 15,4 km/h (3 Bft) S-SO 150 3 min 6,7 UV-I 882 W/m 12,3 C 23,4 C 25,7 km/h (4 Bft)
11.06.2023 14:15 25,2 C 31,1 C 45 % 1016,7 hPa 0,0 l/m 16,6 km/h (3 Bft) O-SO 120 3 min 6,7 UV-I 886 W/m 12,4 C 23,3 C 29,0 km/h (5 Bft)
11.06.2023 14:18 25,3 C 30,6 C 44 % 1016,7 hPa 0,0 l/m 13,1 km/h (3 Bft) SO 141 3 min 6,7 UV-I 875 W/m 12,2 C 24,0 C 22,5 km/h (4 Bft)
11.06.2023 14:21 25,7 C 32,2 C 46 % 1016,6 hPa 0,0 l/m 7,8 km/h (2 Bft) O-NO 69 3 min 6,5 UV-I 862 W/m 13,2 C 25,4 C 16,1 km/h (3 Bft)
11.06.2023 14:24 25,9 C 33,9 C 41 % 1016,6 hPa 0,0 l/m 15,9 km/h (3 Bft) O-NO 61 3 min 6,6 UV-I 866 W/m 11,6 C 24,3 C 24,1 km/h (4 Bft)
11.06.2023 14:27 25,9 C 33,9 C 42 % 1016,5 hPa 0,0 l/m 14,3 km/h (3 Bft) O-NO 57 3 min 6,5 UV-I 857 W/m 12,0 C 24,5 C 24,1 km/h (4 Bft)
11.06.2023 14:30 26,1 C 32,8 C 42 % 1016,6 hPa 0,0 l/m 12,3 km/h (3 Bft) SO 133 3 min 6,5 UV-I 860 W/m 12,2 C 25,0 C 24,1 km/h (4 Bft)
11.06.2023 14:33 25,9 C 32,8 C 43 % 1016,6 hPa 0,0 l/m 14,8 km/h (3 Bft) O 92 3 min 6,5 UV-I 857 W/m 12,3 C 24,4 C 24,1 km/h (4 Bft)
11.06.2023 14:36 26,0 C 33,3 C 41 % 1016,5 hPa 0,0 l/m 14,1 km/h (3 Bft) O-NO 72 3 min 6,5 UV-I 860 W/m 11,7 C 24,6 C 32,2 km/h (5 Bft)
11.06.2023 14:39 25,7 C 32,8 C 41 % 1016,5 hPa 0,0 l/m 20,1 km/h (4 Bft) O 88 3 min 6,4 UV-I 856 W/m 11,4 C 23,6 C 33,8 km/h (5 Bft)
11.06.2023 14:42 25,9 C 33,3 C 40 % 1016,6 hPa 0,0 l/m 15,8 km/h (3 Bft) O 86 3 min 6,4 UV-I 851 W/m 11,3 C 24,3 C 29,0 km/h (5 Bft)
11.06.2023 14:45 25,8 C 32,8 C 41 % 1016,5 hPa 0,0 l/m 22,0 km/h (4 Bft) O-NO 61 3 min 6,4 UV-I 851 W/m 11,5 C 23,5 C 32,2 km/h (5 Bft)
11.06.2023 14:48 25,8 C 32,8 C 42 % 1016,6 hPa 0,0 l/m 16,1 km/h (3 Bft) O 96 3 min 6,4 UV-I 849 W/m 11,9 C 24,1 C 22,5 km/h (4 Bft)
11.06.2023 14:51 26,1 C 34,4 C 41 % 1016,5 hPa 0,0 l/m 12,8 km/h (3 Bft) NO 48 3 min 6,3 UV-I 845 W/m 11,8 C 24,9 C 20,9 km/h (4 Bft)
11.06.2023 14:54 26,1 C 33,9 C 40 % 1016,4 hPa 0,0 l/m 15,0 km/h (3 Bft) NO 53 3 min 6,2 UV-I 842 W/m 11,4 C 24,6 C 24,1 km/h (4 Bft)
11.06.2023 14:57 25,9 C 32,8 C 39 % 1016,6 hPa 0,0 l/m 16,5 km/h (3 Bft) O 88 3 min 6,3 UV-I 843 W/m 10,9 C 24,2 C 25,7 km/h (4 Bft)
11.06.2023 15:00 25,8 C 32,2 C 39 % 1016,5 hPa 0,0 l/m 13,1 km/h (3 Bft) SO 129 3 min 6,2 UV-I 841 W/m 10,8 C 24,5 C 20,9 km/h (4 Bft)
11.06.2023 15:03 25,8 C 32,8 C 40 % 1016,4 hPa 0,0 l/m 14,9 km/h (3 Bft) NO 51 3 min 6,2 UV-I 837 W/m 11,2 C 24,3 C 25,7 km/h (4 Bft)
11.06.2023 15:06 26,2 C 35,0 C 41 % 1016,5 hPa 0,0 l/m 10,3 km/h (2 Bft) NO 51 3 min 6,1 UV-I 830 W/m 11,9 C 25,4 C 22,5 km/h (4 Bft)
11.06.2023 15:09 26,1 C 33,9 C 40 % 1016,5 hPa 0,0 l/m 17,7 km/h (3 Bft) O 92 3 min 6,0 UV-I 824 W/m 11,4 C 24,3 C 27,4 km/h (4 Bft)
11.06.2023 15:12 25,6 C 34,4 C 40 % 1016,5 hPa 0,0 l/m 13,6 km/h (3 Bft) O-NO 65 3 min 6,0 UV-I 820 W/m 11,0 C 24,2 C 22,5 km/h (4 Bft)
11.06.2023 15:15 25,9 C 33,3 C 42 % 1016,4 hPa 0,0 l/m 14,7 km/h (3 Bft) O 88 3 min 6,0 UV-I 822 W/m 12,0 C 24,4 C 22,5 km/h (4 Bft)
11.06.2023 15:18 25,8 C 31,7 C 41 % 1016,5 hPa 0,0 l/m 16,0 km/h (3 Bft) SO 125 3 min 6,0 UV-I 819 W/m 11,5 C 24,1 C 27,4 km/h (4 Bft)
11.06.2023 15:21 25,8 C 31,7 C 43 % 1016,4 hPa 0,0 l/m 9,5 km/h (2 Bft) O 92 3 min 5,9 UV-I 814 W/m 12,3 C 25,1 C 19,3 km/h (3 Bft)
11.06.2023 15:24 26,3 C 34,4 C 42 % 1016,4 hPa 0,0 l/m 10,9 km/h (2 Bft) SO 138 3 min 5,8 UV-I 808 W/m 12,3 C 25,5 C 22,5 km/h (4 Bft)
11.06.2023 15:27 26,4 C 34,4 C 41 % 1016,4 hPa 0,0 l/m 8,2 km/h (2 Bft) O-SO 123 3 min 5,8 UV-I 805 W/m 12,1 C 26,0 C 22,5 km/h (4 Bft)
11.06.2023 15:30 26,1 C 31,7 C 39 % 1016,4 hPa 0,0 l/m 17,3 km/h (3 Bft) O-NO 76 3 min 5,8 UV-I 803 W/m 11,0 C 24,4 C 22,5 km/h (4 Bft)
11.06.2023 15:33 26,1 C 33,9 C 39 % 1016,3 hPa 0,0 l/m 15,9 km/h (3 Bft) O 91 3 min 5,8 UV-I 800 W/m 11,0 C 24,5 C 25,7 km/h (4 Bft)
11.06.2023 15:36 26,1 C 33,3 C 39 % 1016,4 hPa 0,0 l/m 19,1 km/h (3 Bft) O-NO 78 3 min 5,6 UV-I 790 W/m 11,0 C 24,2 C 30,6 km/h (5 Bft)
11.06.2023 15:39 25,8 C 33,3 C 39 % 1016,3 hPa 0,0 l/m 18,8 km/h (3 Bft) O-NO 63 3 min 5,6 UV-I 790 W/m 10,8 C 23,8 C 30,6 km/h (5 Bft)
11.06.2023 15:42 25,9 C 33,9 C 41 % 1016,3 hPa 0,0 l/m 13,5 km/h (3 Bft) N 5 3 min 5,5 UV-I 784 W/m 11,6 C 24,6 C 24,1 km/h (4 Bft)
11.06.2023 15:45 26,3 C 34,4 C 39 % 1016,5 hPa 0,0 l/m 18,2 km/h (3 Bft) O 98 3 min 5,5 UV-I 781 W/m 11,2 C 24,5 C 29,0 km/h (5 Bft)
11.06.2023 15:48 26,1 C 34,4 C 39 % 1016,4 hPa 0,0 l/m 16,9 km/h (3 Bft) O 96 3 min 5,5 UV-I 779 W/m 11,0 C 24,4 C 27,4 km/h (4 Bft)
11.06.2023 15:51 26,1 C 34,4 C 38 % 1016,4 hPa 0,0 l/m 16,4 km/h (3 Bft) NO 40 3 min 5,4 UV-I 770 W/m 10,7 C 24,5 C 27,4 km/h (4 Bft)
11.06.2023 15:54 26,1 C 34,4 C 39 % 1016,4 hPa 0,0 l/m 14,7 km/h (3 Bft) O-NO 57 3 min 5,3 UV-I 766 W/m 11,0 C 24,7 C 24,1 km/h (4 Bft)
11.06.2023 15:57 26,3 C 35,0 C 39 % 1016,3 hPa 0,0 l/m 14,9 km/h (3 Bft) O 87 3 min 5,2 UV-I 760 W/m 11,2 C 24,9 C 20,9 km/h (4 Bft)
11.06.2023 16:00 26,1 C 35,0 C 40 % 1016,3 hPa 0,0 l/m 12,1 km/h (2 Bft) O 98 3 min 5,3 UV-I 763 W/m 11,4 C 25,0 C 22,5 km/h (4 Bft)
11.06.2023 16:03 26,1 C 34,4 C 41 % 1016,3 hPa 0,0 l/m 18,0 km/h (3 Bft) O-NO 74 3 min 5,2 UV-I 761 W/m 11,8 C 24,3 C 25,7 km/h (4 Bft)
11.06.2023 16:06 26,1 C 33,9 C 40 % 1016,4 hPa 0,0 l/m 18,0 km/h (3 Bft) O 94 3 min 5,1 UV-I 749 W/m 11,4 C 24,3 C 29,0 km/h (5 Bft)
11.06.2023 16:09 25,9 C 33,9 C 41 % 1016,3 hPa 0,0 l/m 16,3 km/h (3 Bft) NO 48 3 min 5,1 UV-I 749 W/m 11,6 C 24,2 C 29,0 km/h (5 Bft)
11.06.2023 16:12 25,9 C 33,9 C 41 % 1016,3 hPa 0,0 l/m 17,8 km/h (3 Bft) O-NO 69 3 min 4,9 UV-I 742 W/m 11,6 C 24,1 C 29,0 km/h (5 Bft)
11.06.2023 16:15 25,8 C 33,9 C 41 % 1016,3 hPa 0,0 l/m 18,1 km/h (3 Bft) O 86 3 min 4,9 UV-I 751 W/m 11,5 C 23,9 C 30,6 km/h (5 Bft)
11.06.2023 16:18 25,9 C 33,9 C 39 % 1016,3 hPa 0,0 l/m 18,9 km/h (3 Bft) NO 44 3 min 4,8 UV-I 739 W/m 10,9 C 23,9 C 27,4 km/h (4 Bft)
11.06.2023 16:21 26,3 C 35,0 C 40 % 1016,3 hPa 0,0 l/m 12,3 km/h (3 Bft) O 86 3 min 4,8 UV-I 730 W/m 11,6 C 25,2 C 19,3 km/h (3 Bft)
11.06.2023 16:24 26,3 C 34,4 C 40 % 1016,1 hPa 0,0 l/m 14,8 km/h (3 Bft) NO 48 3 min 4,8 UV-I 742 W/m 11,6 C 24,9 C 24,1 km/h (4 Bft)
11.06.2023 16:27 26,3 C 35,0 C 40 % 1016,1 hPa 0,0 l/m 12,1 km/h (2 Bft) NO 38 3 min 4,7 UV-I 748 W/m 11,6 C 25,3 C 19,3 km/h (3 Bft)
11.06.2023 16:30 26,3 C 32,2 C 40 % 1016,2 hPa 0,0 l/m 18,6 km/h (3 Bft) NO 38 3 min 4,0 UV-I 759 W/m 11,6 C 24,5 C 30,6 km/h (5 Bft)
11.06.2023 16:33 26,4 C 33,3 C 41 % 1016,1 hPa 0,0 l/m 20,3 km/h (4 Bft) NO 53 3 min 4,4 UV-I 771 W/m 12,1 C 24,4 C 32,2 km/h (5 Bft)
11.06.2023 16:36 25,8 C 29,4 C 40 % 1016,1 hPa 0,0 l/m 20,0 km/h (4 Bft) O-NO 57 0 min 2,9 UV-I 348 W/m 11,2 C 23,7 C 25,7 km/h (4 Bft)
11.06.2023 16:39 25,6 C 31,7 C 41 % 1016,2 hPa 0,0 l/m 15,8 km/h (3 Bft) O-NO 67 3 min 4,0 UV-I 427 W/m 11,4 C 23,9 C 25,7 km/h (4 Bft)
11.06.2023 16:42 25,9 C 33,9 C 43 % 1016,2 hPa 0,0 l/m 12,6 km/h (3 Bft) SO 126 3 min 4,3 UV-I 703 W/m 12,3 C 24,7 C 20,9 km/h (4 Bft)
11.06.2023 16:45 25,8 C 32,2 C 44 % 1016,2 hPa 0,0 l/m 11,1 km/h (2 Bft) O-NO 74 3 min 4,2 UV-I 679 W/m 12,6 C 24,9 C 22,5 km/h (4 Bft)
11.06.2023 16:48 26,1 C 34,4 C 40 % 1016,1 hPa 0,0 l/m 10,0 km/h (2 Bft) O 89 3 min 4,2 UV-I 684 W/m 11,4 C 25,4 C 20,9 km/h (4 Bft)
11.06.2023 16:51 26,0 C 34,4 C 40 % 1016,1 hPa 0,0 l/m 13,6 km/h (3 Bft) O 84 3 min 4,1 UV-I 682 W/m 11,3 C 24,7 C 25,7 km/h (4 Bft)
11.06.2023 16:54 26,4 C 35,0 C 40 % 1016,0 hPa 0,0 l/m 11,2 km/h (2 Bft) O 95 3 min 4,1 UV-I 670 W/m 11,7 C 25,5 C 22,5 km/h (4 Bft)
11.06.2023 16:57 26,4 C 34,4 C 39 % 1016,0 hPa 0,0 l/m 10,8 km/h (2 Bft) O-NO 69 3 min 4,0 UV-I 662 W/m 11,3 C 25,6 C 22,5 km/h (4 Bft)
11.06.2023 17:00 26,3 C 33,9 C 39 % 1015,9 hPa 0,0 l/m 14,6 km/h (3 Bft) O-NO 76 3 min 4,0 UV-I 651 W/m 11,2 C 24,9 C 22,5 km/h (4 Bft)
11.06.2023 17:03 26,3 C 33,9 C 38 % 1015,9 hPa 0,0 l/m 13,0 km/h (3 Bft) O-SO 105 3 min 3,9 UV-I 645 W/m 10,8 C 25,1 C 29,0 km/h (5 Bft)
11.06.2023 17:06 25,8 C 31,1 C 40 % 1015,8 hPa 0,0 l/m 14,6 km/h (3 Bft) O 82 3 min 3,9 UV-I 642 W/m 11,2 C 24,3 C 35,4 km/h (5 Bft)
11.06.2023 17:09 25,8 C 32,2 C 40 % 1015,9 hPa 0,0 l/m 14,6 km/h (3 Bft) O-NO 67 3 min 3,8 UV-I 635 W/m 11,2 C 24,3 C 38,6 km/h (5 Bft)
11.06.2023 17:12 26,1 C 33,9 C 40 % 1015,9 hPa 0,0 l/m 12,1 km/h (2 Bft) O-NO 72 3 min 3,7 UV-I 629 W/m 11,4 C 25,0 C 27,4 km/h (4 Bft)
11.06.2023 17:15 26,3 C 32,8 C 38 % 1015,9 hPa 0,0 l/m 11,6 km/h (2 Bft) O-SO 120 3 min 3,7 UV-I 624 W/m 10,8 C 25,3 C 24,1 km/h (4 Bft)
11.06.2023 17:18 26,2 C 31,7 C 39 % 1015,8 hPa 0,0 l/m 13,5 km/h (3 Bft) O-SO 109 3 min 3,6 UV-I 620 W/m 11,1 C 25,0 C 20,9 km/h (4 Bft)
11.06.2023 17:21 26,2 C 32,8 C 39 % 1015,9 hPa 0,0 l/m 12,4 km/h (3 Bft) O 94 3 min 3,5 UV-I 606 W/m 11,1 C 25,1 C 20,9 km/h (4 Bft)
11.06.2023 17:24 25,9 C 33,9 C 38 % 1015,9 hPa 0,0 l/m 12,7 km/h (3 Bft) O-NO 71 3 min 3,4 UV-I 597 W/m 10,5 C 24,7 C 16,1 km/h (3 Bft)
11.06.2023 17:27 26,2 C 34,4 C 39 % 1016,0 hPa 0,0 l/m 13,2 km/h (3 Bft) O 80 3 min 3,4 UV-I 598 W/m 11,1 C 25,0 C 20,9 km/h (4 Bft)
11.06.2023 17:30 26,2 C 33,9 C 39 % 1016,0 hPa 0,0 l/m 15,3 km/h (3 Bft) O-NO 73 3 min 3,3 UV-I 580 W/m 11,1 C 24,7 C 24,1 km/h (4 Bft)
11.06.2023 17:33 26,2 C 32,8 C 39 % 1015,9 hPa 0,0 l/m 12,6 km/h (3 Bft) O 83 3 min 3,2 UV-I 571 W/m 11,1 C 25,1 C 22,5 km/h (4 Bft)
11.06.2023 17:36 26,1 C 33,3 C 40 % 1016,0 hPa 0,0 l/m 16,7 km/h (3 Bft) O-NO 75 3 min 3,2 UV-I 568 W/m 11,4 C 24,4 C 29,0 km/h (5 Bft)
11.06.2023 17:39 26,2 C 33,3 C 40 % 1015,8 hPa 0,0 l/m 14,5 km/h (3 Bft) O 83 3 min 3,1 UV-I 554 W/m 11,5 C 24,8 C 22,5 km/h (4 Bft)
11.06.2023 17:42 26,2 C 33,3 C 38 % 1015,8 hPa 0,0 l/m 10,3 km/h (2 Bft) O-NO 69 3 min 3,0 UV-I 546 W/m 10,7 C 25,4 C 20,9 km/h (4 Bft)
11.06.2023 17:45 26,1 C 33,3 C 38 % 1015,8 hPa 0,0 l/m 13,9 km/h (3 Bft) O 90 3 min 3,0 UV-I 539 W/m 10,7 C 24,8 C 22,5 km/h (4 Bft)
11.06.2023 17:48 25,9 C 32,8 C 39 % 1015,7 hPa 0,0 l/m 16,6 km/h (3 Bft) O-NO 63 3 min 2,9 UV-I 538 W/m 10,9 C 24,2 C 25,7 km/h (4 Bft)
11.06.2023 17:51 25,9 C 32,8 C 39 % 1015,9 hPa 0,0 l/m 12,8 km/h (3 Bft) O 87 3 min 2,9 UV-I 539 W/m 10,9 C 24,7 C 20,9 km/h (4 Bft)
11.06.2023 17:54 26,1 C 33,3 C 37 % 1015,9 hPa 0,0 l/m 12,6 km/h (3 Bft) O-NO 71 3 min 2,8 UV-I 531 W/m 10,3 C 25,0 C 22,5 km/h (4 Bft)
11.06.2023 17:57 26,1 C 33,3 C 39 % 1015,8 hPa 0,0 l/m 8,3 km/h (2 Bft) O 94 3 min 2,7 UV-I 526 W/m 11,0 C 25,7 C 16,1 km/h (3 Bft)
11.06.2023 18:00 25,9 C 33,3 C 37 % 1015,7 hPa 0,0 l/m 6,5 km/h (2 Bft) O 82 3 min 2,7 UV-I 522 W/m 10,1 C 25,9 C 14,5 km/h (3 Bft)
11.06.2023 18:03 26,1 C 33,3 C 38 % 1015,8 hPa 0,0 l/m 10,8 km/h (2 Bft) O-NO 61 3 min 2,5 UV-I 518 W/m 10,7 C 25,2 C 17,7 km/h (3 Bft)
11.06.2023 18:06 26,1 C 33,3 C 38 % 1015,8 hPa 0,0 l/m 9,8 km/h (2 Bft) O-NO 59 3 min 2,4 UV-I 500 W/m 10,7 C 25,4 C 14,5 km/h (3 Bft)
11.06.2023 18:09 26,2 C 32,8 C 38 % 1015,8 hPa 0,0 l/m 10,5 km/h (2 Bft) O-NO 63 3 min 2,4 UV-I 492 W/m 10,7 C 25,4 C 20,9 km/h (4 Bft)
11.06.2023 18:12 26,0 C 32,2 C 37 % 1015,8 hPa 0,0 l/m 17,7 km/h (3 Bft) NO 43 3 min 2,3 UV-I 482 W/m 10,2 C 24,2 C 25,7 km/h (4 Bft)
11.06.2023 18:15 25,6 C 29,4 C 38 % 1015,8 hPa 0,0 l/m 17,2 km/h (3 Bft) NO 48 3 min 1,7 UV-I 317 W/m 10,2 C 23,8 C 25,7 km/h (4 Bft)
11.06.2023 18:18 25,2 C 27,2 C 39 % 1015,8 hPa 0,0 l/m 13,7 km/h (3 Bft) O-SO 108 0 min 1,5 UV-I 124 W/m 10,2 C 23,7 C 20,9 km/h (4 Bft)
11.06.2023 18:21 25,2 C 29,4 C 40 % 1015,8 hPa 0,0 l/m 11,5 km/h (2 Bft) O-NO 72 3 min 2,0 UV-I 394 W/m 10,6 C 24,1 C 20,9 km/h (4 Bft)
11.06.2023 18:24 25,3 C 28,3 C 42 % 1015,8 hPa 0,0 l/m 13,4 km/h (3 Bft) N-NO 30 3 min 1,7 UV-I 355 W/m 11,5 C 23,9 C 20,9 km/h (4 Bft)
11.06.2023 18:27 25,1 C 27,2 C 42 % 1015,9 hPa 0,0 l/m 12,4 km/h (3 Bft) O-NO 69 0 min 1,7 UV-I 143 W/m 11,3 C 23,8 C 20,9 km/h (4 Bft)
11.06.2023 18:30 25,5 C 27,8 C 41 % 1015,7 hPa 0,0 l/m 12,4 km/h (3 Bft) NO 49 3 min 1,9 UV-I 440 W/m 11,3 C 24,3 C 24,1 km/h (4 Bft)
11.06.2023 18:33 25,6 C 27,8 C 41 % 1015,6 hPa 0,0 l/m 14,8 km/h (3 Bft) O-NO 75 3 min 1,8 UV-I 422 W/m 11,4 C 24,1 C 22,5 km/h (4 Bft)
11.06.2023 18:36 25,4 C 26,7 C 40 % 1015,7 hPa 0,0 l/m 17,8 km/h (3 Bft) O-NO 71 3 min 1,6 UV-I 405 W/m 10,8 C 23,4 C 27,4 km/h (4 Bft)
11.06.2023 18:39 25,1 C 26,7 C 43 % 1015,8 hPa 0,0 l/m 13,4 km/h (3 Bft) O 86 3 min 1,6 UV-I 273 W/m 11,6 C 23,7 C 17,7 km/h (3 Bft)
11.06.2023 18:42 25,1 C 26,7 C 42 % 1015,7 hPa 0,0 l/m 16,4 km/h (3 Bft) N-NO 28 3 min 1,7 UV-I 403 W/m 11,3 C 23,2 C 25,7 km/h (4 Bft)
11.06.2023 18:45 25,2 C 26,7 C 42 % 1015,7 hPa 0,0 l/m 15,3 km/h (3 Bft) N-NO 22 3 min 1,5 UV-I 356 W/m 11,4 C 23,5 C 22,5 km/h (4 Bft)
11.06.2023 18:48 24,9 C 25,6 C 43 % 1015,7 hPa 0,0 l/m 15,6 km/h (3 Bft) NO 43 0 min 1,1 UV-I 128 W/m 11,4 C 23,1 C 22,5 km/h (4 Bft)
11.06.2023 18:51 24,9 C 26,7 C 43 % 1015,6 hPa 0,0 l/m 10,7 km/h (2 Bft) NO 51 3 min 1,5 UV-I 278 W/m 11,4 C 23,9 C 19,3 km/h (3 Bft)
11.06.2023 18:54 25,2 C 28,9 C 43 % 1015,7 hPa 0,0 l/m 15,0 km/h (3 Bft) O-NO 59 3 min 1,5 UV-I 362 W/m 11,7 C 23,5 C 20,9 km/h (4 Bft)
11.06.2023 18:57 25,1 C 28,9 C 42 % 1015,7 hPa 0,0 l/m 15,1 km/h (3 Bft) NO 49 3 min 1,4 UV-I 348 W/m 11,3 C 23,4 C 25,7 km/h (4 Bft)
11.06.2023 19:00 25,2 C 29,4 C 42 % 1015,6 hPa 0,0 l/m 9,9 km/h (2 Bft) O 86 3 min 1,3 UV-I 295 W/m 11,4 C 24,4 C 17,7 km/h (3 Bft)
11.06.2023 19:03 25,0 C 28,9 C 42 % 1015,6 hPa 0,0 l/m 13,0 km/h (3 Bft) NO 40 3 min 1,3 UV-I 288 W/m 11,2 C 23,6 C 20,9 km/h (4 Bft)
11.06.2023 19:06 24,9 C 29,4 C 43 % 1015,6 hPa 0,0 l/m 11,0 km/h (2 Bft) O-NO 60 3 min 1,3 UV-I 328 W/m 11,4 C 23,9 C 19,3 km/h (3 Bft)
11.06.2023 19:09 25,0 C 29,4 C 42 % 1015,6 hPa 0,0 l/m 13,8 km/h (3 Bft) NO 50 3 min 1,3 UV-I 313 W/m 11,2 C 23,5 C 20,9 km/h (4 Bft)
11.06.2023 19:12 24,9 C 29,4 C 43 % 1015,5 hPa 0,0 l/m 16,4 km/h (3 Bft) N-NO 30 3 min 1,2 UV-I 320 W/m 11,4 C 23,0 C 29,0 km/h (5 Bft)
11.06.2023 19:15 24,9 C 28,9 C 42 % 1015,7 hPa 0,0 l/m 19,0 km/h (3 Bft) O-NO 71 3 min 1,2 UV-I 301 W/m 11,1 C 22,7 C 27,4 km/h (4 Bft)
11.06.2023 19:18 24,9 C 29,4 C 43 % 1015,6 hPa 0,0 l/m 8,3 km/h (2 Bft) NO 53 3 min 1,1 UV-I 289 W/m 11,4 C 24,4 C 14,5 km/h (3 Bft)
11.06.2023 19:21 24,9 C 30,0 C 43 % 1015,6 hPa 0,0 l/m 11,2 km/h (2 Bft) NO 51 3 min 1,1 UV-I 275 W/m 11,4 C 23,8 C 17,7 km/h (3 Bft)
11.06.2023 19:24 24,8 C 28,9 C 42 % 1015,7 hPa 0,0 l/m 19,3 km/h (3 Bft) NO 49 3 min 1,0 UV-I 264 W/m 11,0 C 22,5 C 32,2 km/h (5 Bft)
11.06.2023 19:27 24,7 C 27,8 C 42 % 1015,6 hPa 0,0 l/m 18,6 km/h (3 Bft) O-NO 69 3 min 1,0 UV-I 253 W/m 10,9 C 22,4 C 29,0 km/h (5 Bft)
11.06.2023 19:30 24,7 C 27,2 C 43 % 1015,7 hPa 0,0 l/m 15,8 km/h (3 Bft) O-NO 74 3 min 0,9 UV-I 215 W/m 11,3 C 22,8 C 20,9 km/h (4 Bft)
11.06.2023 19:33 24,6 C 26,1 C 44 % 1015,7 hPa 0,0 l/m 11,4 km/h (2 Bft) NO 49 3 min 0,9 UV-I 182 W/m 11,5 C 23,4 C 19,3 km/h (3 Bft)
11.06.2023 19:36 24,5 C 26,1 C 44 % 1015,7 hPa 0,0 l/m 9,2 km/h (2 Bft) N-NO 33 3 min 0,9 UV-I 223 W/m 11,4 C 23,8 C 14,5 km/h (3 Bft)
11.06.2023 19:39 24,5 C 26,7 C 44 % 1015,8 hPa 0,0 l/m 8,2 km/h (2 Bft) O-NO 66 3 min 0,8 UV-I 225 W/m 11,4 C 24,0 C 12,9 km/h (3 Bft)
11.06.2023 19:42 24,5 C 26,7 C 44 % 1015,7 hPa 0,0 l/m 11,5 km/h (2 Bft) O-NO 78 3 min 0,8 UV-I 214 W/m 11,4 C 23,3 C 17,7 km/h (3 Bft)
11.06.2023 19:45 24,4 C 25,6 C 43 % 1015,7 hPa 0,0 l/m 14,0 km/h (3 Bft) O 83 3 min 0,8 UV-I 208 W/m 11,0 C 22,7 C 22,5 km/h (4 Bft)
11.06.2023 19:48 24,4 C 25,0 C 44 % 1015,7 hPa 0,0 l/m 10,3 km/h (2 Bft) NO 38 3 min 0,7 UV-I 202 W/m 11,3 C 23,4 C 16,1 km/h (3 Bft)
11.06.2023 19:51 24,4 C 25,0 C 43 % 1015,7 hPa 0,0 l/m 13,0 km/h (3 Bft) O-NO 71 3 min 0,7 UV-I 194 W/m 11,0 C 22,9 C 20,9 km/h (4 Bft)
11.06.2023 19:54 24,3 C 23,9 C 44 % 1015,7 hPa 0,0 l/m 11,8 km/h (2 Bft) O 80 3 min 0,7 UV-I 185 W/m 11,3 C 23,0 C 16,1 km/h (3 Bft)
11.06.2023 19:57 24,2 C 23,3 C 44 % 1015,7 hPa 0,0 l/m 9,0 km/h (2 Bft) O-NO 57 3 min 0,6 UV-I 177 W/m 11,2 C 23,5 C 17,7 km/h (3 Bft)
11.06.2023 20:00 24,2 C 23,3 C 43 % 1015,8 hPa 0,0 l/m 7,5 km/h (2 Bft) O-SO 118 3 min 0,6 UV-I 171 W/m 10,8 C 23,9 C 14,5 km/h (3 Bft)
11.06.2023 20:03 24,2 C 22,8 C 42 % 1015,9 hPa 0,0 l/m 12,3 km/h (3 Bft) O 86 3 min 0,6 UV-I 162 W/m 10,5 C 22,8 C 20,9 km/h (4 Bft)
11.06.2023 20:07 24,2 C 22,8 C 43 % 1016,1 hPa 0,0 l/m 11,0 km/h (2 Bft) O-NO 78 4 min 0,5 UV-I 151 W/m 10,8 C 23,1 C 16,1 km/h (3 Bft)
11.06.2023 20:09 24,1 C 22,8 C 42 % 1016,1 hPa 0,0 l/m 8,6 km/h (2 Bft) NO 53 2 min 0,5 UV-I 142 W/m 10,4 C 23,5 C 17,7 km/h (3 Bft)
11.06.2023 20:12 24,0 C 22,2 C 43 % 1016,1 hPa 0,0 l/m 10,5 km/h (2 Bft) O-NO 71 3 min 0,5 UV-I 133 W/m 10,6 C 22,9 C 16,1 km/h (3 Bft)
11.06.2023 20:15 23,9 C 22,2 C 43 % 1016,2 hPa 0,0 l/m 10,8 km/h (2 Bft) O 90 3 min 0,3 UV-I 126 W/m 10,5 C 22,8 C 20,9 km/h (4 Bft)
11.06.2023 20:18 23,9 C 22,2 C 43 % 1016,2 hPa 0,0 l/m 9,5 km/h (2 Bft) O-NO 57 3 min 0,0 UV-I 120 W/m 10,5 C 23,1 C 14,5 km/h (3 Bft)
11.06.2023 20:21 23,9 C 22,2 C 43 % 1016,2 hPa 0,0 l/m 8,9 km/h (2 Bft) O-NO 62 3 min 0,0 UV-I 111 W/m 10,5 C 23,2 C 14,5 km/h (3 Bft)
11.06.2023 20:24 23,8 C 22,2 C 44 % 1016,3 hPa 0,0 l/m 8,1 km/h (2 Bft) O-NO 66 3 min 0,0 UV-I 104 W/m 10,8 C 23,3 C 14,5 km/h (3 Bft)
11.06.2023 20:27 23,7 C 21,7 C 44 % 1016,1 hPa 0,0 l/m 7,4 km/h (2 Bft) NO 47 3 min 0,0 UV-I 96 W/m 10,7 C 23,4 C 12,9 km/h (3 Bft)
11.06.2023 20:30 23,6 C 21,7 C 44 % 1016,2 hPa 0,0 l/m 9,3 km/h (2 Bft) O-NO 67 3 min 0,0 UV-I 89 W/m 10,6 C 22,8 C 14,5 km/h (3 Bft)
11.06.2023 20:33 23,6 C 21,7 C 44 % 1016,2 hPa 0,0 l/m 8,6 km/h (2 Bft) O-NO 69 0 min 0,0 UV-I 62 W/m 10,6 C 23,0 C 16,1 km/h (3 Bft)
11.06.2023 20:36 23,4 C 21,7 C 45 % 1016,2 hPa 0,0 l/m 10,7 km/h (2 Bft) O-NO 61 0 min 0,0 UV-I 36 W/m 10,8 C 22,2 C 17,7 km/h (3 Bft)
11.06.2023 20:39 23,3 C 21,1 C 45 % 1016,3 hPa 0,0 l/m 7,4 km/h (2 Bft) NO 48 0 min 0,0 UV-I 33 W/m 10,7 C 23,0 C 12,9 km/h (3 Bft)
11.06.2023 20:42 23,2 C 21,1 C 45 % 1016,3 hPa 0,0 l/m 10,6 km/h (2 Bft) NO 51 0 min 0,0 UV-I 31 W/m 10,6 C 22,0 C 19,3 km/h (3 Bft)
11.06.2023 20:45 23,2 C 21,1 C 45 % 1016,1 hPa 0,0 l/m 10,6 km/h (2 Bft) O-NO 74 0 min 0,0 UV-I 30 W/m 10,6 C 22,0 C 16,1 km/h (3 Bft)
11.06.2023 20:48 23,1 C 20,6 C 45 % 1016,2 hPa 0,0 l/m 6,9 km/h (2 Bft) O 98 0 min 0,0 UV-I 28 W/m 10,5 C 22,9 C 11,3 km/h (2 Bft)
11.06.2023 20:51 23,1 C 20,6 C 45 % 1016,2 hPa 0,0 l/m 8,3 km/h (2 Bft) O-SO 111 0 min 0,0 UV-I 26 W/m 10,5 C 22,5 C 12,9 km/h (3 Bft)
11.06.2023 20:54 23,1 C 20,6 C 45 % 1016,4 hPa 0,0 l/m 8,7 km/h (2 Bft) O-NO 76 0 min 0,0 UV-I 26 W/m 10,5 C 22,4 C 17,7 km/h (3 Bft)
11.06.2023 20:57 22,9 C 20,6 C 45 % 1016,4 hPa 0,0 l/m 8,7 km/h (2 Bft) O-NO 75 0 min 0,0 UV-I 24 W/m 10,3 C 22,2 C 14,5 km/h (3 Bft)
11.06.2023 21:00 22,8 C 20,6 C 46 % 1016,4 hPa 0,0 l/m 7,3 km/h (2 Bft) O-NO 76 0 min 0,0 UV-I 23 W/m 10,6 C 22,5 C 12,9 km/h (3 Bft)
11.06.2023 21:03 22,8 C 20,0 C 45 % 1016,3 hPa 0,0 l/m 7,8 km/h (2 Bft) O-NO 72 0 min 0,0 UV-I 21 W/m 10,2 C 22,4 C 14,5 km/h (3 Bft)
11.06.2023 21:06 22,7 C 20,0 C 46 % 1016,4 hPa 0,0 l/m 5,5 km/h (1 Bft) O-NO 78 0 min 0,0 UV-I 20 W/m 10,5 C 22,7 C 8,0 km/h (2 Bft)
11.06.2023 21:09 22,5 C 19,4 C 46 % 1016,4 hPa 0,0 l/m 5,1 km/h (1 Bft) O-NO 71 0 min 0,0 UV-I 19 W/m 10,3 C 22,5 C 12,9 km/h (3 Bft)
11.06.2023 21:12 22,3 C 18,9 C 47 % 1016,5 hPa 0,0 l/m 4,1 km/h (1 Bft) O-NO 66 0 min 0,0 UV-I 18 W/m 10,4 C 22,3 C 8,0 km/h (2 Bft)
11.06.2023 21:15 22,2 C 18,9 C 48 % 1016,4 hPa 0,0 l/m 4,9 km/h (1 Bft) O 88 0 min 0,0 UV-I 16 W/m 10,7 C 22,2 C 9,7 km/h (2 Bft)
11.06.2023 21:18 22,1 C 18,3 C 48 % 1016,5 hPa 0,0 l/m 4,8 km/h (1 Bft) O 88 0 min 0,0 UV-I 15 W/m 10,6 C 22,1 C 6,4 km/h (2 Bft)
11.06.2023 21:21 21,9 C 18,3 C 49 % 1016,4 hPa 0,0 l/m 5,1 km/h (1 Bft) O 88 0 min 0,0 UV-I 14 W/m 10,7 C 21,9 C 8,0 km/h (2 Bft)
11.06.2023 21:24 21,6 C 17,8 C 49 % 1016,5 hPa 0,0 l/m 4,1 km/h (1 Bft) O 88 0 min 0,0 UV-I 12 W/m 10,4 C 21,6 C 6,4 km/h (2 Bft)
11.06.2023 21:27 21,2 C 17,2 C 51 % 1016,4 hPa 0,0 l/m 3,9 km/h (1 Bft) O 88 0 min 0,0 UV-I 11 W/m 10,7 C 21,2 C 6,4 km/h (2 Bft)
11.06.2023 21:30 20,8 C 16,7 C 53 % 1016,6 hPa 0,0 l/m 3,4 km/h (1 Bft) O 88 0 min 0,0 UV-I 10 W/m 10,9 C 20,8 C 4,8 km/h (1 Bft)
11.06.2023 21:33 20,5 C 16,1 C 54 % 1016,6 hPa 0,0 l/m 2,4 km/h (1 Bft) O 88 0 min 0,0 UV-I 8 W/m 10,9 C 20,5 C 4,8 km/h (1 Bft)
11.06.2023 21:36 20,2 C 15,6 C 55 % 1016,6 hPa 0,0 l/m 1,7 km/h (1 Bft) O 88 0 min 0,0 UV-I 7 W/m 10,9 C 20,2 C 3,2 km/h (1 Bft)
11.06.2023 21:39 20,0 C 15,6 C 56 % 1016,6 hPa 0,0 l/m 2,3 km/h (1 Bft) O 88 0 min 0,0 UV-I 5 W/m 11,0 C 20,0 C 4,8 km/h (1 Bft)
11.06.2023 21:42 19,8 C 15,6 C 57 % 1016,5 hPa 0,0 l/m 3,5 km/h (1 Bft) O 88 0 min 0,0 UV-I 3 W/m 11,0 C 19,8 C 4,8 km/h (1 Bft)
11.06.2023 21:45 19,6 C 15,0 C 58 % 1016,5 hPa 0,0 l/m 3,5 km/h (1 Bft) O 88 0 min 0,0 UV-I 0 W/m 11,1 C 19,6 C 4,8 km/h (1 Bft)
11.06.2023 21:48 19,4 C 15,0 C 58 % 1016,6 hPa 0,0 l/m 3,2 km/h (1 Bft) O 88 0 min 0,0 UV-I 0 W/m 10,9 C 19,4 C 4,8 km/h (1 Bft)
11.06.2023 21:51 19,2 C 15,0 C 59 % 1016,6 hPa 0,0 l/m 2,7 km/h (1 Bft) O 88 0 min 0,0 UV-I 0 W/m 11,0 C 19,2 C 4,8 km/h (1 Bft)
11.06.2023 21:54 18,9 C 14,4 C 60 % 1016,7 hPa 0,0 l/m 0,5 km/h (0 Bft) O 88 0 min 0,0 UV-I 0 W/m 11,0 C 18,9 C 1,6 km/h (1 Bft)
11.06.2023 21:57 18,7 C 14,4 C 61 % 1016,6 hPa 0,0 l/m 1,3 km/h (1 Bft) O 88 0 min 0,0 UV-I 0 W/m 11,0 C 18,7 C 3,2 km/h (1 Bft)
11.06.2023 22:00 18,6 C 14,4 C 62 % 1016,6 hPa 0,0 l/m 0,4 km/h (0 Bft) O 88 0 min 0,0 UV-I 0 W/m 11,2 C 18,6 C 1,6 km/h (1 Bft)
11.06.2023 22:03 18,3 C 14,4 C 63 % 1016,6 hPa 0,0 l/m 1,1 km/h (1 Bft) O 88 0 min 0,0 UV-I 0 W/m 11,1 C 18,3 C 1,6 km/h (1 Bft)
11.06.2023 22:06 18,2 C 13,9 C 63 % 1016,6 hPa 0,0 l/m 0,6 km/h (0 Bft) O 88 0 min 0,0 UV-I 0 W/m 11,0 C 18,2 C 1,6 km/h (1 Bft)
11.06.2023 22:09 18,2 C 13,9 C 64 % 1016,5 hPa 0,0 l/m 0,2 km/h (0 Bft) O 88 0 min 0,0 UV-I 0 W/m 11,3 C 18,2 C 1,6 km/h (1 Bft)
11.06.2023 22:12 18,1 C 13,9 C 64 % 1016,5 hPa 0,0 l/m 0,6 km/h (0 Bft) O 88 0 min 0,0 UV-I 0 W/m 11,2 C 18,1 C 3,2 km/h (1 Bft)
11.06.2023 22:15 17,7 C 13,9 C 65 % 1016,5 hPa 0,0 l/m 2,7 km/h (1 Bft) O 88 0 min 0,0 UV-I 0 W/m 11,0 C 17,7 C 4,8 km/h (1 Bft)
11.06.2023 22:18 17,5 C 13,9 C 65 % 1016,5 hPa 0,0 l/m 1,8 km/h (1 Bft) O 88 0 min 0,0 UV-I 0 W/m 10,8 C 17,5 C 3,2 km/h (1 Bft)
11.06.2023 22:21 17,2 C 13,3 C 67 % 1016,5 hPa 0,0 l/m 3,0 km/h (1 Bft) O 88 0 min 0,0 UV-I 0 W/m 11,0 C 17,2 C 4,8 km/h (1 Bft)
11.06.2023 22:24 17,1 C 13,3 C 67 % 1016,6 hPa 0,0 l/m 3,6 km/h (1 Bft) O 88 0 min 0,0 UV-I 0 W/m 10,9 C 17,1 C 4,8 km/h (1 Bft)
11.06.2023 22:27 16,9 C 13,3 C 67 % 1016,6 hPa 0,0 l/m 2,6 km/h (1 Bft) O 88 0 min 0,0 UV-I 0 W/m 10,7 C 16,9 C 4,8 km/h (1 Bft)
11.06.2023 22:30 16,8 C 12,8 C 68 % 1016,6 hPa 0,0 l/m 2,0 km/h (1 Bft) O 88 0 min 0,0 UV-I 0 W/m 10,9 C 16,8 C 3,2 km/h (1 Bft)
11.06.2023 22:33 16,6 C 12,8 C 69 % 1016,6 hPa 0,0 l/m 2,3 km/h (1 Bft) O 88 0 min 0,0 UV-I 0 W/m 10,9 C 16,6 C 4,8 km/h (1 Bft)
11.06.2023 22:36 16,5 C 12,8 C 70 % 1016,6 hPa 0,0 l/m 1,1 km/h (1 Bft) O 88 0 min 0,0 UV-I 0 W/m 11,0 C 16,5 C 1,6 km/h (1 Bft)
11.06.2023 22:39 16,3 C 12,8 C 70 % 1016,6 hPa 0,0 l/m 1,4 km/h (1 Bft) O 88 0 min 0,0 UV-I 0 W/m 10,8 C 16,3 C 3,2 km/h (1 Bft)
11.06.2023 22:42 16,2 C 12,8 C 69 % 1016,6 hPa 0,0 l/m 3,0 km/h (1 Bft) O 88 0 min 0,0 UV-I 0 W/m 10,5 C 16,2 C 4,8 km/h (1 Bft)
11.06.2023 22:45 16,2 C 12,8 C 70 % 1016,5 hPa 0,0 l/m 4,2 km/h (1 Bft) O 88 0 min 0,0 UV-I 0 W/m 10,7 C 16,2 C 6,4 km/h (2 Bft)
11.06.2023 22:48 16,2 C 12,8 C 69 % 1016,5 hPa 0,0 l/m 4,2 km/h (1 Bft) O 88 0 min 0,0 UV-I 0 W/m 10,5 C 16,2 C 6,4 km/h (2 Bft)
11.06.2023 22:51 16,2 C 12,2 C 70 % 1016,4 hPa 0,0 l/m 3,9 km/h (1 Bft) O 88 0 min 0,0 UV-I 0 W/m 10,7 C 16,2 C 4,8 km/h (1 Bft)
11.06.2023 22:54 16,1 C 11,7 C 70 % 1016,4 hPa 0,0 l/m 4,2 km/h (1 Bft) O 88 0 min 0,0 UV-I 0 W/m 10,6 C 16,1 C 6,4 km/h (2 Bft)
11.06.2023 22:57 15,8 C 11,7 C 71 % 1016,4 hPa 0,0 l/m 4,2 km/h (1 Bft) O 88 0 min 0,0 UV-I 0 W/m 10,6 C 15,8 C 4,8 km/h (1 Bft)
11.06.2023 23:00 15,7 C 11,7 C 71 % 1016,4 hPa 0,0 l/m 3,4 km/h (1 Bft) O 88 0 min 0,0 UV-I 0 W/m 10,5 C 15,7 C 4,8 km/h (1 Bft)
11.06.2023 23:03 15,4 C 11,7 C 72 % 1016,5 hPa 0,0 l/m 2,4 km/h (1 Bft) O 88 0 min 0,0 UV-I 0 W/m 10,4 C 15,4 C 3,2 km/h (1 Bft)
11.06.2023 23:06 15,1 C 11,7 C 73 % 1016,5 hPa 0,0 l/m 0,7 km/h (0 Bft) O 88 0 min 0,0 UV-I 0 W/m 10,3 C 15,1 C 1,6 km/h (1 Bft)
11.06.2023 23:09 14,9 C 11,7 C 74 % 1016,4 hPa 0,0 l/m 0,9 km/h (0 Bft) O 88 0 min 0,0 UV-I 0 W/m 10,3 C 14,9 C 1,6 km/h (1 Bft)
11.06.2023 23:12 15,0 C 11,7 C 74 % 1016,4 hPa 0,0 l/m 1,5 km/h (1 Bft) O 88 0 min 0,0 UV-I 0 W/m 10,4 C 15,0 C 3,2 km/h (1 Bft)
11.06.2023 23:15 15,0 C 11,1 C 74 % 1016,5 hPa 0,0 l/m 1,6 km/h (1 Bft) O 88 0 min 0,0 UV-I 0 W/m 10,4 C 15,0 C 3,2 km/h (1 Bft)
11.06.2023 23:18 15,0 C 11,1 C 74 % 1016,5 hPa 0,0 l/m 1,9 km/h (1 Bft) O 88 0 min 0,0 UV-I 0 W/m 10,4 C 15,0 C 3,2 km/h (1 Bft)
11.06.2023 23:21 15,1 C 11,1 C 74 % 1016,6 hPa 0,0 l/m 1,7 km/h (1 Bft) O 88 0 min 0,0 UV-I 0 W/m 10,5 C 15,1 C 3,2 km/h (1 Bft)
11.06.2023 23:24 14,9 C 11,7 C 74 % 1016,6 hPa 0,0 l/m 0,8 km/h (0 Bft) O 88 0 min 0,0 UV-I 0 W/m 10,3 C 14,9 C 3,2 km/h (1 Bft)
11.06.2023 23:27 14,7 C 11,1 C 74 % 1016,5 hPa 0,0 l/m 1,2 km/h (1 Bft) O 88 0 min 0,0 UV-I 0 W/m 10,1 C 14,7 C 3,2 km/h (1 Bft)
11.06.2023 23:30 14,8 C 11,1 C 74 % 1016,6 hPa 0,0 l/m 1,6 km/h (1 Bft) O 88 0 min 0,0 UV-I 0 W/m 10,2 C 14,8 C 3,2 km/h (1 Bft)
11.06.2023 23:33 14,8 C 11,1 C 74 % 1016,5 hPa 0,0 l/m 0,9 km/h (0 Bft) O 88 0 min 0,0 UV-I 0 W/m 10,2 C 14,8 C 3,2 km/h (1 Bft)
11.06.2023 23:36 14,7 C 11,1 C 74 % 1016,6 hPa 0,0 l/m 0,2 km/h (0 Bft) O 88 0 min 0,0 UV-I 0 W/m 10,1 C 14,7 C 1,6 km/h (1 Bft)
11.06.2023 23:39 14,6 C 11,1 C 75 % 1016,7 hPa 0,0 l/m 0,0 km/h (0 Bft) O 88 0 min 0,0 UV-I 0 W/m 10,2 C 14,6 C 0,0 km/h (0 Bft)
11.06.2023 23:42 14,5 C 11,1 C 75 % 1016,6 hPa 0,0 l/m 0,3 km/h (0 Bft) O 88 0 min 0,0 UV-I 0 W/m 10,1 C 14,5 C 1,6 km/h (1 Bft)
11.06.2023 23:45 14,4 C 11,1 C 75 % 1016,6 hPa 0,0 l/m 1,1 km/h (1 Bft) O 88 0 min 0,0 UV-I 0 W/m 10,0 C 14,4 C 1,6 km/h (1 Bft)
11.06.2023 23:48 14,4 C 11,1 C 75 % 1016,6 hPa 0,0 l/m 0,9 km/h (0 Bft) O 88 0 min 0,0 UV-I 0 W/m 10,0 C 14,4 C 3,2 km/h (1 Bft)
11.06.2023 23:51 14,3 C 11,1 C 75 % 1016,6 hPa 0,0 l/m 1,9 km/h (1 Bft) O 88 0 min 0,0 UV-I 0 W/m 9,9 C 14,3 C 3,2 km/h (1 Bft)
11.06.2023 23:54 14,2 C 11,1 C 75 % 1016,7 hPa 0,0 l/m 1,3 km/h (1 Bft) O 88 0 min 0,0 UV-I 0 W/m 9,8 C 14,2 C 3,2 km/h (1 Bft)
11.06.2023 23:57 14,0 C 10,6 C 76 % 1016,6 hPa 0,0 l/m 0,7 km/h (0 Bft) O 88 0 min 0,0 UV-I 0 W/m 9,8 C 14,0 C 3,2 km/h (1 Bft)
11.06.2023 23:58 13,8 C 10,6 C 76 % 1016,7 hPa 0,0 l/m 1,6 km/h (1 Bft) O 90 0 min 0,0 UV-I 0 W/m 9,6 C 13,8 C 1,6 km/h (1 Bft)
11.06.2023 23:59 13,8 C 10,6 C 76 % 1016,7 hPa 0,0 l/m 0,0 km/h (0 Bft) O 90 0 min 0,0 UV-I 0 W/m 9,6 C 13,8 C 1,6 km/h (1 Bft)
_ Min-Zeit 05:34 05:20 17:54 19:12 - 00:03 - - - - - 05:36 05:36 00:05
Minimum _ 10,2 C 8,3 C 37 % 1015,5 hPa - 0,0 km/h (0 Bft) - - - - - 8,1 C 10,2 C 0,0 km/h (0 Bft)
_ Max-Zeit 16:57 15:06 05:07 09:12 00:00 12:33 - - 20:07 13:15 12:48 12:24 15:27 17:09
Maximum _ 26,5 C 35,0 C 88 % 1017,2 hPa 0,0 l/m 22,3 km/h
O-NO (4 Bft)
- - 4 min 6,8 UV-I 963 W/m 15,0 C 26,0 C 38,6 km/h
O (5 Bft)
Durchschnitt _ 19,4 C 20,4 C 62 % 1016,5 hPa #0,0 l/m 7,7 km/h (2 Bft) N-NO - #12:59 h 3,8 UV-I 477 W/m 11,2 C 18,7 C 12,9 km/h (3 Bft)